Time,TemperatureF,DewpointF,PressureIn,WindDirection,WindDirectionDegrees,WindSpeedMPH,WindSpeedGustMPH,Humidity,HourlyPrecipIn,Conditions,Clouds,dailyrainin,SoftwareType,DateUTC
2013-03-04 00:00:00,33.5,26.4,29.54,NE,53,1.0,10.0,75,0.00,,SKC,0.00,VWS V13.01,2013-03-04 05:00:00,
2013-03-04 00:01:00,33.5,26.4,29.54,NNE,33,3.0,3.0,75,0.00,,SKC,0.00,VWS V13.01,2013-03-04 05:01:00,
2013-03-04 00:02:00,33.5,26.4,29.54,NNE,25,3.0,4.0,75,0.00,,SKC,0.00,VWS V13.01,2013-03-04 05:02:00,
2013-03-04 00:03:00,33.5,26.4,29.54,WNW,296,3.0,5.0,75,0.00,,SKC,0.00,VWS V13.01,2013-03-04 05:03:00,
2013-03-04 00:04:00,33.5,26.4,29.54,NNW,336,3.0,6.0,75,0.00,,SKC,0.00,VWS V13.01,2013-03-04 05:04:00,
2013-03-04 00:05:00,33.5,26.4,29.54,North,349,1.0,6.0,75,0.00,,SKC,0.00,VWS V13.01,2013-03-04 05:05:00,
2013-03-04 00:06:00,33.5,26.4,29.54,NNW,331,2.0,6.0,75,0.00,,SKC,0.00,VWS V13.01,2013-03-04 05:06:00,
2013-03-04 00:07:00,33.5,26.4,29.54,NNW,331,0.0,6.0,75,0.00,,SKC,0.00,VWS V13.01,2013-03-04 05:07:00,
2013-03-04 00:08:00,33.5,26.4,29.54,NNW,332,1.0,6.0,75,0.00,,SKC,0.00,VWS V13.01,2013-03-04 05:08:00,
2013-03-04 00:09:00,33.5,26.4,29.54,West,268,6.0,7.0,75,0.00,,SKC,0.00,VWS V13.01,2013-03-04 05:09:00,
2013-03-04 00:10:00,33.5,26.4,29.54,North,355,1.0,7.0,75,0.00,,SKC,0.00,VWS V13.01,2013-03-04 05:10:00,
2013-03-04 00:11:00,33.5,26.4,29.54,North,355,1.0,7.0,75,0.00,,SKC,0.00,VWS V13.01,2013-03-04 05:11:00,
2013-03-04 00:12:00,33.5,26.4,29.54,North,355,0.0,7.0,75,0.00,,SKC,0.00,VWS V13.01,2013-03-04 05:12:00,
2013-03-04 00:13:00,33.5,26.4,29.54,WNW,296,3.0,5.0,75,0.00,,SKC,0.00,VWS V13.01,2013-03-04 05:13:00,
2013-03-04 00:14:00,33.5,26.4,29.54,NNW,340,0.0,7.0,75,0.00,,SKC,0.00,VWS V13.01,2013-03-04 05:14:00,
2013-03-04 00:15:00,33.4,26.3,29.54,NNW,342,1.0,7.0,75,0.00,,SKC,0.00,VWS V13.01,2013-03-04 05:15:00,
2013-03-04 00:16:00,33.4,26.3,29.54,NNW,342,2.0,7.0,75,0.00,,SKC,0.00,VWS V13.01,2013-03-04 05:16:00,
2013-03-04 00:17:00,33.4,26.3,29.54,NNW,341,1.0,7.0,75,0.00,,SKC,0.00,VWS V13.01,2013-03-04 05:17:00,
2013-03-04 00:18:00,33.5,26.4,29.54,NNW,331,0.0,6.0,75,0.00,,SKC,0.00,VWS V13.01,2013-03-04 05:18:00,
2013-03-04 00:19:00,33.4,26.3,29.54,NNW,333,2.0,7.0,75,0.00,,SKC,0.00,VWS V13.01,2013-03-04 05:19:00,
2013-03-04 00:20:00,33.4,26.3,29.54,North,349,7.0,7.0,75,0.00,,SKC,0.00,VWS V13.01,2013-03-04 05:20:00,
2013-03-04 00:21:00,33.4,26.3,29.54,North,349,4.0,7.0,75,0.00,,SKC,0.00,VWS V13.01,2013-03-04 05:21:00,
2013-03-04 00:22:00,33.4,26.3,29.54,NW,311,3.0,7.0,75,0.00,,SKC,0.00,VWS V13.01,2013-03-04 05:22:00,
2013-03-04 00:23:00,33.5,26.4,29.54,North,355,1.0,7.0,75,0.00,,SKC,0.00,VWS V13.01,2013-03-04 05:23:00,
2013-03-04 00:24:00,33.4,26.3,29.54,West,275,3.0,7.0,75,0.00,,SKC,0.00,VWS V13.01,2013-03-04 05:24:00,
2013-03-04 00:25:00,33.4,26.3,29.54,West,275,0.0,7.0,75,0.00,,SKC,0.00,VWS V13.01,2013-03-04 05:25:00,
2013-03-04 00:26:00,33.4,26.3,29.54,West,275,0.0,7.0,75,0.00,,SKC,0.00,VWS V13.01,2013-03-04 05:26:00,
2013-03-04 00:27:00,33.4,26.3,29.54,NNE,24,4.0,7.0,75,0.00,,SKC,0.00,VWS V13.01,2013-03-04 05:27:00,
2013-03-04 00:28:00,33.4,26.3,29.54,NNW,333,0.0,7.0,75,0.00,,SKC,0.00,VWS V13.01,2013-03-04 05:28:00,
2013-03-04 00:29:00,33.4,26.3,29.54,North,355,2.0,7.0,75,0.00,,SKC,0.00,VWS V13.01,2013-03-04 05:29:00,
2013-03-04 00:30:00,33.4,26.3,29.54,North,355,1.0,7.0,75,0.00,,SKC,0.00,VWS V13.01,2013-03-04 05:30:00,
2013-03-04 00:31:00,33.4,26.3,29.54,NNE,30,0.0,1.0,75,0.00,,SKC,0.00,VWS V13.01,2013-03-04 05:31:00,
2013-03-04 00:32:00,33.4,26.3,29.54,North,355,2.0,3.0,75,0.00,,SKC,0.00,VWS V13.01,2013-03-04 05:32:00,
2013-03-04 00:33:00,33.4,26.3,29.54,North,351,0.0,4.0,75,0.00,,SKC,0.00,VWS V13.01,2013-03-04 05:33:00,
2013-03-04 00:34:00,33.4,26.3,29.54,West,274,2.0,7.0,75,0.00,,SKC,0.00,VWS V13.01,2013-03-04 05:34:00,
2013-03-04 00:35:00,33.3,26.2,29.54,NNW,332,0.0,4.0,75,0.00,,SKC,0.00,VWS V13.01,2013-03-04 05:35:00,
2013-03-04 00:36:00,33.3,26.2,29.54,NNW,329,0.0,4.0,75,0.00,,SKC,0.00,VWS V13.01,2013-03-04 05:36:00,
2013-03-04 00:37:00,33.3,26.2,29.54,NW,325,2.0,4.0,75,0.00,,SKC,0.00,VWS V13.01,2013-03-04 05:37:00,
2013-03-04 00:38:00,33.3,26.2,29.54,NW,320,0.0,4.0,75,0.00,,SKC,0.00,VWS V13.01,2013-03-04 05:38:00,
2013-03-04 00:39:00,33.4,26.3,29.54,North,355,1.0,7.0,75,0.00,,SKC,0.00,VWS V13.01,2013-03-04 05:39:00,
2013-03-04 00:40:00,33.3,26.2,29.54,NNE,21,3.0,9.0,75,0.00,,SKC,0.00,VWS V13.01,2013-03-04 05:40:00,
2013-03-04 00:41:00,33.3,26.2,29.54,NNW,346,4.0,9.0,75,0.00,,SKC,0.00,VWS V13.01,2013-03-04 05:41:00,
2013-03-04 00:42:00,33.2,26.1,29.54,NNW,330,1.0,9.0,75,0.00,,SKC,0.00,VWS V13.01,2013-03-04 05:42:00,
2013-03-04 00:43:00,33.2,26.1,29.54,NNW,330,1.0,9.0,75,0.00,,SKC,0.00,VWS V13.01,2013-03-04 05:43:00,
2013-03-04 00:44:00,33.2,26.1,29.54,NNW,339,1.0,9.0,75,0.00,,SKC,0.00,VWS V13.01,2013-03-04 05:44:00,
2013-03-04 00:45:00,33.2,26.1,29.54,NNW,339,1.0,9.0,75,0.00,,SKC,0.00,VWS V13.01,2013-03-04 05:45:00,
2013-03-04 00:46:00,33.2,26.1,29.54,NW,310,1.0,9.0,75,0.00,,SKC,0.00,VWS V13.01,2013-03-04 05:46:00,
2013-03-04 00:47:00,33.2,26.1,29.54,NW,309,3.0,9.0,75,0.00,,SKC,0.00,VWS V13.01,2013-03-04 05:47:00,
2013-03-04 00:48:00,33.3,26.2,29.54,NW,319,0.0,4.0,75,0.00,,SKC,0.00,VWS V13.01,2013-03-04 05:48:00,
2013-03-04 00:49:00,33.2,26.1,29.54,NW,317,2.0,9.0,75,0.00,,SKC,0.00,VWS V13.01,2013-03-04 05:49:00,
2013-03-04 00:50:00,33.2,26.1,29.54,NNW,346,3.0,9.0,75,0.00,,SKC,0.00,VWS V13.01,2013-03-04 05:50:00,
2013-03-04 00:51:00,33.2,26.1,29.54,North,360,1.0,9.0,75,0.00,,SKC,0.00,VWS V13.01,2013-03-04 05:51:00,
2013-03-04 00:52:00,33.2,26.1,29.54,North,360,0.0,9.0,75,0.00,,SKC,0.00,VWS V13.01,2013-03-04 05:52:00,
2013-03-04 00:53:00,33.3,26.2,29.54,NNW,330,1.0,9.0,75,0.00,,SKC,0.00,VWS V13.01,2013-03-04 05:53:00,
2013-03-04 00:54:00,33.2,26.1,29.54,NE,37,4.0,9.0,75,0.00,,SKC,0.00,VWS V13.01,2013-03-04 05:54:00,
2013-03-04 00:55:00,33.2,26.1,29.54,NW,323,4.0,9.0,75,0.00,,SKC,0.00,VWS V13.01,2013-03-04 05:55:00,
2013-03-04 00:56:00,33.2,26.1,29.54,North,355,5.0,9.0,75,0.00,,SKC,0.00,VWS V13.01,2013-03-04 05:56:00,
2013-03-04 00:57:00,33.2,25.8,29.54,NNE,30,2.0,9.0,74,0.00,,SKC,0.00,VWS V13.01,2013-03-04 05:57:00,
2013-03-04 00:58:00,33.2,26.1,29.54,NNE,30,0.0,9.0,75,0.00,,SKC,0.00,VWS V13.01,2013-03-04 05:58:00,
2013-03-04 00:59:00,33.2,26.1,29.54,NNE,30,0.0,9.0,75,0.00,,SKC,0.00,VWS V13.01,2013-03-04 05:59:00,
2013-03-04 01:00:00,33.2,26.1,29.54,NNE,29,2.0,9.0,75,0.00,,SKC,0.00,VWS V13.01,2013-03-04 06:00:00,
2013-03-04 01:01:00,33.2,26.1,29.54,NNW,341,4.0,4.0,75,0.00,,SKC,0.00,VWS V13.01,2013-03-04 06:01:00,
2013-03-04 01:02:00,33.2,26.1,29.54,North,360,0.0,9.0,75,0.00,,SKC,0.00,VWS V13.01,2013-03-04 06:02:00,
2013-03-04 01:03:00,33.2,25.8,29.54,NNW,346,1.0,12.0,74,0.00,,SKC,0.00,VWS V13.01,2013-03-04 06:03:00,
2013-03-04 01:04:00,33.3,26.2,29.54,NNW,346,1.0,12.0,75,0.00,,SKC,0.00,VWS V13.01,2013-03-04 06:04:00,
2013-03-04 01:05:00,33.3,25.9,29.54,NW,315,6.0,12.0,74,0.00,,SKC,0.00,VWS V13.01,2013-03-04 06:05:00,
2013-03-04 01:06:00,33.3,25.9,29.54,NW,312,5.0,12.0,74,0.00,,SKC,0.00,VWS V13.01,2013-03-04 06:06:00,
2013-03-04 01:07:00,33.3,25.9,29.54,NW,313,0.0,12.0,74,0.00,,SKC,0.00,VWS V13.01,2013-03-04 06:07:00,
2013-03-04 01:08:00,33.3,25.9,29.54,NNW,338,4.0,12.0,74,0.00,,SKC,0.00,VWS V13.01,2013-03-04 06:08:00,
2013-03-04 01:09:00,33.2,26.1,29.54,NNE,30,0.0,9.0,75,0.00,,SKC,0.00,VWS V13.01,2013-03-04 06:09:00,
2013-03-04 01:10:00,33.3,25.9,29.54,NE,39,4.0,12.0,74,0.00,,SKC,0.00,VWS V13.01,2013-03-04 06:10:00,
2013-03-04 01:11:00,33.3,25.9,29.54,North,5,2.0,12.0,74,0.00,,SKC,0.00,VWS V13.01,2013-03-04 06:11:00,
2013-03-04 01:12:00,33.3,25.9,29.54,NNW,347,2.0,12.0,74,0.00,,SKC,0.00,VWS V13.01,2013-03-04 06:12:00,
2013-03-04 01:13:00,33.3,25.9,29.54,NW,326,4.0,12.0,74,0.00,,SKC,0.00,VWS V13.01,2013-03-04 06:13:00,
2013-03-04 01:14:00,33.2,25.8,29.54,NNW,346,3.0,12.0,74,0.00,,SKC,0.00,VWS V13.01,2013-03-04 06:14:00,
2013-03-04 01:15:00,33.3,25.9,29.54,NW,319,6.0,12.0,74,0.00,,SKC,0.00,VWS V13.01,2013-03-04 06:15:00,
2013-03-04 01:16:00,33.3,25.9,29.54,North,350,2.0,12.0,74,0.00,,SKC,0.00,VWS V13.01,2013-03-04 06:16:00,
2013-03-04 01:17:00,33.3,25.9,29.54,NNE,21,8.0,12.0,74,0.00,,SKC,0.00,VWS V13.01,2013-03-04 06:17:00,
2013-03-04 01:18:00,33.3,25.9,29.54,NNE,17,2.0,12.0,74,0.00,,SKC,0.00,VWS V13.01,2013-03-04 06:18:00,
2013-03-04 01:19:00,33.3,25.9,29.54,NNW,340,6.0,12.0,74,0.00,,SKC,0.00,VWS V13.01,2013-03-04 06:19:00,
2013-03-04 01:20:00,33.2,25.8,29.54,NNE,24,1.0,12.0,74,0.00,,SKC,0.00,VWS V13.01,2013-03-04 06:20:00,
2013-03-04 01:21:00,33.2,25.8,29.54,NW,311,4.0,12.0,74,0.00,,SKC,0.00,VWS V13.01,2013-03-04 06:21:00,
2013-03-04 01:22:00,33.2,25.8,29.54,NNW,331,2.0,12.0,74,0.00,,SKC,0.00,VWS V13.01,2013-03-04 06:22:00,
2013-03-04 01:23:00,33.2,25.8,29.54,NNW,331,2.0,12.0,74,0.00,,SKC,0.00,VWS V13.01,2013-03-04 06:23:00,
2013-03-04 01:24:00,33.2,25.8,29.54,NNW,340,4.0,12.0,74,0.00,,SKC,0.00,VWS V13.01,2013-03-04 06:24:00,
2013-03-04 01:25:00,33.2,25.8,29.54,NNW,340,3.0,12.0,74,0.00,,SKC,0.00,VWS V13.01,2013-03-04 06:25:00,
2013-03-04 01:26:00,33.3,25.9,29.54,North,349,2.0,12.0,74,0.00,,SKC,0.00,VWS V13.01,2013-03-04 06:26:00,
2013-03-04 01:27:00,33.2,25.8,29.54,NW,311,5.0,12.0,74,0.00,,SKC,0.00,VWS V13.01,2013-03-04 06:27:00,
2013-03-04 01:28:00,33.2,25.8,29.54,North,11,7.0,12.0,74,0.00,,SKC,0.00,VWS V13.01,2013-03-04 06:28:00,
2013-03-04 01:29:00,33.2,25.8,29.54,NNW,334,3.0,12.0,74,0.00,,SKC,0.00,VWS V13.01,2013-03-04 06:29:00,
2013-03-04 01:30:00,33.2,25.8,29.54,NNW,336,0.0,12.0,74,0.00,,SKC,0.00,VWS V13.01,2013-03-04 06:30:00,
2013-03-04 01:31:00,33.2,25.8,29.54,NW,312,4.0,12.0,74,0.00,,SKC,0.00,VWS V13.01,2013-03-04 06:31:00,
2013-03-04 01:32:00,33.2,25.8,29.54,NNW,336,3.0,3.0,74,0.00,,SKC,0.00,VWS V13.01,2013-03-04 06:32:00,
2013-03-04 01:33:00,33.2,25.8,29.54,NW,310,0.0,5.0,74,0.00,,SKC,0.00,VWS V13.01,2013-03-04 06:33:00,
2013-03-04 01:34:00,33.2,25.8,29.54,NW,310,0.0,5.0,74,0.00,,SKC,0.00,VWS V13.01,2013-03-04 06:34:00,
2013-03-04 01:35:00,33.2,25.8,29.54,North,350,4.0,9.0,74,0.00,,SKC,0.00,VWS V13.01,2013-03-04 06:35:00,
2013-03-04 01:36:00,33.2,25.8,29.54,NNE,17,4.0,12.0,74,0.00,,SKC,0.00,VWS V13.01,2013-03-04 06:36:00,
2013-03-04 01:37:00,33.1,25.7,29.54,North,355,4.0,9.0,74,0.00,,SKC,0.00,VWS V13.01,2013-03-04 06:37:00,
2013-03-04 01:38:00,33.1,25.7,29.54,NNE,25,6.0,9.0,74,0.00,,SKC,0.00,VWS V13.01,2013-03-04 06:38:00,
2013-03-04 01:39:00,33.1,25.7,29.54,North,5,4.0,9.0,74,0.00,,SKC,0.00,VWS V13.01,2013-03-04 06:39:00,
2013-03-04 01:40:00,33.1,25.7,29.54,NNW,336,3.0,9.0,74,0.00,,SKC,0.00,VWS V13.01,2013-03-04 06:40:00,
2013-03-04 01:41:00,33.1,25.7,29.54,NNW,348,5.0,9.0,74,0.00,,SKC,0.00,VWS V13.01,2013-03-04 06:41:00,
2013-03-04 01:42:00,33.2,25.8,29.54,NNW,336,2.0,3.0,74,0.00,,SKC,0.00,VWS V13.01,2013-03-04 06:42:00,
2013-03-04 01:43:00,33.1,25.7,29.54,NE,49,0.0,9.0,74,0.00,,SKC,0.00,VWS V13.01,2013-03-04 06:43:00,
2013-03-04 01:44:00,33.1,25.7,29.54,NE,48,0.0,9.0,74,0.00,,SKC,0.00,VWS V13.01,2013-03-04 06:44:00,
2013-03-04 01:45:00,33.1,25.7,29.54,NE,45,1.0,9.0,74,0.00,,SKC,0.00,VWS V13.01,2013-03-04 06:45:00,
2013-03-04 01:46:00,33.1,25.7,29.54,NW,306,3.0,9.0,74,0.00,,SKC,0.00,VWS V13.01,2013-03-04 06:46:00,
2013-03-04 01:47:00,33.1,25.7,29.54,North,355,6.0,9.0,74,0.00,,SKC,0.00,VWS V13.01,2013-03-04 06:47:00,
2013-03-04 01:48:00,33.1,25.7,29.54,NNW,348,3.0,9.0,74,0.00,,SKC,0.00,VWS V13.01,2013-03-04 06:48:00,
2013-03-04 01:49:00,33.0,25.6,29.54,NW,318,2.0,9.0,74,0.00,,SKC,0.00,VWS V13.01,2013-03-04 06:49:00,
2013-03-04 01:50:00,33.0,25.6,29.54,NE,42,0.0,9.0,74,0.00,,SKC,0.00,VWS V13.01,2013-03-04 06:50:00,
2013-03-04 01:51:00,33.0,25.6,29.54,NNW,332,4.0,9.0,74,0.00,,SKC,0.00,VWS V13.01,2013-03-04 06:51:00,
2013-03-04 01:52:00,33.0,25.6,29.54,NNW,334,3.0,9.0,74,0.00,,SKC,0.00,VWS V13.01,2013-03-04 06:52:00,
2013-03-04 01:53:00,33.0,25.6,29.54,NNW,340,3.0,9.0,74,0.00,,SKC,0.00,VWS V13.01,2013-03-04 06:53:00,
2013-03-04 01:54:00,33.1,25.7,29.54,NE,48,0.0,9.0,74,0.00,,SKC,0.00,VWS V13.01,2013-03-04 06:54:00,
2013-03-04 01:55:00,33.0,25.6,29.54,NNW,333,2.0,9.0,74,0.00,,SKC,0.00,VWS V13.01,2013-03-04 06:55:00,
2013-03-04 01:56:00,33.0,25.6,29.54,NNW,333,0.0,9.0,74,0.00,,SKC,0.00,VWS V13.01,2013-03-04 06:56:00,
2013-03-04 01:57:00,33.0,25.6,29.54,NNW,333,1.0,9.0,74,0.00,,SKC,0.00,VWS V13.01,2013-03-04 06:57:00,
2013-03-04 01:58:00,33.0,25.6,29.54,NNW,333,1.0,9.0,74,0.00,,SKC,0.00,VWS V13.01,2013-03-04 06:58:00,
2013-03-04 01:59:00,33.1,25.7,29.54,NW,318,2.0,9.0,74,0.00,,SKC,0.00,VWS V13.01,2013-03-04 06:59:00,
2013-03-04 02:00:00,33.0,25.6,29.54,NNE,25,1.0,9.0,74,0.00,,SKC,0.00,VWS V13.01,2013-03-04 07:00:00,
2013-03-04 02:01:00,32.9,25.9,29.54,North,11,2.0,4.0,75,0.00,,SKC,0.00,VWS V13.01,2013-03-04 07:01:00,
2013-03-04 02:02:00,32.9,25.5,29.54,North,355,3.0,5.0,74,0.00,,SKC,0.00,VWS V13.01,2013-03-04 07:02:00,
2013-03-04 02:03:00,32.9,25.5,29.54,NNE,22,4.0,9.0,74,0.00,,SKC,0.00,VWS V13.01,2013-03-04 07:03:00,
2013-03-04 02:04:00,32.9,25.5,29.54,NW,321,4.0,9.0,74,0.00,,SKC,0.00,VWS V13.01,2013-03-04 07:04:00,
2013-03-04 02:05:00,33.0,25.6,29.54,NNW,333,1.0,9.0,74,0.00,,SKC,0.00,VWS V13.01,2013-03-04 07:05:00,
2013-03-04 02:06:00,32.9,25.5,29.54,NNW,345,3.0,9.0,74,0.00,,SKC,0.00,VWS V13.01,2013-03-04 07:06:00,
2013-03-04 02:07:00,32.9,25.5,29.54,NNW,345,1.0,9.0,74,0.00,,SKC,0.00,VWS V13.01,2013-03-04 07:07:00,
2013-03-04 02:08:00,32.9,25.5,29.54,North,5,5.0,9.0,74,0.00,,SKC,0.00,VWS V13.01,2013-03-04 07:08:00,
2013-03-04 02:09:00,32.9,25.5,29.54,NNE,15,1.0,9.0,74,0.00,,SKC,0.00,VWS V13.01,2013-03-04 07:09:00,
2013-03-04 02:10:00,32.8,25.4,29.54,NNE,33,4.0,9.0,74,0.00,,SKC,0.00,VWS V13.01,2013-03-04 07:10:00,
2013-03-04 02:11:00,32.9,25.9,29.54,North,10,2.0,4.0,75,0.00,,SKC,0.00,VWS V13.01,2013-03-04 07:11:00,
2013-03-04 02:12:00,32.8,25.4,29.54,North,350,3.0,9.0,74,0.00,,SKC,0.00,VWS V13.01,2013-03-04 07:12:00,
2013-03-04 02:13:00,32.8,25.4,29.54,North,360,5.0,9.0,74,0.00,,SKC,0.00,VWS V13.01,2013-03-04 07:13:00,
2013-03-04 02:14:00,32.8,25.4,29.54,NNE,13,4.0,9.0,74,0.00,,SKC,0.00,VWS V13.01,2013-03-04 07:14:00,
2013-03-04 02:15:00,32.8,25.4,29.54,NE,36,2.0,9.0,74,0.00,,SKC,0.00,VWS V13.01,2013-03-04 07:15:00,
2013-03-04 02:16:00,32.8,25.4,29.53,NE,46,4.0,9.0,74,0.00,,SKC,0.00,VWS V13.01,2013-03-04 07:16:00,
2013-03-04 02:17:00,32.9,25.5,29.54,NNW,345,0.0,9.0,74,0.00,,SKC,0.00,VWS V13.01,2013-03-04 07:17:00,
2013-03-04 02:18:00,32.8,25.4,29.53,NNE,28,5.0,9.0,74,0.00,,SKC,0.00,VWS V13.01,2013-03-04 07:18:00,
2013-03-04 02:19:00,32.8,25.4,29.54,North,360,4.0,9.0,74,0.00,,SKC,0.00,VWS V13.01,2013-03-04 07:19:00,
2013-03-04 02:20:00,32.7,25.3,29.54,North,355,2.0,9.0,74,0.00,,SKC,0.00,VWS V13.01,2013-03-04 07:20:00,
2013-03-04 02:21:00,32.7,25.3,29.54,North,355,2.0,9.0,74,0.00,,SKC,0.00,VWS V13.01,2013-03-04 07:21:00,
2013-03-04 02:22:00,32.8,25.4,29.54,North,355,0.0,9.0,74,0.00,,SKC,0.00,VWS V13.01,2013-03-04 07:22:00,
2013-03-04 02:23:00,32.7,25.3,29.54,North,355,1.0,9.0,74,0.00,,SKC,0.00,VWS V13.01,2013-03-04 07:23:00,
2013-03-04 02:24:00,32.7,25.3,29.54,NNE,13,1.0,9.0,74,0.00,,SKC,0.00,VWS V13.01,2013-03-04 07:24:00,
2013-03-04 02:25:00,32.7,25.3,29.54,North,360,4.0,9.0,74,0.00,,SKC,0.00,VWS V13.01,2013-03-04 07:25:00,
2013-03-04 02:26:00,32.8,25.4,29.53,NE,46,4.0,9.0,74,0.00,,SKC,0.00,VWS V13.01,2013-03-04 07:26:00,
2013-03-04 02:27:00,32.6,25.2,29.53,NNW,348,3.0,9.0,74,0.00,,SKC,0.00,VWS V13.01,2013-03-04 07:27:00,
2013-03-04 02:28:00,32.6,25.2,29.54,NW,313,1.0,9.0,74,0.00,,SKC,0.00,VWS V13.01,2013-03-04 07:28:00,
2013-03-04 02:29:00,32.6,25.2,29.54,NW,314,0.0,9.0,74,0.00,,SKC,0.00,VWS V13.01,2013-03-04 07:29:00,
2013-03-04 02:30:00,32.6,25.2,29.53,NW,315,3.0,9.0,74,0.00,,SKC,0.00,VWS V13.01,2013-03-04 07:30:00,
2013-03-04 02:31:00,32.7,25.3,29.54,North,355,2.0,9.0,74,0.00,,SKC,0.00,VWS V13.01,2013-03-04 07:31:00,
2013-03-04 02:32:00,32.6,25.2,29.53,WNW,288,4.0,5.0,74,0.00,,SKC,0.00,VWS V13.01,2013-03-04 07:32:00,
2013-03-04 02:33:00,32.6,25.2,29.54,WNW,290,4.0,5.0,74,0.00,,SKC,0.00,VWS V13.01,2013-03-04 07:33:00,
2013-03-04 02:34:00,32.6,25.2,29.54,WNW,294,3.0,5.0,74,0.00,,SKC,0.00,VWS V13.01,2013-03-04 07:34:00,
2013-03-04 02:35:00,32.6,25.2,29.54,NNW,331,0.0,5.0,74,0.00,,SKC,0.00,VWS V13.01,2013-03-04 07:35:00,
2013-03-04 02:36:00,32.7,25.3,29.54,NW,317,3.0,9.0,74,0.00,,SKC,0.00,VWS V13.01,2013-03-04 07:36:00,
2013-03-04 02:37:00,32.5,25.1,29.54,NNW,340,2.0,5.0,74,0.00,,SKC,0.00,VWS V13.01,2013-03-04 07:37:00,
2013-03-04 02:38:00,32.5,25.1,29.54,North,349,7.0,7.0,74,0.00,,SKC,0.00,VWS V13.01,2013-03-04 07:38:00,
2013-03-04 02:39:00,32.5,25.1,29.54,NNW,348,2.0,7.0,74,0.00,,SKC,0.00,VWS V13.01,2013-03-04 07:39:00,
2013-03-04 02:40:00,32.5,25.1,29.54,NNW,339,4.0,7.0,74,0.00,,SKC,0.00,VWS V13.01,2013-03-04 07:40:00,
2013-03-04 02:41:00,32.6,25.2,29.53,WNW,292,4.0,5.0,74,0.00,,SKC,0.00,VWS V13.01,2013-03-04 07:41:00,
2013-03-04 02:42:00,32.5,25.1,29.54,NNW,334,2.0,7.0,74,0.00,,SKC,0.00,VWS V13.01,2013-03-04 07:42:00,
2013-03-04 02:43:00,32.5,25.1,29.54,NE,41,1.0,7.0,74,0.00,,SKC,0.00,VWS V13.01,2013-03-04 07:43:00,
2013-03-04 02:44:00,32.5,25.1,29.53,NE,41,3.0,7.0,74,0.00,,SKC,0.00,VWS V13.01,2013-03-04 07:44:00,
2013-03-04 02:45:00,32.5,25.1,29.53,NE,38,2.0,7.0,74,0.00,,SKC,0.00,VWS V13.01,2013-03-04 07:45:00,
2013-03-04 02:46:00,32.6,25.2,29.54,NNW,331,1.0,5.0,74,0.00,,SKC,0.00,VWS V13.01,2013-03-04 07:46:00,
2013-03-04 02:47:00,32.4,25.0,29.53,NNW,329,0.0,7.0,74,0.00,,SKC,0.00,VWS V13.01,2013-03-04 07:47:00,
2013-03-04 02:48:00,32.4,25.0,29.53,NNW,329,3.0,7.0,74,0.00,,SKC,0.00,VWS V13.01,2013-03-04 07:48:00,
2013-03-04 02:49:00,32.4,25.0,29.53,NNW,329,9.0,10.0,74,0.00,,SKC,0.00,VWS V13.01,2013-03-04 07:49:00,
2013-03-04 02:50:00,32.4,25.0,29.53,North,9,5.0,10.0,74,0.00,,SKC,0.00,VWS V13.01,2013-03-04 07:50:00,
2013-03-04 02:51:00,32.4,25.0,29.53,North,360,4.0,10.0,74,0.00,,SKC,0.00,VWS V13.01,2013-03-04 07:51:00,
2013-03-04 02:52:00,32.4,25.0,29.53,ENE,61,7.0,10.0,74,0.00,,SKC,0.00,VWS V13.01,2013-03-04 07:52:00,
2013-03-04 02:53:00,32.5,25.1,29.54,NE,41,3.0,7.0,74,0.00,,SKC,0.00,VWS V13.01,2013-03-04 07:53:00,
2013-03-04 02:54:00,32.3,24.6,29.53,NE,43,4.0,11.0,73,0.00,,SKC,0.00,VWS V13.01,2013-03-04 07:54:00,
2013-03-04 02:55:00,32.3,25.0,29.53,NE,43,1.0,11.0,74,0.00,,SKC,0.00,VWS V13.01,2013-03-04 07:55:00,
2013-03-04 02:56:00,32.3,25.0,29.53,NW,310,5.0,11.0,74,0.00,,SKC,0.00,VWS V13.01,2013-03-04 07:56:00,
2013-03-04 02:57:00,32.3,25.0,29.53,NW,304,4.0,11.0,74,0.00,,SKC,0.00,VWS V13.01,2013-03-04 07:57:00,
2013-03-04 02:58:00,32.3,25.0,29.53,NW,304,2.0,11.0,74,0.00,,SKC,0.00,VWS V13.01,2013-03-04 07:58:00,
2013-03-04 02:59:00,32.4,25.0,29.54,NNW,334,7.0,10.0,74,0.00,,SKC,0.00,VWS V13.01,2013-03-04 07:59:00,
2013-03-04 03:00:00,32.3,25.0,29.53,NNW,330,6.0,11.0,74,0.00,,SKC,0.00,VWS V13.01,2013-03-04 08:00:00,
2013-03-04 03:01:00,32.3,25.0,29.53,WNW,302,0.0,5.0,74,0.00,,SKC,0.00,VWS V13.01,2013-03-04 08:01:00,
2013-03-04 03:02:00,32.2,24.9,29.53,WNW,302,0.0,5.0,74,0.00,,SKC,0.00,VWS V13.01,2013-03-04 08:02:00,
2013-03-04 03:03:00,32.2,24.9,29.53,NW,304,6.0,6.0,74,0.00,,SKC,0.00,VWS V13.01,2013-03-04 08:03:00,
2013-03-04 03:04:00,32.2,24.9,29.54,WNW,303,1.0,6.0,74,0.00,,SKC,0.00,VWS V13.01,2013-03-04 08:04:00,
2013-03-04 03:05:00,32.3,25.0,29.53,NE,43,0.0,11.0,74,0.00,,SKC,0.00,VWS V13.01,2013-03-04 08:05:00,
2013-03-04 03:06:00,32.2,24.9,29.53,NNW,348,8.0,8.0,74,0.00,,SKC,0.00,VWS V13.01,2013-03-04 08:06:00,
2013-03-04 03:07:00,32.2,24.5,29.53,North,355,2.0,8.0,73,0.00,,SKC,0.00,VWS V13.01,2013-03-04 08:07:00,
2013-03-04 03:08:00,32.2,24.5,29.53,NE,42,2.0,8.0,73,0.00,,SKC,0.00,VWS V13.01,2013-03-04 08:08:00,
2013-03-04 03:09:00,32.2,24.5,29.54,NNE,33,3.0,8.0,73,0.00,,SKC,0.00,VWS V13.01,2013-03-04 08:09:00,
2013-03-04 03:10:00,32.2,24.9,29.54,NNW,336,3.0,8.0,74,0.00,,SKC,0.00,VWS V13.01,2013-03-04 08:10:00,
2013-03-04 03:11:00,32.3,25.0,29.53,WNW,302,1.0,5.0,74,0.00,,SKC,0.00,VWS V13.01,2013-03-04 08:11:00,
2013-03-04 03:12:00,32.2,24.9,29.53,NNW,342,2.0,8.0,74,0.00,,SKC,0.00,VWS V13.01,2013-03-04 08:12:00,
2013-03-04 03:13:00,32.2,24.9,29.53,NNW,333,4.0,8.0,74,0.00,,SKC,0.00,VWS V13.01,2013-03-04 08:13:00,
2013-03-04 03:14:00,32.2,24.9,29.53,NNE,18,4.0,8.0,74,0.00,,SKC,0.00,VWS V13.01,2013-03-04 08:14:00,
2013-03-04 03:15:00,32.1,24.8,29.53,NNE,13,1.0,8.0,74,0.00,,SKC,0.00,VWS V13.01,2013-03-04 08:15:00,
2013-03-04 03:16:00,32.2,24.9,29.54,NW,325,4.0,6.0,74,0.00,,SKC,0.00,VWS V13.01,2013-03-04 08:16:00,
2013-03-04 03:17:00,32.1,24.8,29.54,North,360,3.0,8.0,74,0.00,,SKC,0.00,VWS V13.01,2013-03-04 08:17:00,
2013-03-04 03:18:00,32.1,24.8,29.54,North,360,4.0,8.0,74,0.00,,SKC,0.00,VWS V13.01,2013-03-04 08:18:00,
2013-03-04 03:19:00,32.1,24.4,29.54,North,360,3.0,9.0,73,0.00,,SKC,0.00,VWS V13.01,2013-03-04 08:19:00,
2013-03-04 03:20:00,32.1,24.4,29.54,North,355,3.0,9.0,73,0.00,,SKC,0.00,VWS V13.01,2013-03-04 08:20:00,
2013-03-04 03:21:00,32.2,24.9,29.54,NNE,26,1.0,8.0,74,0.00,,SKC,0.00,VWS V13.01,2013-03-04 08:21:00,
2013-03-04 03:22:00,32.1,24.4,29.54,North,355,1.0,9.0,73,0.00,,SKC,0.00,VWS V13.01,2013-03-04 08:22:00,
2013-03-04 03:23:00,32.1,24.8,29.54,North,355,7.0,9.0,74,0.00,,SKC,0.00,VWS V13.01,2013-03-04 08:23:00,
2013-03-04 03:24:00,32.1,24.8,29.54,NE,36,3.0,9.0,74,0.00,,SKC,0.00,VWS V13.01,2013-03-04 08:24:00,
2013-03-04 03:25:00,32.1,24.4,29.54,West,277,5.0,9.0,73,0.00,,SKC,0.00,VWS V13.01,2013-03-04 08:25:00,
2013-03-04 03:26:00,32.1,24.4,29.54,NW,325,4.0,9.0,73,0.00,,SKC,0.00,VWS V13.01,2013-03-04 08:26:00,
2013-03-04 03:27:00,32.1,24.8,29.54,North,360,3.0,8.0,74,0.00,,SKC,0.00,VWS V13.01,2013-03-04 08:27:00,
2013-03-04 03:28:00,32.1,24.8,29.54,NW,325,0.0,9.0,74,0.00,,SKC,0.00,VWS V13.01,2013-03-04 08:28:00,
2013-03-04 03:29:00,32.1,24.8,29.54,NW,322,3.0,9.0,74,0.00,,SKC,0.00,VWS V13.01,2013-03-04 08:29:00,
2013-03-04 03:30:00,32.1,24.8,29.54,NNW,331,1.0,9.0,74,0.00,,SKC,0.00,VWS V13.01,2013-03-04 08:30:00,
2013-03-04 03:31:00,32.1,24.8,29.54,North,355,6.0,6.0,74,0.00,,SKC,0.00,VWS V13.01,2013-03-04 08:31:00,
2013-03-04 03:32:00,32.1,24.8,29.54,NNE,15,3.0,9.0,74,0.00,,SKC,0.00,VWS V13.01,2013-03-04 08:32:00,
2013-03-04 03:33:00,32.1,24.4,29.54,NNW,348,6.0,9.0,73,0.00,,SKC,0.00,VWS V13.01,2013-03-04 08:33:00,
2013-03-04 03:34:00,32.1,24.4,29.54,North,351,2.0,9.0,73,0.00,,SKC,0.00,VWS V13.01,2013-03-04 08:34:00,
2013-03-04 03:35:00,32.1,24.4,29.54,North,350,1.0,9.0,73,0.00,,SKC,0.00,VWS V13.01,2013-03-04 08:35:00,
2013-03-04 03:36:00,32.1,24.4,29.54,NNW,327,3.0,9.0,73,0.00,,SKC,0.00,VWS V13.01,2013-03-04 08:36:00,
2013-03-04 03:37:00,32.1,24.8,29.54,NNW,346,1.0,9.0,74,0.00,,SKC,0.00,VWS V13.01,2013-03-04 08:37:00,
2013-03-04 03:38:00,32.1,24.8,29.54,North,355,7.0,9.0,74,0.00,,SKC,0.00,VWS V13.01,2013-03-04 08:38:00,
2013-03-04 03:39:00,32.1,24.8,29.54,NNE,17,1.0,9.0,74,0.00,,SKC,0.00,VWS V13.01,2013-03-04 08:39:00,
2013-03-04 03:40:00,32.1,24.8,29.54,North,355,5.0,9.0,74,0.00,,SKC,0.00,VWS V13.01,2013-03-04 08:40:00,
2013-03-04 03:41:00,32.1,24.8,29.54,NNW,338,6.0,9.0,74,0.00,,SKC,0.00,VWS V13.01,2013-03-04 08:41:00,
2013-03-04 03:42:00,32.1,24.4,29.54,NW,323,5.0,10.0,73,0.00,,SKC,0.00,VWS V13.01,2013-03-04 08:42:00,
2013-03-04 03:43:00,32.1,24.4,29.54,NNE,17,4.0,10.0,73,0.00,,SKC,0.00,VWS V13.01,2013-03-04 08:43:00,
2013-03-04 03:44:00,32.1,24.4,29.54,North,351,1.0,9.0,73,0.00,,SKC,0.00,VWS V13.01,2013-03-04 08:44:00,
2013-03-04 03:45:00,32.1,24.8,29.54,NNW,338,1.0,10.0,74,0.00,,SKC,0.00,VWS V13.01,2013-03-04 08:45:00,
2013-03-04 03:46:00,32.1,24.8,29.54,NW,323,3.0,10.0,74,0.00,,SKC,0.00,VWS V13.01,2013-03-04 08:46:00,
2013-03-04 03:47:00,32.1,24.4,29.54,NNW,347,2.0,10.0,73,0.00,,SKC,0.00,VWS V13.01,2013-03-04 08:47:00,
2013-03-04 03:48:00,32.1,24.4,29.54,NNE,17,5.0,10.0,73,0.00,,SKC,0.00,VWS V13.01,2013-03-04 08:48:00,
2013-03-04 03:49:00,32.1,24.4,29.54,North,355,4.0,10.0,73,0.00,,SKC,0.00,VWS V13.01,2013-03-04 08:49:00,
2013-03-04 03:50:00,32.0,24.3,29.54,North,355,2.0,10.0,73,0.00,,SKC,0.00,VWS V13.01,2013-03-04 08:50:00,
2013-03-04 03:51:00,32.0,24.3,29.54,NNW,338,3.0,10.0,73,0.00,,SKC,0.00,VWS V13.01,2013-03-04 08:51:00,
2013-03-04 03:52:00,32.0,24.3,29.54,NNW,344,6.0,10.0,73,0.00,,SKC,0.00,VWS V13.01,2013-03-04 08:52:00,
2013-03-04 03:53:00,32.0,24.3,29.54,North,351,3.0,10.0,73,0.00,,SKC,0.00,VWS V13.01,2013-03-04 08:53:00,
2013-03-04 03:54:00,32.1,24.8,29.54,NNE,17,0.0,10.0,74,0.00,,SKC,0.00,VWS V13.01,2013-03-04 08:54:00,
2013-03-04 03:55:00,32.0,24.7,29.54,NNE,17,5.0,12.0,74,0.00,,SKC,0.00,VWS V13.01,2013-03-04 08:55:00,
2013-03-04 03:56:00,32.0,24.7,29.54,NNW,345,5.0,12.0,74,0.00,,SKC,0.00,VWS V13.01,2013-03-04 08:56:00,
2013-03-04 03:57:00,32.0,24.7,29.54,NW,313,4.0,12.0,74,0.00,,SKC,0.00,VWS V13.01,2013-03-04 08:57:00,
2013-03-04 03:58:00,32.0,24.7,29.54,North,355,5.0,12.0,74,0.00,,SKC,0.00,VWS V13.01,2013-03-04 08:58:00,
2013-03-04 03:59:00,32.0,24.7,29.54,North,355,5.0,12.0,74,0.00,,SKC,0.00,VWS V13.01,2013-03-04 08:59:00,
2013-03-04 04:00:00,32.0,24.3,29.54,NNE,15,5.0,12.0,73,0.00,,SKC,0.00,VWS V13.01,2013-03-04 09:00:00,
2013-03-04 04:01:00,32.0,24.3,29.54,NNW,344,4.0,5.0,73,0.00,,SKC,0.00,VWS V13.01,2013-03-04 09:01:00,
2013-03-04 04:02:00,32.0,24.3,29.54,NNW,344,6.0,10.0,73,0.00,,SKC,0.00,VWS V13.01,2013-03-04 09:02:00,
2013-03-04 04:03:00,32.0,24.3,29.54,North,5,3.0,6.0,73,0.00,,SKC,0.00,VWS V13.01,2013-03-04 09:03:00,
2013-03-04 04:04:00,32.0,24.3,29.54,NNW,327,1.0,6.0,73,0.00,,SKC,0.00,VWS V13.01,2013-03-04 09:04:00,
2013-03-04 04:05:00,32.0,24.3,29.54,NNW,327,0.0,6.0,73,0.00,,SKC,0.00,VWS V13.01,2013-03-04 09:05:00,
2013-03-04 04:06:00,32.0,24.7,29.54,NNW,327,3.0,6.0,74,0.00,,SKC,0.00,VWS V13.01,2013-03-04 09:06:00,
2013-03-04 04:07:00,32.0,24.7,29.54,WNW,298,7.0,7.0,74,0.00,,SKC,0.00,VWS V13.01,2013-03-04 09:07:00,
2013-03-04 04:08:00,32.0,24.7,29.54,NW,317,3.0,9.0,74,0.00,,SKC,0.00,VWS V13.01,2013-03-04 09:08:00,
2013-03-04 04:09:00,32.0,24.7,29.54,NNW,345,2.0,9.0,74,0.00,,SKC,0.00,VWS V13.01,2013-03-04 09:09:00,
2013-03-04 04:10:00,32.0,24.7,29.54,NNW,344,7.0,9.0,74,0.00,,SKC,0.00,VWS V13.01,2013-03-04 09:10:00,
2013-03-04 04:11:00,32.0,24.3,29.54,NNW,347,3.0,5.0,73,0.00,,SKC,0.00,VWS V13.01,2013-03-04 09:11:00,
2013-03-04 04:12:00,32.0,24.3,29.54,NW,325,6.0,9.0,73,0.00,,SKC,0.00,VWS V13.01,2013-03-04 09:12:00,
2013-03-04 04:13:00,32.0,24.3,29.54,NW,324,6.0,9.0,73,0.00,,SKC,0.00,VWS V13.01,2013-03-04 09:13:00,
2013-03-04 04:14:00,32.0,24.3,29.54,NNW,348,2.0,10.0,73,0.00,,SKC,0.00,VWS V13.01,2013-03-04 09:14:00,
2013-03-04 04:15:00,32.0,24.3,29.54,NW,319,3.0,10.0,73,0.00,,SKC,0.00,VWS V13.01,2013-03-04 09:15:00,
2013-03-04 04:16:00,32.0,24.7,29.54,NNW,327,3.0,6.0,74,0.00,,SKC,0.00,VWS V13.01,2013-03-04 09:16:00,
2013-03-04 04:17:00,32.0,24.3,29.53,North,351,1.0,10.0,73,0.00,,SKC,0.00,VWS V13.01,2013-03-04 09:17:00,
2013-03-04 04:18:00,32.0,24.7,29.54,NNE,32,1.0,10.0,74,0.00,,SKC,0.00,VWS V13.01,2013-03-04 09:18:00,
2013-03-04 04:19:00,32.0,24.7,29.54,ENE,57,4.0,10.0,74,0.00,,SKC,0.00,VWS V13.01,2013-03-04 09:19:00,
2013-03-04 04:20:00,32.0,24.7,29.54,NNW,344,3.0,10.0,74,0.00,,SKC,0.00,VWS V13.01,2013-03-04 09:20:00,
2013-03-04 04:21:00,32.0,24.3,29.54,North,360,4.0,9.0,73,0.00,,SKC,0.00,VWS V13.01,2013-03-04 09:21:00,
2013-03-04 04:22:00,32.0,24.7,29.54,North,360,2.0,10.0,74,0.00,,SKC,0.00,VWS V13.01,2013-03-04 09:22:00,
2013-03-04 04:23:00,32.0,24.7,29.54,NW,321,2.0,10.0,74,0.00,,SKC,0.00,VWS V13.01,2013-03-04 09:23:00,
2013-03-04 04:24:00,32.0,24.7,29.54,NNW,329,2.0,10.0,74,0.00,,SKC,0.00,VWS V13.01,2013-03-04 09:24:00,
2013-03-04 04:25:00,32.0,24.7,29.54,NNW,335,2.0,10.0,74,0.00,,SKC,0.00,VWS V13.01,2013-03-04 09:25:00,
2013-03-04 04:26:00,32.0,24.3,29.54,NNW,331,4.0,10.0,73,0.00,,SKC,0.00,VWS V13.01,2013-03-04 09:26:00,
2013-03-04 04:27:00,32.0,24.7,29.53,NW,319,2.0,10.0,74,0.00,,SKC,0.00,VWS V13.01,2013-03-04 09:27:00,
2013-03-04 04:28:00,31.9,24.6,29.54,WNW,296,3.0,10.0,74,0.00,,SKC,0.00,VWS V13.01,2013-03-04 09:28:00,
2013-03-04 04:29:00,31.9,24.6,29.54,North,355,3.0,10.0,74,0.00,,SKC,0.00,VWS V13.01,2013-03-04 09:29:00,
2013-03-04 04:30:00,31.9,24.6,29.54,North,350,1.0,10.0,74,0.00,,SKC,0.00,VWS V13.01,2013-03-04 09:30:00,
2013-03-04 04:31:00,32.0,24.7,29.53,North,349,3.0,10.0,74,0.00,,SKC,0.00,VWS V13.01,2013-03-04 09:31:00,
2013-03-04 04:32:00,31.9,24.6,29.54,NNW,346,2.0,4.0,74,0.00,,SKC,0.00,VWS V13.01,2013-03-04 09:32:00,
2013-03-04 04:33:00,31.9,24.6,29.54,North,349,5.0,5.0,74,0.00,,SKC,0.00,VWS V13.01,2013-03-04 09:33:00,
2013-03-04 04:34:00,31.9,24.6,29.54,NW,321,6.0,9.0,74,0.00,,SKC,0.00,VWS V13.01,2013-03-04 09:34:00,
2013-03-04 04:35:00,31.9,24.6,29.54,NNW,336,5.0,9.0,74,0.00,,SKC,0.00,VWS V13.01,2013-03-04 09:35:00,
2013-03-04 04:36:00,31.9,24.6,29.54,NNW,330,8.0,9.0,74,0.00,,SKC,0.00,VWS V13.01,2013-03-04 09:36:00,
2013-03-04 04:37:00,31.9,24.6,29.53,NW,319,2.0,10.0,74,0.00,,SKC,0.00,VWS V13.01,2013-03-04 09:37:00,
2013-03-04 04:38:00,31.9,24.6,29.54,NNW,336,2.0,10.0,74,0.00,,SKC,0.00,VWS V13.01,2013-03-04 09:38:00,
2013-03-04 04:39:00,31.9,24.6,29.54,NNW,336,0.0,10.0,74,0.00,,SKC,0.00,VWS V13.01,2013-03-04 09:39:00,
2013-03-04 04:40:00,31.9,24.6,29.54,NNW,336,3.0,10.0,74,0.00,,SKC,0.00,VWS V13.01,2013-03-04 09:40:00,
2013-03-04 04:41:00,31.9,24.6,29.54,NNW,336,3.0,10.0,74,0.00,,SKC,0.00,VWS V13.01,2013-03-04 09:41:00,
2013-03-04 04:42:00,31.9,24.9,29.54,NNW,336,1.0,10.0,75,0.00,,SKC,0.00,VWS V13.01,2013-03-04 09:42:00,
2013-03-04 04:43:00,31.9,24.6,29.54,NW,325,2.0,10.0,74,0.00,,SKC,0.00,VWS V13.01,2013-03-04 09:43:00,
2013-03-04 04:44:00,31.9,24.6,29.54,NW,324,8.0,9.0,74,0.00,,SKC,0.00,VWS V13.01,2013-03-04 09:44:00,
2013-03-04 04:45:00,31.9,24.6,29.54,North,351,4.0,11.0,74,0.00,,SKC,0.00,VWS V13.01,2013-03-04 09:45:00,
2013-03-04 04:46:00,31.9,24.6,29.54,NNE,15,5.0,11.0,74,0.00,,SKC,0.00,VWS V13.01,2013-03-04 09:46:00,
2013-03-04 04:47:00,31.9,24.6,29.54,NNW,342,3.0,11.0,74,0.00,,SKC,0.00,VWS V13.01,2013-03-04 09:47:00,
2013-03-04 04:48:00,31.9,24.6,29.54,NNW,345,3.0,11.0,74,0.00,,SKC,0.00,VWS V13.01,2013-03-04 09:48:00,
2013-03-04 04:49:00,31.9,24.6,29.54,North,5,4.0,11.0,74,0.00,,SKC,0.00,VWS V13.01,2013-03-04 09:49:00,
2013-03-04 04:50:00,31.9,24.6,29.54,North,351,2.0,11.0,74,0.00,,SKC,0.00,VWS V13.01,2013-03-04 09:50:00,
2013-03-04 04:51:00,31.9,24.6,29.54,NNW,336,1.0,10.0,74,0.00,,SKC,0.00,VWS V13.01,2013-03-04 09:51:00,
2013-03-04 04:52:00,31.9,24.6,29.54,ENE,71,7.0,11.0,74,0.00,,SKC,0.00,VWS V13.01,2013-03-04 09:52:00,
2013-03-04 04:53:00,31.9,24.6,29.54,North,350,5.0,11.0,74,0.00,,SKC,0.00,VWS V13.01,2013-03-04 09:53:00,
2013-03-04 04:54:00,31.9,24.6,29.54,North,5,4.0,11.0,74,0.00,,SKC,0.00,VWS V13.01,2013-03-04 09:54:00,
2013-03-04 04:55:00,31.9,24.6,29.54,NNW,334,2.0,11.0,74,0.00,,SKC,0.00,VWS V13.01,2013-03-04 09:55:00,
2013-03-04 04:56:00,31.9,24.6,29.54,NNW,343,2.0,11.0,74,0.00,,SKC,0.00,VWS V13.01,2013-03-04 09:56:00,
2013-03-04 04:57:00,31.9,24.6,29.54,ENE,58,0.0,11.0,74,0.00,,SKC,0.00,VWS V13.01,2013-03-04 09:57:00,
2013-03-04 04:58:00,31.9,24.6,29.54,NW,321,4.0,11.0,74,0.00,,SKC,0.00,VWS V13.01,2013-03-04 09:58:00,
2013-03-04 04:59:00,31.9,24.6,29.54,NW,325,0.0,11.0,74,0.00,,SKC,0.00,VWS V13.01,2013-03-04 09:59:00,
2013-03-04 05:00:00,31.9,24.6,29.54,NW,326,3.0,11.0,74,0.00,,SKC,0.00,VWS V13.01,2013-03-04 10:00:00,
2013-03-04 05:01:00,31.9,24.6,29.54,North,355,0.0,11.0,74,0.00,,SKC,0.00,VWS V13.01,2013-03-04 10:01:00,
2013-03-04 05:02:00,31.9,24.6,29.54,NW,315,1.0,10.0,74,0.00,,SKC,0.00,VWS V13.01,2013-03-04 10:02:00,
2013-03-04 05:03:00,31.9,24.6,29.54,North,360,3.0,10.0,74,0.00,,SKC,0.00,VWS V13.01,2013-03-04 10:03:00,
2013-03-04 05:04:00,31.9,24.2,29.54,North,360,7.0,10.0,73,0.00,,SKC,0.00,VWS V13.01,2013-03-04 10:04:00,
2013-03-04 05:05:00,31.9,24.2,29.54,North,360,1.0,10.0,73,0.00,,SKC,0.00,VWS V13.01,2013-03-04 10:05:00,
2013-03-04 05:06:00,32.0,24.3,29.54,North,350,3.0,10.0,73,0.00,,SKC,0.00,VWS V13.01,2013-03-04 10:06:00,
2013-03-04 05:07:00,32.0,24.7,29.54,WNW,300,5.0,10.0,74,0.00,,SKC,0.00,VWS V13.01,2013-03-04 10:07:00,
2013-03-04 05:08:00,32.0,24.7,29.54,North,355,1.0,10.0,74,0.00,,SKC,0.00,VWS V13.01,2013-03-04 10:08:00,
2013-03-04 05:09:00,32.0,24.7,29.54,North,350,2.0,10.0,74,0.00,,SKC,0.00,VWS V13.01,2013-03-04 10:09:00,
2013-03-04 05:10:00,31.9,24.6,29.54,NW,304,4.0,10.0,74,0.00,,SKC,0.00,VWS V13.01,2013-03-04 10:10:00,
2013-03-04 05:11:00,31.9,24.2,29.54,North,360,6.0,10.0,73,0.00,,SKC,0.00,VWS V13.01,2013-03-04 10:11:00,
2013-03-04 05:12:00,31.9,24.6,29.54,NW,315,2.0,10.0,74,0.00,,SKC,0.00,VWS V13.01,2013-03-04 10:12:00,
2013-03-04 05:13:00,32.0,24.3,29.54,North,355,3.0,10.0,73,0.00,,SKC,0.00,VWS V13.01,2013-03-04 10:13:00,
2013-03-04 05:14:00,31.9,24.2,29.54,NNW,333,2.0,10.0,73,0.00,,SKC,0.00,VWS V13.01,2013-03-04 10:14:00,
2013-03-04 05:15:00,31.9,24.6,29.54,NW,311,6.0,10.0,74,0.00,,SKC,0.00,VWS V13.01,2013-03-04 10:15:00,
2013-03-04 05:16:00,31.9,24.2,29.54,NW,322,0.0,10.0,73,0.00,,SKC,0.00,VWS V13.01,2013-03-04 10:16:00,
2013-03-04 05:17:00,31.9,24.2,29.54,NNE,23,6.0,10.0,73,0.00,,SKC,0.00,VWS V13.01,2013-03-04 10:17:00,
2013-03-04 05:18:00,31.9,24.2,29.54,North,355,2.0,10.0,73,0.00,,SKC,0.00,VWS V13.01,2013-03-04 10:18:00,
2013-03-04 05:19:00,32.0,24.7,29.54,North,351,0.0,10.0,74,0.00,,SKC,0.00,VWS V13.01,2013-03-04 10:19:00,
2013-03-04 05:20:00,31.9,24.2,29.54,North,5,3.0,10.0,73,0.00,,SKC,0.00,VWS V13.01,2013-03-04 10:20:00,
2013-03-04 05:21:00,31.9,24.6,29.54,North,5,7.0,10.0,74,0.00,,SKC,0.00,VWS V13.01,2013-03-04 10:21:00,
2013-03-04 05:22:00,31.9,24.2,29.54,NNW,346,3.0,10.0,73,0.00,,SKC,0.00,VWS V13.01,2013-03-04 10:22:00,
2013-03-04 05:23:00,31.9,24.2,29.54,North,355,6.0,10.0,73,0.00,,SKC,0.00,VWS V13.01,2013-03-04 10:23:00,
2013-03-04 05:24:00,31.9,24.2,29.54,NNW,337,2.0,10.0,73,0.00,,SKC,0.00,VWS V13.01,2013-03-04 10:24:00,
2013-03-04 05:25:00,31.9,24.2,29.54,NE,36,2.0,10.0,73,0.00,,SKC,0.00,VWS V13.01,2013-03-04 10:25:00,
2013-03-04 05:26:00,31.9,24.2,29.54,NE,36,3.0,10.0,73,0.00,,SKC,0.00,VWS V13.01,2013-03-04 10:26:00,
2013-03-04 05:27:00,31.9,24.6,29.54,NE,36,2.0,10.0,74,0.00,,SKC,0.00,VWS V13.01,2013-03-04 10:27:00,
2013-03-04 05:28:00,31.9,24.6,29.54,North,360,6.0,10.0,74,0.00,,SKC,0.00,VWS V13.01,2013-03-04 10:28:00,
2013-03-04 05:29:00,31.9,24.6,29.54,NNE,33,0.0,10.0,74,0.00,,SKC,0.00,VWS V13.01,2013-03-04 10:29:00,
2013-03-04 05:30:00,31.9,24.2,29.54,NNE,33,1.0,10.0,73,0.00,,SKC,0.00,VWS V13.01,2013-03-04 10:30:00,
2013-03-04 05:31:00,31.9,24.6,29.54,NNE,30,0.0,1.0,74,0.00,,SKC,0.00,VWS V13.01,2013-03-04 10:31:00,
2013-03-04 05:32:00,31.9,24.6,29.54,NW,307,3.0,5.0,74,0.00,,SKC,0.00,VWS V13.01,2013-03-04 10:32:00,
2013-03-04 05:33:00,31.9,24.2,29.54,NNE,15,4.0,10.0,73,0.00,,SKC,0.00,VWS V13.01,2013-03-04 10:33:00,
2013-03-04 05:34:00,31.9,24.2,29.54,North,355,3.0,5.0,73,0.00,,SKC,0.00,VWS V13.01,2013-03-04 10:34:00,
2013-03-04 05:35:00,31.9,24.2,29.54,NNE,15,1.0,5.0,73,0.00,,SKC,0.00,VWS V13.01,2013-03-04 10:35:00,
2013-03-04 05:36:00,31.9,24.2,29.54,NW,315,2.0,5.0,73,0.00,,SKC,0.00,VWS V13.01,2013-03-04 10:36:00,
2013-03-04 05:37:00,31.9,24.2,29.54,NNW,329,0.0,5.0,73,0.00,,SKC,0.00,VWS V13.01,2013-03-04 10:37:00,
2013-03-04 05:38:00,31.9,24.2,29.54,North,355,1.0,5.0,73,0.00,,SKC,0.00,VWS V13.01,2013-03-04 10:38:00,
2013-03-04 05:39:00,31.9,24.2,29.54,North,355,0.0,5.0,73,0.00,,SKC,0.00,VWS V13.01,2013-03-04 10:39:00,
2013-03-04 05:40:00,31.9,24.6,29.54,North,355,3.0,5.0,74,0.00,,SKC,0.00,VWS V13.01,2013-03-04 10:40:00,
2013-03-04 05:41:00,31.8,24.5,29.54,NE,36,1.0,5.0,74,0.00,,SKC,0.00,VWS V13.01,2013-03-04 10:41:00,
2013-03-04 05:42:00,31.9,24.2,29.54,NNE,26,3.0,5.0,73,0.00,,SKC,0.00,VWS V13.01,2013-03-04 10:42:00,
2013-03-04 05:43:00,31.8,24.5,29.54,North,350,6.0,6.0,74,0.00,,SKC,0.00,VWS V13.01,2013-03-04 10:43:00,
2013-03-04 05:44:00,31.8,24.1,29.54,NW,326,3.0,7.0,73,0.00,,SKC,0.00,VWS V13.01,2013-03-04 10:44:00,
2013-03-04 05:45:00,31.9,24.2,29.54,NNW,336,5.0,7.0,73,0.00,,SKC,0.00,VWS V13.01,2013-03-04 10:45:00,
2013-03-04 05:46:00,31.8,24.1,29.54,NW,321,4.0,7.0,73,0.00,,SKC,0.00,VWS V13.01,2013-03-04 10:46:00,
2013-03-04 05:47:00,31.9,24.2,29.54,NW,319,1.0,7.0,73,0.00,,SKC,0.00,VWS V13.01,2013-03-04 10:47:00,
2013-03-04 05:48:00,31.9,24.2,29.54,NNW,340,3.0,7.0,73,0.00,,SKC,0.00,VWS V13.01,2013-03-04 10:48:00,
2013-03-04 05:49:00,31.8,24.1,29.54,NNW,340,0.0,7.0,73,0.00,,SKC,0.00,VWS V13.01,2013-03-04 10:49:00,
2013-03-04 05:50:00,31.8,24.1,29.54,NNW,342,4.0,7.0,73,0.00,,SKC,0.00,VWS V13.01,2013-03-04 10:50:00,
2013-03-04 05:51:00,31.8,24.1,29.54,North,360,7.0,13.0,73,0.00,,SKC,0.00,VWS V13.01,2013-03-04 10:51:00,
2013-03-04 05:52:00,31.8,24.1,29.54,NNE,32,2.0,5.0,73,0.00,,SKC,0.00,VWS V13.01,2013-03-04 10:52:00,
2013-03-04 05:53:00,31.8,24.1,29.54,WNW,296,4.0,13.0,73,0.00,,SKC,0.00,VWS V13.01,2013-03-04 10:53:00,
2013-03-04 05:54:00,31.8,24.1,29.54,North,355,3.0,13.0,73,0.00,,SKC,0.00,VWS V13.01,2013-03-04 10:54:00,
2013-03-04 05:55:00,31.8,24.1,29.54,NW,321,5.0,13.0,73,0.00,,SKC,0.00,VWS V13.01,2013-03-04 10:55:00,
2013-03-04 05:56:00,31.8,24.1,29.54,NW,320,2.0,13.0,73,0.00,,SKC,0.00,VWS V13.01,2013-03-04 10:56:00,
2013-03-04 05:57:00,31.8,24.1,29.54,NW,319,2.0,13.0,73,0.00,,SKC,0.00,VWS V13.01,2013-03-04 10:57:00,
2013-03-04 05:58:00,31.8,24.1,29.54,NNW,338,4.0,13.0,73,0.00,,SKC,0.00,VWS V13.01,2013-03-04 10:58:00,
2013-03-04 05:59:00,31.8,24.1,29.54,NNW,340,0.0,7.0,73,0.00,,SKC,0.00,VWS V13.01,2013-03-04 10:59:00,
2013-03-04 06:00:00,31.7,24.0,29.54,NNW,347,9.0,13.0,73,0.00,,SKC,0.00,VWS V13.01,2013-03-04 11:00:00,
2013-03-04 06:01:00,31.7,24.0,29.54,North,349,7.0,9.0,73,0.00,,SKC,0.00,VWS V13.01,2013-03-04 11:01:00,
2013-03-04 06:02:00,31.7,24.0,29.54,NW,309,7.0,9.0,73,0.00,,SKC,0.00,VWS V13.01,2013-03-04 11:02:00,
2013-03-04 06:03:00,31.7,24.0,29.54,North,355,2.0,9.0,73,0.00,,SKC,0.00,VWS V13.01,2013-03-04 11:03:00,
2013-03-04 06:04:00,31.8,24.1,29.54,NNW,346,2.0,13.0,73,0.00,,SKC,0.00,VWS V13.01,2013-03-04 11:04:00,
2013-03-04 06:05:00,31.7,24.0,29.54,NE,40,4.0,9.0,73,0.00,,SKC,0.00,VWS V13.01,2013-03-04 11:05:00,
2013-03-04 06:06:00,31.7,24.0,29.54,NNE,29,3.0,9.0,73,0.00,,SKC,0.00,VWS V13.01,2013-03-04 11:06:00,
2013-03-04 06:07:00,31.7,24.0,29.54,North,355,4.0,9.0,73,0.00,,SKC,0.00,VWS V13.01,2013-03-04 11:07:00,
2013-03-04 06:08:00,31.7,24.0,29.54,NNW,333,3.0,9.0,73,0.00,,SKC,0.00,VWS V13.01,2013-03-04 11:08:00,
2013-03-04 06:09:00,31.7,24.0,29.54,NW,325,4.0,9.0,73,0.00,,SKC,0.00,VWS V13.01,2013-03-04 11:09:00,
2013-03-04 06:10:00,31.7,24.0,29.54,NW,317,3.0,9.0,73,0.00,,SKC,0.00,VWS V13.01,2013-03-04 11:10:00,
2013-03-04 06:11:00,31.7,24.0,29.54,NNW,346,5.0,9.0,73,0.00,,SKC,0.00,VWS V13.01,2013-03-04 11:11:00,
2013-03-04 06:12:00,31.7,24.0,29.54,NNE,24,3.0,9.0,73,0.00,,SKC,0.00,VWS V13.01,2013-03-04 11:12:00,
2013-03-04 06:13:00,31.7,24.0,29.55,North,355,3.0,9.0,73,0.00,,SKC,0.00,VWS V13.01,2013-03-04 11:13:00,
2013-03-04 06:14:00,31.7,24.0,29.54,NW,313,2.0,9.0,73,0.00,,SKC,0.00,VWS V13.01,2013-03-04 11:14:00,
2013-03-04 06:15:00,31.7,24.0,29.54,NW,310,0.0,9.0,73,0.00,,SKC,0.00,VWS V13.01,2013-03-04 11:15:00,
2013-03-04 06:16:00,31.7,24.0,29.54,NW,310,0.0,9.0,73,0.00,,SKC,0.00,VWS V13.01,2013-03-04 11:16:00,
2013-03-04 06:17:00,31.7,24.0,29.54,NW,310,3.0,9.0,73,0.00,,SKC,0.00,VWS V13.01,2013-03-04 11:17:00,
2013-03-04 06:18:00,31.7,24.0,29.55,NNW,342,2.0,9.0,73,0.00,,SKC,0.00,VWS V13.01,2013-03-04 11:18:00,
2013-03-04 06:19:00,31.7,24.0,29.54,NNW,348,1.0,9.0,73,0.00,,SKC,0.00,VWS V13.01,2013-03-04 11:19:00,
2013-03-04 06:20:00,31.7,24.0,29.54,NW,321,5.0,9.0,73,0.00,,SKC,0.00,VWS V13.01,2013-03-04 11:20:00,
2013-03-04 06:21:00,31.7,24.0,29.55,NNW,341,5.0,9.0,73,0.00,,SKC,0.00,VWS V13.01,2013-03-04 11:21:00,
2013-03-04 06:22:00,31.7,24.0,29.55,NNW,333,3.0,9.0,73,0.00,,SKC,0.00,VWS V13.01,2013-03-04 11:22:00,
2013-03-04 06:23:00,31.7,24.0,29.54,NNW,333,2.0,9.0,73,0.00,,SKC,0.00,VWS V13.01,2013-03-04 11:23:00,
2013-03-04 06:24:00,31.7,24.0,29.54,NNW,333,1.0,9.0,73,0.00,,SKC,0.00,VWS V13.01,2013-03-04 11:24:00,
2013-03-04 06:25:00,31.7,24.0,29.54,NNW,333,1.0,9.0,73,0.00,,SKC,0.00,VWS V13.01,2013-03-04 11:25:00,
2013-03-04 06:26:00,31.7,24.0,29.54,NW,310,0.0,9.0,73,0.00,,SKC,0.00,VWS V13.01,2013-03-04 11:26:00,
2013-03-04 06:27:00,31.7,24.0,29.54,West,259,3.0,9.0,73,0.00,,SKC,0.00,VWS V13.01,2013-03-04 11:27:00,
2013-03-04 06:28:00,31.7,24.0,29.54,West,261,0.0,9.0,73,0.00,,SKC,0.00,VWS V13.01,2013-03-04 11:28:00,
2013-03-04 06:29:00,31.7,24.0,29.54,West,262,3.0,9.0,73,0.00,,SKC,0.00,VWS V13.01,2013-03-04 11:29:00,
2013-03-04 06:30:00,31.6,24.0,29.54,NNW,338,4.0,9.0,73,0.00,,SKC,0.00,VWS V13.01,2013-03-04 11:30:00,
2013-03-04 06:31:00,31.7,24.0,29.55,North,355,4.0,9.0,73,0.00,,SKC,0.00,VWS V13.01,2013-03-04 11:31:00,
2013-03-04 06:32:00,31.6,24.0,29.54,NW,306,5.0,7.0,73,0.00,,SKC,0.00,VWS V13.01,2013-03-04 11:32:00,
2013-03-04 06:33:00,31.6,24.0,29.55,NNE,18,5.0,7.0,73,0.00,,SKC,0.00,VWS V13.01,2013-03-04 11:33:00,
2013-03-04 06:34:00,31.6,24.0,29.55,North,355,2.0,7.0,73,0.00,,SKC,0.00,VWS V13.01,2013-03-04 11:34:00,
2013-03-04 06:35:00,31.6,24.0,29.55,North,355,0.0,7.0,73,0.00,,SKC,0.00,VWS V13.01,2013-03-04 11:35:00,
2013-03-04 06:36:00,31.7,24.0,29.54,WSW,254,2.0,9.0,73,0.00,,SKC,0.00,VWS V13.01,2013-03-04 11:36:00,
2013-03-04 06:37:00,31.6,24.0,29.55,NNW,342,4.0,7.0,73,0.00,,SKC,0.00,VWS V13.01,2013-03-04 11:37:00,
2013-03-04 06:38:00,31.6,24.0,29.54,NNW,342,2.0,7.0,73,0.00,,SKC,0.00,VWS V13.01,2013-03-04 11:38:00,
2013-03-04 06:39:00,31.6,24.0,29.55,North,350,1.0,7.0,73,0.00,,SKC,0.00,VWS V13.01,2013-03-04 11:39:00,
2013-03-04 06:40:00,31.6,24.0,29.55,NW,306,4.0,7.0,73,0.00,,SKC,0.00,VWS V13.01,2013-03-04 11:40:00,
2013-03-04 06:41:00,31.6,24.0,29.55,NE,36,6.0,9.0,73,0.00,,SKC,0.00,VWS V13.01,2013-03-04 11:41:00,
2013-03-04 06:42:00,31.6,24.0,29.55,NNW,338,4.0,9.0,73,0.00,,SKC,0.00,VWS V13.01,2013-03-04 11:42:00,
2013-03-04 06:43:00,31.6,24.0,29.55,NW,308,1.0,9.0,73,0.00,,SKC,0.00,VWS V13.01,2013-03-04 11:43:00,
2013-03-04 06:44:00,31.6,24.0,29.55,North,355,3.0,7.0,73,0.00,,SKC,0.00,VWS V13.01,2013-03-04 11:44:00,
2013-03-04 06:45:00,31.5,23.9,29.55,NNE,22,4.0,11.0,73,0.00,,SKC,0.00,VWS V13.01,2013-03-04 11:45:00,
2013-03-04 06:46:00,31.6,24.0,29.55,NNE,20,2.0,11.0,73,0.00,,SKC,0.00,VWS V13.01,2013-03-04 11:46:00,
2013-03-04 06:47:00,31.5,23.9,29.55,NNE,28,5.0,11.0,73,0.00,,SKC,0.00,VWS V13.01,2013-03-04 11:47:00,
2013-03-04 06:48:00,31.6,24.0,29.55,North,349,5.0,11.0,73,0.00,,SKC,0.00,VWS V13.01,2013-03-04 11:48:00,
2013-03-04 06:49:00,31.6,24.0,29.55,North,350,1.0,7.0,73,0.00,,SKC,0.00,VWS V13.01,2013-03-04 11:49:00,
2013-03-04 06:50:00,31.5,23.9,29.55,WNW,295,1.0,11.0,73,0.00,,SKC,0.00,VWS V13.01,2013-03-04 11:50:00,
2013-03-04 06:51:00,31.5,23.9,29.55,WNW,296,1.0,11.0,73,0.00,,SKC,0.00,VWS V13.01,2013-03-04 11:51:00,
2013-03-04 06:52:00,31.5,23.9,29.55,WNW,296,2.0,11.0,73,0.00,,SKC,0.00,VWS V13.01,2013-03-04 11:52:00,
2013-03-04 06:53:00,31.5,23.9,29.55,NNW,337,3.0,11.0,73,0.00,,SKC,0.00,VWS V13.01,2013-03-04 11:53:00,
2013-03-04 06:54:00,31.5,23.9,29.55,NW,324,4.0,11.0,73,0.00,,SKC,0.00,VWS V13.01,2013-03-04 11:54:00,
2013-03-04 06:55:00,31.5,23.9,29.55,NNW,343,2.0,11.0,73,0.00,,SKC,0.00,VWS V13.01,2013-03-04 11:55:00,
2013-03-04 06:56:00,31.5,23.9,29.55,NNE,29,3.0,11.0,73,0.00,,SKC,0.00,VWS V13.01,2013-03-04 11:56:00,
2013-03-04 06:57:00,31.6,24.0,29.55,NNE,25,5.0,11.0,73,0.00,,SKC,0.00,VWS V13.01,2013-03-04 11:57:00,
2013-03-04 06:58:00,31.5,24.2,29.55,North,355,10.0,11.0,74,0.00,,SKC,0.00,VWS V13.01,2013-03-04 11:58:00,
2013-03-04 06:59:00,31.5,23.9,29.55,WNW,290,8.0,11.0,73,0.00,,SKC,0.00,VWS V13.01,2013-03-04 11:59:00,
2013-03-04 07:00:00,31.5,23.9,29.55,NW,326,4.0,11.0,73,0.00,,SKC,0.00,VWS V13.01,2013-03-04 12:00:00,
2013-03-04 07:01:00,31.5,23.9,29.55,NNW,341,5.0,5.0,73,0.00,,SKC,0.00,VWS V13.01,2013-03-04 12:01:00,
2013-03-04 07:02:00,31.5,24.2,29.55,WNW,292,5.0,9.0,74,0.00,,SKC,0.00,VWS V13.01,2013-03-04 12:02:00,
2013-03-04 07:03:00,31.5,24.2,29.55,NNE,23,3.0,9.0,74,0.00,,SKC,0.00,VWS V13.01,2013-03-04 12:03:00,
2013-03-04 07:04:00,31.5,24.2,29.55,NNW,344,2.0,9.0,74,0.00,,SKC,0.00,VWS V13.01,2013-03-04 12:04:00,
2013-03-04 07:05:00,31.5,24.2,29.55,NNW,338,5.0,9.0,74,0.00,,SKC,0.00,VWS V13.01,2013-03-04 12:05:00,
2013-03-04 07:06:00,31.5,23.9,29.55,NNE,29,2.0,11.0,73,0.00,,SKC,0.00,VWS V13.01,2013-03-04 12:06:00,
2013-03-04 07:07:00,31.5,24.2,29.55,NNW,337,3.0,9.0,74,0.00,,SKC,0.00,VWS V13.01,2013-03-04 12:07:00,
2013-03-04 07:08:00,31.5,24.2,29.55,North,5,2.0,9.0,74,0.00,,SKC,0.00,VWS V13.01,2013-03-04 12:08:00,
2013-03-04 07:09:00,31.5,24.2,29.55,NW,315,4.0,9.0,74,0.00,,SKC,0.00,VWS V13.01,2013-03-04 12:09:00,
2013-03-04 07:10:00,31.5,24.2,29.55,NW,313,2.0,9.0,74,0.00,,SKC,0.00,VWS V13.01,2013-03-04 12:10:00,
2013-03-04 07:11:00,31.5,23.9,29.55,NNW,337,1.0,4.0,73,0.00,,SKC,0.00,VWS V13.01,2013-03-04 12:11:00,
2013-03-04 07:12:00,31.5,24.2,29.55,ENE,60,2.0,9.0,74,0.00,,SKC,0.00,VWS V13.01,2013-03-04 12:12:00,
2013-03-04 07:13:00,31.5,24.2,29.55,North,355,7.0,9.0,74,0.00,,SKC,0.00,VWS V13.01,2013-03-04 12:13:00,
2013-03-04 07:14:00,31.5,24.2,29.55,NW,315,4.0,9.0,74,0.00,,SKC,0.00,VWS V13.01,2013-03-04 12:14:00,
2013-03-04 07:15:00,31.5,24.2,29.55,NW,317,3.0,9.0,74,0.00,,SKC,0.00,VWS V13.01,2013-03-04 12:15:00,
2013-03-04 07:16:00,31.6,24.3,29.55,North,360,2.0,9.0,74,0.00,,SKC,0.00,VWS V13.01,2013-03-04 12:16:00,
2013-03-04 07:17:00,31.6,24.3,29.55,NNW,342,1.0,9.0,74,0.00,,SKC,0.00,VWS V13.01,2013-03-04 12:17:00,
2013-03-04 07:18:00,31.6,24.3,29.55,NNW,342,2.0,9.0,74,0.00,,SKC,0.00,VWS V13.01,2013-03-04 12:18:00,
2013-03-04 07:19:00,31.6,24.3,29.55,NNW,342,3.0,9.0,74,0.00,,SKC,0.00,VWS V13.01,2013-03-04 12:19:00,
2013-03-04 07:20:00,31.6,24.3,29.55,NNW,342,3.0,9.0,74,0.00,,SKC,0.00,VWS V13.01,2013-03-04 12:20:00,
2013-03-04 07:21:00,31.6,24.3,29.55,NNW,330,3.0,9.0,74,0.00,,SKC,0.00,VWS V13.01,2013-03-04 12:21:00,
2013-03-04 07:22:00,31.5,24.2,29.55,North,355,2.0,9.0,74,0.00,,SKC,0.00,VWS V13.01,2013-03-04 12:22:00,
2013-03-04 07:23:00,31.7,24.4,29.55,North,360,5.0,9.0,74,0.00,,SKC,0.00,VWS V13.01,2013-03-04 12:23:00,
2013-03-04 07:24:00,31.7,24.4,29.55,North,355,2.0,9.0,74,0.00,,SKC,0.00,VWS V13.01,2013-03-04 12:24:00,
2013-03-04 07:25:00,31.7,24.4,29.55,North,355,0.0,9.0,74,0.00,,SKC,0.00,VWS V13.01,2013-03-04 12:25:00,
2013-03-04 07:26:00,31.7,24.4,29.55,North,355,0.0,9.0,74,0.00,,SKC,0.00,VWS V13.01,2013-03-04 12:26:00,
2013-03-04 07:27:00,31.8,24.5,29.55,West,270,3.0,9.0,74,0.00,,SKC,0.00,VWS V13.01,2013-03-04 12:27:00,
2013-03-04 07:28:00,31.8,24.1,29.55,NW,317,9.0,11.0,73,0.00,,SKC,0.00,VWS V13.01,2013-03-04 12:28:00,
2013-03-04 07:29:00,31.9,24.2,29.55,NNW,342,7.0,11.0,73,0.00,,SKC,0.00,VWS V13.01,2013-03-04 12:29:00,
2013-03-04 07:30:00,31.9,24.2,29.55,NNW,338,4.0,11.0,73,0.00,,SKC,0.00,VWS V13.01,2013-03-04 12:30:00,
2013-03-04 07:31:00,31.6,24.3,29.55,NNW,334,3.0,9.0,74,0.00,,SKC,0.00,VWS V13.01,2013-03-04 12:31:00,
2013-03-04 07:32:00,31.9,24.2,29.55,NW,326,10.0,13.0,73,0.00,,SKC,0.00,VWS V13.01,2013-03-04 12:32:00,
2013-03-04 07:33:00,31.9,24.2,29.55,NNW,338,4.0,13.0,73,0.00,,SKC,0.00,VWS V13.01,2013-03-04 12:33:00,
2013-03-04 07:34:00,31.9,24.2,29.55,North,5,6.0,13.0,73,0.00,,SKC,0.00,VWS V13.01,2013-03-04 12:34:00,
2013-03-04 07:35:00,31.9,24.2,29.55,WNW,282,4.0,13.0,73,0.00,,SKC,0.00,VWS V13.01,2013-03-04 12:35:00,
2013-03-04 07:36:00,31.9,24.2,29.55,NNW,339,2.0,13.0,73,0.00,,SKC,0.00,VWS V13.01,2013-03-04 12:36:00,
2013-03-04 07:37:00,31.8,24.5,29.55,NW,311,2.0,9.0,74,0.00,,SKC,0.00,VWS V13.01,2013-03-04 12:37:00,
2013-03-04 07:38:00,32.0,24.3,29.55,North,355,2.0,13.0,73,0.00,,SKC,0.00,VWS V13.01,2013-03-04 12:38:00,
2013-03-04 07:39:00,32.0,24.3,29.55,NNW,342,3.0,13.0,73,0.00,,SKC,0.00,VWS V13.01,2013-03-04 12:39:00,
2013-03-04 07:40:00,32.0,24.3,29.55,NW,323,1.0,13.0,73,0.00,,SKC,0.00,VWS V13.01,2013-03-04 12:40:00,
2013-03-04 07:41:00,32.0,24.3,29.55,North,9,2.0,13.0,73,0.00,,SKC,0.00,VWS V13.01,2013-03-04 12:41:00,
2013-03-04 07:42:00,32.0,24.3,29.55,NE,38,4.0,13.0,73,0.00,,SKC,0.00,VWS V13.01,2013-03-04 12:42:00,
2013-03-04 07:43:00,32.0,24.3,29.55,NNE,12,3.0,13.0,73,0.00,,SKC,0.00,VWS V13.01,2013-03-04 12:43:00,
2013-03-04 07:44:00,32.0,24.3,29.55,NNW,338,0.0,13.0,73,0.00,,SKC,0.00,VWS V13.01,2013-03-04 12:44:00,
2013-03-04 07:45:00,32.1,24.4,29.55,WNW,290,2.0,13.0,73,0.00,,SKC,0.00,VWS V13.01,2013-03-04 12:45:00,
2013-03-04 07:46:00,32.0,24.3,29.55,NW,314,1.0,13.0,73,0.00,,SKC,0.00,VWS V13.01,2013-03-04 12:46:00,
2013-03-04 07:47:00,32.0,24.3,29.55,NW,318,3.0,13.0,73,0.00,,SKC,0.00,VWS V13.01,2013-03-04 12:47:00,
2013-03-04 07:48:00,32.1,24.4,29.55,NW,309,3.0,13.0,73,0.00,,SKC,0.00,VWS V13.01,2013-03-04 12:48:00,
2013-03-04 07:49:00,32.1,24.4,29.55,NW,304,2.0,13.0,73,0.00,,SKC,0.00,VWS V13.01,2013-03-04 12:49:00,
2013-03-04 07:50:00,32.1,24.4,29.55,NE,42,8.0,13.0,73,0.00,,SKC,0.00,VWS V13.01,2013-03-04 12:50:00,
2013-03-04 07:51:00,32.1,24.4,29.55,NNE,24,3.0,13.0,73,0.00,,SKC,0.00,VWS V13.01,2013-03-04 12:51:00,
2013-03-04 07:52:00,32.1,24.4,29.55,North,360,2.0,13.0,73,0.00,,SKC,0.00,VWS V13.01,2013-03-04 12:52:00,
2013-03-04 07:53:00,32.1,24.4,29.55,ENE,59,2.0,13.0,73,0.00,,SKC,0.00,VWS V13.01,2013-03-04 12:53:00,
2013-03-04 07:54:00,32.2,24.5,29.55,NNW,345,3.0,13.0,73,0.00,,SKC,0.00,VWS V13.01,2013-03-04 12:54:00,
2013-03-04 07:55:00,32.0,24.3,29.55,WNW,290,3.0,13.0,73,0.00,,SKC,0.00,VWS V13.01,2013-03-04 12:55:00,
2013-03-04 07:56:00,32.3,24.6,29.55,NNW,336,0.0,13.0,73,0.00,,SKC,0.00,VWS V13.01,2013-03-04 12:56:00,
2013-03-04 07:57:00,32.3,24.6,29.55,WNW,288,3.0,13.0,73,0.00,,SKC,0.00,VWS V13.01,2013-03-04 12:57:00,
2013-03-04 07:58:00,32.4,24.7,29.55,NNE,26,6.0,13.0,73,0.00,,SKC,0.00,VWS V13.01,2013-03-04 12:58:00,
2013-03-04 07:59:00,32.4,24.7,29.55,NNW,338,3.0,13.0,73,0.00,,SKC,0.00,VWS V13.01,2013-03-04 12:59:00,
2013-03-04 08:00:00,32.5,24.8,29.55,NE,36,6.0,13.0,73,0.00,,SKC,0.00,VWS V13.01,2013-03-04 13:00:00,
2013-03-04 08:01:00,32.5,24.8,29.55,SW,225,1.0,6.0,73,0.00,,SKC,0.00,VWS V13.01,2013-03-04 13:01:00,
2013-03-04 08:02:00,32.5,24.5,29.55,North,350,4.0,9.0,72,0.00,,SKC,0.00,VWS V13.01,2013-03-04 13:02:00,
2013-03-04 08:03:00,32.6,24.6,29.55,North,350,4.0,10.0,72,0.00,,SKC,0.00,VWS V13.01,2013-03-04 13:03:00,
2013-03-04 08:04:00,32.6,24.6,29.55,NNE,14,5.0,14.0,72,0.00,,SKC,0.00,VWS V13.01,2013-03-04 13:04:00,
2013-03-04 08:05:00,32.6,24.6,29.55,West,263,1.0,14.0,72,0.00,,SKC,0.00,VWS V13.01,2013-03-04 13:05:00,
2013-03-04 08:06:00,32.6,24.6,29.55,NNW,335,2.0,14.0,72,0.00,,SKC,0.00,VWS V13.01,2013-03-04 13:06:00,
2013-03-04 08:07:00,32.6,24.6,29.55,NW,315,5.0,14.0,72,0.00,,SKC,0.00,VWS V13.01,2013-03-04 13:07:00,
2013-03-04 08:08:00,32.6,24.6,29.55,NNW,334,0.0,16.0,72,0.00,,SKC,0.00,VWS V13.01,2013-03-04 13:08:00,
2013-03-04 08:09:00,32.6,24.6,29.55,NW,319,5.0,16.0,72,0.00,,SKC,0.00,VWS V13.01,2013-03-04 13:09:00,
2013-03-04 08:10:00,32.6,24.6,29.55,NNW,342,16.0,16.0,72,0.00,,SKC,0.00,VWS V13.01,2013-03-04 13:10:00,
2013-03-04 08:11:00,32.5,24.5,29.55,WNW,290,3.0,16.0,72,0.00,,SKC,0.00,VWS V13.01,2013-03-04 13:11:00,
2013-03-04 08:12:00,32.5,24.5,29.55,NW,319,2.0,16.0,72,0.00,,SKC,0.00,VWS V13.01,2013-03-04 13:12:00,
2013-03-04 08:13:00,32.5,24.5,29.55,NW,311,3.0,16.0,72,0.00,,SKC,0.00,VWS V13.01,2013-03-04 13:13:00,
2013-03-04 08:14:00,32.5,24.5,29.55,NNW,329,5.0,16.0,72,0.00,,SKC,0.00,VWS V13.01,2013-03-04 13:14:00,
2013-03-04 08:15:00,32.5,24.8,29.55,NNW,340,11.0,16.0,73,0.00,,SKC,0.00,VWS V13.01,2013-03-04 13:15:00,
2013-03-04 08:16:00,32.4,24.4,29.55,North,11,9.0,16.0,72,0.00,,SKC,0.00,VWS V13.01,2013-03-04 13:16:00,
2013-03-04 08:17:00,32.4,24.7,29.55,West,270,2.0,16.0,73,0.00,,SKC,0.00,VWS V13.01,2013-03-04 13:17:00,
2013-03-04 08:18:00,32.6,24.6,29.55,NNW,335,1.0,16.0,72,0.00,,SKC,0.00,VWS V13.01,2013-03-04 13:18:00,
2013-03-04 08:19:00,32.3,24.6,29.55,NNE,30,7.0,16.0,73,0.00,,SKC,0.00,VWS V13.01,2013-03-04 13:19:00,
2013-03-04 08:20:00,32.3,24.6,29.55,NE,53,3.0,16.0,73,0.00,,SKC,0.00,VWS V13.01,2013-03-04 13:20:00,
2013-03-04 08:21:00,32.2,24.5,29.55,NNW,327,12.0,16.0,73,0.00,,SKC,0.00,VWS V13.01,2013-03-04 13:21:00,
2013-03-04 08:22:00,32.2,24.5,29.55,North,5,10.0,16.0,73,0.00,,SKC,0.00,VWS V13.01,2013-03-04 13:22:00,
2013-03-04 08:23:00,32.1,24.4,29.55,NW,322,5.0,16.0,73,0.00,,SKC,0.00,VWS V13.01,2013-03-04 13:23:00,
2013-03-04 08:24:00,32.1,24.8,29.55,NNW,340,7.0,16.0,74,0.00,,SKC,0.00,VWS V13.01,2013-03-04 13:24:00,
2013-03-04 08:25:00,32.1,24.8,29.55,NNW,342,13.0,16.0,74,0.00,,SKC,0.00,VWS V13.01,2013-03-04 13:25:00,
2013-03-04 08:26:00,32.1,24.8,29.55,NW,323,9.0,16.0,74,0.00,,SKC,0.00,VWS V13.01,2013-03-04 13:26:00,
2013-03-04 08:27:00,32.0,24.7,29.55,North,11,6.0,16.0,74,0.00,,SKC,0.00,VWS V13.01,2013-03-04 13:27:00,
2013-03-04 08:28:00,32.0,24.7,29.55,North,360,6.0,16.0,74,0.00,,SKC,0.00,VWS V13.01,2013-03-04 13:28:00,
2013-03-04 08:29:00,32.0,24.7,29.55,North,360,14.0,16.0,74,0.00,,SKC,0.00,VWS V13.01,2013-03-04 13:29:00,
2013-03-04 08:30:00,31.9,24.6,29.55,North,11,1.0,16.0,74,0.00,,SKC,0.00,VWS V13.01,2013-03-04 13:30:00,
2013-03-04 08:31:00,31.9,24.6,29.55,NNE,29,2.0,4.0,74,0.00,,SKC,0.00,VWS V13.01,2013-03-04 13:31:00,
2013-03-04 08:32:00,31.9,24.6,29.55,North,5,9.0,14.0,74,0.00,,SKC,0.00,VWS V13.01,2013-03-04 13:32:00,
2013-03-04 08:33:00,32.0,24.7,29.55,WNW,291,7.0,14.0,74,0.00,,SKC,0.00,VWS V13.01,2013-03-04 13:33:00,
2013-03-04 08:34:00,32.1,24.8,29.55,NNE,13,2.0,16.0,74,0.00,,SKC,0.00,VWS V13.01,2013-03-04 13:34:00,
2013-03-04 08:35:00,32.0,24.7,29.55,North,350,4.0,14.0,74,0.00,,SKC,0.00,VWS V13.01,2013-03-04 13:35:00,
2013-03-04 08:36:00,32.0,24.7,29.55,NNW,330,5.0,14.0,74,0.00,,SKC,0.00,VWS V13.01,2013-03-04 13:36:00,
2013-03-04 08:37:00,32.0,24.7,29.55,North,9,3.0,14.0,74,0.00,,SKC,0.00,VWS V13.01,2013-03-04 13:37:00,
2013-03-04 08:38:00,32.0,24.7,29.55,North,355,3.0,14.0,74,0.00,,SKC,0.00,VWS V13.01,2013-03-04 13:38:00,
2013-03-04 08:39:00,32.0,24.7,29.55,NW,317,12.0,16.0,74,0.00,,SKC,0.00,VWS V13.01,2013-03-04 13:39:00,
2013-03-04 08:40:00,32.1,24.8,29.55,NW,322,3.0,14.0,74,0.00,,SKC,0.00,VWS V13.01,2013-03-04 13:40:00,
2013-03-04 08:41:00,32.1,24.8,29.55,North,360,10.0,14.0,74,0.00,,SKC,0.00,VWS V13.01,2013-03-04 13:41:00,
2013-03-04 08:42:00,32.1,24.8,29.55,ENE,58,10.0,14.0,74,0.00,,SKC,0.00,VWS V13.01,2013-03-04 13:42:00,
2013-03-04 08:43:00,32.1,24.4,29.55,North,360,4.0,14.0,73,0.00,,SKC,0.00,VWS V13.01,2013-03-04 13:43:00,
2013-03-04 08:44:00,32.0,24.7,29.55,NE,51,5.0,14.0,74,0.00,,SKC,0.00,VWS V13.01,2013-03-04 13:44:00,
2013-03-04 08:45:00,32.1,24.4,29.55,North,355,12.0,14.0,73,0.00,,SKC,0.00,VWS V13.01,2013-03-04 13:45:00,
2013-03-04 08:46:00,32.1,24.4,29.55,North,355,7.0,14.0,73,0.00,,SKC,0.00,VWS V13.01,2013-03-04 13:46:00,
2013-03-04 08:47:00,32.1,24.4,29.55,NE,40,5.0,14.0,73,0.00,,SKC,0.00,VWS V13.01,2013-03-04 13:47:00,
2013-03-04 08:48:00,32.0,24.3,29.55,NE,45,4.0,14.0,73,0.00,,SKC,0.00,VWS V13.01,2013-03-04 13:48:00,
2013-03-04 08:49:00,32.1,24.8,29.55,North,360,4.0,14.0,74,0.00,,SKC,0.00,VWS V13.01,2013-03-04 13:49:00,
2013-03-04 08:50:00,32.0,24.7,29.55,NE,46,1.0,14.0,74,0.00,,SKC,0.00,VWS V13.01,2013-03-04 13:50:00,
2013-03-04 08:51:00,32.0,24.7,29.55,NNW,334,1.0,14.0,74,0.00,,SKC,0.00,VWS V13.01,2013-03-04 13:51:00,
2013-03-04 08:52:00,32.0,24.7,29.55,North,9,5.0,14.0,74,0.00,,SKC,0.00,VWS V13.01,2013-03-04 13:52:00,
2013-03-04 08:53:00,32.0,24.7,29.54,North,355,4.0,14.0,74,0.00,,SKC,0.00,VWS V13.01,2013-03-04 13:53:00,
2013-03-04 08:54:00,32.1,24.4,29.55,North,355,5.0,14.0,73,0.00,,SKC,0.00,VWS V13.01,2013-03-04 13:54:00,
2013-03-04 08:55:00,32.0,24.7,29.55,North,360,3.0,14.0,74,0.00,,SKC,0.00,VWS V13.01,2013-03-04 13:55:00,
2013-03-04 08:56:00,32.0,24.7,29.55,North,11,4.0,14.0,74,0.00,,SKC,0.00,VWS V13.01,2013-03-04 13:56:00,
2013-03-04 08:57:00,32.0,24.7,29.55,North,355,4.0,14.0,74,0.00,,SKC,0.00,VWS V13.01,2013-03-04 13:57:00,
2013-03-04 08:58:00,32.0,24.7,29.55,NNW,346,8.0,14.0,74,0.00,,SKC,0.00,VWS V13.01,2013-03-04 13:58:00,
2013-03-04 08:59:00,32.0,24.7,29.55,NW,319,4.0,14.0,74,0.00,,SKC,0.00,VWS V13.01,2013-03-04 13:59:00,
2013-03-04 09:00:00,32.0,24.7,29.55,NNW,338,0.0,14.0,74,0.00,,SKC,0.00,VWS V13.01,2013-03-04 14:00:00,
2013-03-04 09:01:00,32.0,24.7,29.55,NNE,30,10.0,10.0,74,0.00,,SKC,0.00,VWS V13.01,2013-03-04 14:01:00,
2013-03-04 09:02:00,32.0,24.7,29.54,North,355,6.0,10.0,74,0.00,,SKC,0.00,VWS V13.01,2013-03-04 14:02:00,
2013-03-04 09:03:00,32.0,24.7,29.55,North,360,5.0,14.0,74,0.00,,SKC,0.00,VWS V13.01,2013-03-04 14:03:00,
2013-03-04 09:04:00,32.0,25.0,29.55,NNE,30,3.0,11.0,75,0.00,,SKC,0.00,VWS V13.01,2013-03-04 14:04:00,
2013-03-04 09:05:00,32.1,25.1,29.55,NNW,340,3.0,11.0,75,0.00,,SKC,0.00,VWS V13.01,2013-03-04 14:05:00,
2013-03-04 09:06:00,32.1,25.1,29.55,North,360,3.0,11.0,75,0.00,,SKC,0.00,VWS V13.01,2013-03-04 14:06:00,
2013-03-04 09:07:00,32.2,25.2,29.54,North,360,1.0,11.0,75,0.00,,SKC,0.00,VWS V13.01,2013-03-04 14:07:00,
2013-03-04 09:08:00,32.2,25.2,29.54,ENE,78,9.0,11.0,75,0.00,,SKC,0.00,VWS V13.01,2013-03-04 14:08:00,
2013-03-04 09:09:00,32.3,25.0,29.55,North,360,2.0,11.0,74,0.00,,SKC,0.00,VWS V13.01,2013-03-04 14:09:00,
2013-03-04 09:10:00,32.3,25.0,29.55,NW,306,5.0,11.0,74,0.00,,SKC,0.00,VWS V13.01,2013-03-04 14:10:00,
2013-03-04 09:11:00,32.3,25.0,29.55,NNW,341,4.0,11.0,74,0.00,,SKC,0.00,VWS V13.01,2013-03-04 14:11:00,
2013-03-04 09:12:00,32.4,25.0,29.55,NNW,342,0.0,11.0,74,0.00,,SKC,0.00,VWS V13.01,2013-03-04 14:12:00,
2013-03-04 09:13:00,32.4,25.0,29.55,SW,215,4.0,11.0,74,0.00,,SKC,0.00,VWS V13.01,2013-03-04 14:13:00,
2013-03-04 09:14:00,32.4,24.7,29.55,North,360,5.0,12.0,73,0.00,,SKC,0.00,VWS V13.01,2013-03-04 14:14:00,
2013-03-04 09:15:00,32.3,24.6,29.55,NNW,341,5.0,12.0,73,0.00,,SKC,0.00,VWS V13.01,2013-03-04 14:15:00,
2013-03-04 09:16:00,32.3,24.6,29.55,North,10,4.0,12.0,73,0.00,,SKC,0.00,VWS V13.01,2013-03-04 14:16:00,
2013-03-04 09:17:00,32.2,25.2,29.54,North,360,1.0,11.0,75,0.00,,SKC,0.00,VWS V13.01,2013-03-04 14:17:00,
2013-03-04 09:18:00,32.3,24.6,29.55,NW,311,3.0,12.0,73,0.00,,SKC,0.00,VWS V13.01,2013-03-04 14:18:00,
2013-03-04 09:19:00,32.3,24.6,29.54,WNW,298,4.0,12.0,73,0.00,,SKC,0.00,VWS V13.01,2013-03-04 14:19:00,
2013-03-04 09:20:00,32.3,24.6,29.54,NE,49,4.0,12.0,73,0.00,,SKC,0.00,VWS V13.01,2013-03-04 14:20:00,
2013-03-04 09:21:00,32.3,24.6,29.55,NNW,348,5.0,12.0,73,0.00,,SKC,0.00,VWS V13.01,2013-03-04 14:21:00,
2013-03-04 09:22:00,32.2,24.5,29.55,NNE,22,2.0,15.0,73,0.00,,SKC,0.00,VWS V13.01,2013-03-04 14:22:00,
2013-03-04 09:23:00,32.2,24.5,29.54,NNE,17,3.0,15.0,73,0.00,,SKC,0.00,VWS V13.01,2013-03-04 14:23:00,
2013-03-04 09:24:00,32.4,24.7,29.55,North,355,4.0,12.0,73,0.00,,SKC,0.00,VWS V13.01,2013-03-04 14:24:00,
2013-03-04 09:25:00,32.2,24.9,29.54,North,360,5.0,15.0,74,0.00,,SKC,0.00,VWS V13.01,2013-03-04 14:25:00,
2013-03-04 09:26:00,32.1,24.8,29.55,NNE,17,4.0,15.0,74,0.00,,SKC,0.00,VWS V13.01,2013-03-04 14:26:00,
2013-03-04 09:27:00,32.1,24.8,29.54,North,355,2.0,15.0,74,0.00,,SKC,0.00,VWS V13.01,2013-03-04 14:27:00,
2013-03-04 09:28:00,32.1,24.8,29.54,NNE,15,7.0,15.0,74,0.00,,SKC,0.00,VWS V13.01,2013-03-04 14:28:00,
2013-03-04 09:29:00,32.0,24.7,29.55,NNE,25,5.0,15.0,74,0.00,,SKC,0.00,VWS V13.01,2013-03-04 14:29:00,
2013-03-04 09:30:00,31.9,24.6,29.55,NNE,29,5.0,15.0,74,0.00,,SKC,0.00,VWS V13.01,2013-03-04 14:30:00,
2013-03-04 09:31:00,31.9,24.6,29.54,NE,44,10.0,10.0,74,0.00,,SKC,0.00,VWS V13.01,2013-03-04 14:31:00,
2013-03-04 09:32:00,31.9,24.6,29.54,NE,42,3.0,11.0,74,0.00,,SKC,0.00,VWS V13.01,2013-03-04 14:32:00,
2013-03-04 09:33:00,31.9,24.6,29.54,NNE,28,5.0,11.0,74,0.00,,SKC,0.00,VWS V13.01,2013-03-04 14:33:00,
2013-03-04 09:34:00,31.8,24.5,29.55,NNE,18,2.0,14.0,74,0.00,,SKC,0.00,VWS V13.01,2013-03-04 14:34:00,
2013-03-04 09:35:00,31.8,24.8,29.54,NNE,16,5.0,14.0,75,0.00,,SKC,0.00,VWS V13.01,2013-03-04 14:35:00,
2013-03-04 09:36:00,31.7,24.7,29.55,North,355,5.0,14.0,75,0.00,,SKC,0.00,VWS V13.01,2013-03-04 14:36:00,
2013-03-04 09:37:00,31.7,24.7,29.55,North,5,14.0,15.0,75,0.00,,SKC,0.00,VWS V13.01,2013-03-04 14:37:00,
2013-03-04 09:38:00,31.7,24.7,29.54,NNW,339,5.0,16.0,75,0.00,,SKC,0.00,VWS V13.01,2013-03-04 14:38:00,
2013-03-04 09:39:00,32.0,24.7,29.55,NE,42,7.0,15.0,74,0.00,,SKC,0.00,VWS V13.01,2013-03-04 14:39:00,
2013-03-04 09:40:00,31.7,24.7,29.54,NNE,24,3.0,16.0,75,0.00,,SKC,0.00,VWS V13.01,2013-03-04 14:40:00,
2013-03-04 09:41:00,31.7,24.7,29.54,NNW,336,4.0,16.0,75,0.00,,SKC,0.00,VWS V13.01,2013-03-04 14:41:00,
2013-03-04 09:42:00,31.7,24.7,29.54,NNE,25,4.0,16.0,75,0.00,,SKC,0.00,VWS V13.01,2013-03-04 14:42:00,
2013-03-04 09:43:00,31.8,25.1,29.54,NNE,20,7.0,16.0,76,0.00,,SKC,0.00,VWS V13.01,2013-03-04 14:43:00,
2013-03-04 09:44:00,31.8,24.8,29.54,NE,34,12.0,16.0,75,0.00,,SKC,0.00,VWS V13.01,2013-03-04 14:44:00,
2013-03-04 09:45:00,31.9,24.9,29.54,NNE,17,3.0,18.0,75,0.00,,SKC,0.00,VWS V13.01,2013-03-04 14:45:00,
2013-03-04 09:46:00,31.9,24.9,29.55,NNE,15,7.0,18.0,75,0.00,,SKC,0.00,VWS V13.01,2013-03-04 14:46:00,
2013-03-04 09:47:00,31.9,24.9,29.54,North,9,12.0,18.0,75,0.00,,SKC,0.00,VWS V13.01,2013-03-04 14:47:00,
2013-03-04 09:48:00,31.9,24.6,29.55,North,355,9.0,18.0,74,0.00,,SKC,0.00,VWS V13.01,2013-03-04 14:48:00,
2013-03-04 09:49:00,31.9,24.6,29.55,West,272,3.0,18.0,74,0.00,,SKC,0.00,VWS V13.01,2013-03-04 14:49:00,
2013-03-04 09:50:00,31.9,24.9,29.54,NW,322,1.0,18.0,75,0.00,,SKC,0.00,VWS V13.01,2013-03-04 14:50:00,
2013-03-04 09:51:00,31.7,24.7,29.54,NNW,336,5.0,16.0,75,0.00,,SKC,0.00,VWS V13.01,2013-03-04 14:51:00,
2013-03-04 09:52:00,32.0,25.0,29.55,NNW,337,12.0,18.0,75,0.00,,SKC,0.00,VWS V13.01,2013-03-04 14:52:00,
2013-03-04 09:53:00,32.0,24.7,29.55,NW,310,4.0,18.0,74,0.00,,SKC,0.00,VWS V13.01,2013-03-04 14:53:00,
2013-03-04 09:54:00,32.0,24.7,29.55,NNW,346,6.0,18.0,74,0.00,,SKC,0.00,VWS V13.01,2013-03-04 14:54:00,
2013-03-04 09:55:00,32.0,24.7,29.54,NNE,18,4.0,18.0,74,0.00,,SKC,0.00,VWS V13.01,2013-03-04 14:55:00,
2013-03-04 09:56:00,32.0,24.7,29.54,North,355,7.0,18.0,74,0.00,,SKC,0.00,VWS V13.01,2013-03-04 14:56:00,
2013-03-04 09:57:00,32.0,24.7,29.54,NNW,337,9.0,18.0,74,0.00,,SKC,0.00,VWS V13.01,2013-03-04 14:57:00,
2013-03-04 09:58:00,32.1,24.8,29.54,North,350,9.0,18.0,74,0.00,,SKC,0.00,VWS V13.01,2013-03-04 14:58:00,
2013-03-04 09:59:00,32.1,24.8,29.54,WNW,298,3.0,18.0,74,0.00,,SKC,0.00,VWS V13.01,2013-03-04 14:59:00,
2013-03-04 10:00:00,32.1,25.1,29.54,NNW,344,3.0,18.0,75,0.00,,SKC,0.00,VWS V13.01,2013-03-04 15:00:00,
2013-03-04 10:01:00,32.1,24.8,29.54,North,11,10.0,10.0,74,0.00,,SKC,0.00,VWS V13.01,2013-03-04 15:01:00,
2013-03-04 10:02:00,32.2,24.9,29.54,East,98,3.0,11.0,74,0.00,,SKC,0.00,VWS V13.01,2013-03-04 15:02:00,
2013-03-04 10:03:00,32.3,25.0,29.54,NNE,26,5.0,11.0,74,0.00,,SKC,0.00,VWS V13.01,2013-03-04 15:03:00,
2013-03-04 10:04:00,32.3,24.6,29.54,NNW,340,0.0,11.0,73,0.00,,SKC,0.00,VWS V13.01,2013-03-04 15:04:00,
2013-03-04 10:05:00,32.4,24.7,29.54,North,5,11.0,11.0,73,0.00,,SKC,0.00,VWS V13.01,2013-03-04 15:05:00,
2013-03-04 10:06:00,32.4,24.7,29.54,NNW,347,6.0,11.0,73,0.00,,SKC,0.00,VWS V13.01,2013-03-04 15:06:00,
2013-03-04 10:07:00,32.5,24.5,29.54,North,355,4.0,11.0,72,0.00,,SKC,0.00,VWS V13.01,2013-03-04 15:07:00,
2013-03-04 10:08:00,32.5,24.5,29.54,WNW,288,5.0,11.0,72,0.00,,SKC,0.00,VWS V13.01,2013-03-04 15:08:00,
2013-03-04 10:09:00,32.1,24.8,29.55,NW,306,2.0,18.0,74,0.00,,SKC,0.00,VWS V13.01,2013-03-04 15:09:00,
2013-03-04 10:10:00,32.6,24.6,29.54,NNW,342,1.0,11.0,72,0.00,,SKC,0.00,VWS V13.01,2013-03-04 15:10:00,
2013-03-04 10:11:00,32.7,24.7,29.54,North,360,1.0,11.0,72,0.00,,SKC,0.00,VWS V13.01,2013-03-04 15:11:00,
2013-03-04 10:12:00,32.7,24.4,29.54,NW,309,2.0,12.0,71,0.00,,SKC,0.00,VWS V13.01,2013-03-04 15:12:00,
2013-03-04 10:13:00,32.8,24.5,29.54,North,9,4.0,12.0,71,0.00,,SKC,0.00,VWS V13.01,2013-03-04 15:13:00,
2013-03-04 10:14:00,32.8,24.1,29.54,NNW,329,4.0,12.0,70,0.00,,SKC,0.00,VWS V13.01,2013-03-04 15:14:00,
2013-03-04 10:15:00,32.9,24.2,29.54,North,360,3.0,12.0,70,0.00,,SKC,0.00,VWS V13.01,2013-03-04 15:15:00,
2013-03-04 10:16:00,32.9,24.2,29.54,NNW,346,7.0,12.0,70,0.00,,SKC,0.00,VWS V13.01,2013-03-04 15:16:00,
2013-03-04 10:17:00,32.9,24.2,29.54,ENE,61,10.0,17.0,70,0.00,,SKC,0.00,VWS V13.01,2013-03-04 15:17:00,
2013-03-04 10:18:00,32.9,24.2,29.54,NNW,332,12.0,17.0,70,0.00,,SKC,0.00,VWS V13.01,2013-03-04 15:18:00,
2013-03-04 10:19:00,33.0,24.3,29.54,NE,37,7.0,17.0,70,0.00,,SKC,0.00,VWS V13.01,2013-03-04 15:19:00,
2013-03-04 10:20:00,33.0,24.0,29.54,North,351,6.0,17.0,69,0.00,,SKC,0.00,VWS V13.01,2013-03-04 15:20:00,
2013-03-04 10:21:00,33.0,23.6,29.54,WNW,291,7.0,17.0,68,0.00,,SKC,0.00,VWS V13.01,2013-03-04 15:21:00,
2013-03-04 10:22:00,33.0,23.6,29.54,NNW,346,5.0,17.0,68,0.00,,SKC,0.00,VWS V13.01,2013-03-04 15:22:00,
2013-03-04 10:23:00,33.1,24.0,29.54,NNE,29,6.0,17.0,69,0.00,,SKC,0.00,VWS V13.01,2013-03-04 15:23:00,
2013-03-04 10:24:00,33.1,23.7,29.54,North,355,0.0,17.0,68,0.00,,SKC,0.00,VWS V13.01,2013-03-04 15:24:00,
2013-03-04 10:25:00,33.2,23.8,29.54,NW,319,3.0,17.0,68,0.00,,SKC,0.00,VWS V13.01,2013-03-04 15:25:00,
2013-03-04 10:26:00,33.2,23.8,29.54,North,5,9.0,17.0,68,0.00,,SKC,0.00,VWS V13.01,2013-03-04 15:26:00,
2013-03-04 10:27:00,33.3,23.9,29.54,North,355,9.0,17.0,68,0.00,,SKC,0.00,VWS V13.01,2013-03-04 15:27:00,
2013-03-04 10:28:00,33.3,23.9,29.54,WNW,303,6.0,17.0,68,0.00,,SKC,0.00,VWS V13.01,2013-03-04 15:28:00,
2013-03-04 10:29:00,33.0,24.3,29.54,North,360,10.0,17.0,70,0.00,,SKC,0.00,VWS V13.01,2013-03-04 15:29:00,
2013-03-04 10:30:00,33.4,24.0,29.54,North,5,6.0,17.0,68,0.00,,SKC,0.00,VWS V13.01,2013-03-04 15:30:00,
2013-03-04 10:31:00,33.4,23.6,29.54,NNW,327,3.0,6.0,67,0.00,,SKC,0.00,VWS V13.01,2013-03-04 15:31:00,
2013-03-04 10:32:00,33.5,24.1,29.54,NE,53,2.0,9.0,68,0.00,,SKC,0.00,VWS V13.01,2013-03-04 15:32:00,
2013-03-04 10:33:00,33.5,24.1,29.54,North,11,6.0,9.0,68,0.00,,SKC,0.00,VWS V13.01,2013-03-04 15:33:00,
2013-03-04 10:34:00,33.1,23.7,29.54,North,355,2.0,17.0,68,0.00,,SKC,0.00,VWS V13.01,2013-03-04 15:34:00,
2013-03-04 10:35:00,33.5,23.7,29.54,North,10,6.0,14.0,67,0.00,,SKC,0.00,VWS V13.01,2013-03-04 15:35:00,
2013-03-04 10:36:00,33.6,23.8,29.54,North,5,9.0,14.0,67,0.00,,SKC,0.00,VWS V13.01,2013-03-04 15:36:00,
2013-03-04 10:37:00,33.6,24.2,29.54,ENE,74,9.0,14.0,68,0.00,,SKC,0.00,VWS V13.01,2013-03-04 15:37:00,
2013-03-04 10:38:00,33.7,24.3,29.54,NNE,13,3.0,14.0,68,0.00,,SKC,0.00,VWS V13.01,2013-03-04 15:38:00,
2013-03-04 10:39:00,33.7,24.3,29.54,WNW,300,11.0,14.0,68,0.00,,SKC,0.00,VWS V13.01,2013-03-04 15:39:00,
2013-03-04 10:40:00,33.7,24.6,29.54,North,360,7.0,14.0,69,0.00,,SKC,0.00,VWS V13.01,2013-03-04 15:40:00,
2013-03-04 10:41:00,33.6,24.5,29.54,WNW,303,9.0,14.0,69,0.00,,SKC,0.00,VWS V13.01,2013-03-04 15:41:00,
2013-03-04 10:42:00,33.5,24.8,29.54,NNE,19,2.0,14.0,70,0.00,,SKC,0.00,VWS V13.01,2013-03-04 15:42:00,
2013-03-04 10:43:00,33.5,24.8,29.54,NW,326,5.0,14.0,70,0.00,,SKC,0.00,VWS V13.01,2013-03-04 15:43:00,
2013-03-04 10:44:00,33.4,25.0,29.54,NNW,345,7.0,14.0,71,0.00,,SKC,0.00,VWS V13.01,2013-03-04 15:44:00,
2013-03-04 10:45:00,33.3,25.3,29.54,North,360,2.0,14.0,72,0.00,,SKC,0.00,VWS V13.01,2013-03-04 15:45:00,
2013-03-04 10:46:00,33.2,25.2,29.54,ENE,63,7.0,14.0,72,0.00,,SKC,0.00,VWS V13.01,2013-03-04 15:46:00,
2013-03-04 10:47:00,33.2,25.2,29.54,North,355,7.0,14.0,72,0.00,,SKC,0.00,VWS V13.01,2013-03-04 15:47:00,
2013-03-04 10:48:00,33.0,25.0,29.53,WNW,294,3.0,14.0,72,0.00,,SKC,0.00,VWS V13.01,2013-03-04 15:48:00,
2013-03-04 10:49:00,33.0,25.3,29.53,NNE,30,7.0,14.0,73,0.00,,SKC,0.00,VWS V13.01,2013-03-04 15:49:00,
2013-03-04 10:50:00,33.7,24.6,29.54,NNW,348,5.0,14.0,69,0.00,,SKC,0.00,VWS V13.01,2013-03-04 15:50:00,
2013-03-04 10:51:00,33.0,25.3,29.53,West,279,4.0,14.0,73,0.00,,SKC,0.00,VWS V13.01,2013-03-04 15:51:00,
2013-03-04 10:52:00,33.0,25.3,29.53,NNW,329,13.0,14.0,73,0.00,,SKC,0.00,VWS V13.01,2013-03-04 15:52:00,
2013-03-04 10:53:00,32.9,25.2,29.53,North,9,6.0,15.0,73,0.00,,SKC,0.00,VWS V13.01,2013-03-04 15:53:00,
2013-03-04 10:54:00,32.9,25.2,29.53,NE,34,4.0,15.0,73,0.00,,SKC,0.00,VWS V13.01,2013-03-04 15:54:00,
2013-03-04 10:55:00,32.9,25.2,29.53,North,360,5.0,15.0,73,0.00,,SKC,0.00,VWS V13.01,2013-03-04 15:55:00,
2013-03-04 10:56:00,33.0,25.6,29.53,North,355,7.0,15.0,74,0.00,,SKC,0.00,VWS V13.01,2013-03-04 15:56:00,
2013-03-04 10:57:00,33.0,25.6,29.53,NNW,344,1.0,15.0,74,0.00,,SKC,0.00,VWS V13.01,2013-03-04 15:57:00,
2013-03-04 10:58:00,33.1,25.7,29.53,NNW,342,4.0,15.0,74,0.00,,SKC,0.00,VWS V13.01,2013-03-04 15:58:00,
2013-03-04 10:59:00,33.1,25.7,29.53,WNW,292,6.0,15.0,74,0.00,,SKC,0.00,VWS V13.01,2013-03-04 15:59:00,
2013-03-04 11:00:00,33.2,25.8,29.53,NW,319,6.0,15.0,74,0.00,,SKC,0.00,VWS V13.01,2013-03-04 16:00:00,
2013-03-04 11:01:00,33.2,25.5,29.53,NNW,345,4.0,6.0,73,0.00,,SKC,0.00,VWS V13.01,2013-03-04 16:01:00,
2013-03-04 11:02:00,33.2,25.8,29.53,North,355,5.0,10.0,74,0.00,,SKC,0.00,VWS V13.01,2013-03-04 16:02:00,
2013-03-04 11:03:00,33.2,25.8,29.53,NNE,22,3.0,11.0,74,0.00,,SKC,0.00,VWS V13.01,2013-03-04 16:03:00,
2013-03-04 11:04:00,33.2,25.8,29.53,NNE,26,3.0,11.0,74,0.00,,SKC,0.00,VWS V13.01,2013-03-04 16:04:00,
2013-03-04 11:05:00,33.2,25.8,29.53,NNW,333,3.0,11.0,74,0.00,,SKC,0.00,VWS V13.01,2013-03-04 16:05:00,
2013-03-04 11:06:00,33.2,25.8,29.53,NE,41,1.0,11.0,74,0.00,,SKC,0.00,VWS V13.01,2013-03-04 16:06:00,
2013-03-04 11:07:00,33.2,25.8,29.53,NNE,27,3.0,11.0,74,0.00,,SKC,0.00,VWS V13.01,2013-03-04 16:07:00,
2013-03-04 11:08:00,33.3,26.2,29.53,NNE,26,0.0,11.0,75,0.00,,SKC,0.00,VWS V13.01,2013-03-04 16:08:00,
2013-03-04 11:09:00,33.3,26.2,29.53,NNE,32,7.0,11.0,75,0.00,,SKC,0.00,VWS V13.01,2013-03-04 16:09:00,
2013-03-04 11:10:00,33.2,25.8,29.53,NW,320,6.0,15.0,74,0.00,,SKC,0.00,VWS V13.01,2013-03-04 16:10:00,
2013-03-04 11:11:00,33.3,26.6,29.53,North,360,3.0,11.0,76,0.00,,SKC,0.00,VWS V13.01,2013-03-04 16:11:00,
2013-03-04 11:12:00,33.2,26.5,29.53,NNW,333,6.0,11.0,76,0.00,,SKC,0.00,VWS V13.01,2013-03-04 16:12:00,
2013-03-04 11:13:00,33.2,26.5,29.53,North,360,6.0,11.0,76,0.00,,SKC,0.00,VWS V13.01,2013-03-04 16:13:00,
2013-03-04 11:14:00,33.0,26.3,29.53,North,9,4.0,11.0,76,0.00,,SKC,0.00,VWS V13.01,2013-03-04 16:14:00,
2013-03-04 11:15:00,33.0,26.3,29.53,NNW,345,2.0,11.0,76,0.00,,SKC,0.00,VWS V13.01,2013-03-04 16:15:00,
2013-03-04 11:16:00,33.0,26.3,29.53,North,355,3.0,11.0,76,0.00,,SKC,0.00,VWS V13.01,2013-03-04 16:16:00,
2013-03-04 11:17:00,33.0,26.6,29.53,North,355,4.0,11.0,77,0.00,,SKC,0.00,VWS V13.01,2013-03-04 16:17:00,
2013-03-04 11:18:00,33.0,26.6,29.53,NE,38,5.0,11.0,77,0.00,,SKC,0.00,VWS V13.01,2013-03-04 16:18:00,
2013-03-04 11:19:00,33.0,26.3,29.53,North,355,5.0,11.0,76,0.00,,SKC,0.00,VWS V13.01,2013-03-04 16:19:00,
2013-03-04 11:20:00,33.3,26.2,29.53,North,360,3.0,11.0,75,0.00,,SKC,0.00,VWS V13.01,2013-03-04 16:20:00,
2013-03-04 11:21:00,33.0,26.3,29.53,WNW,287,2.0,11.0,76,0.00,,SKC,0.00,VWS V13.01,2013-03-04 16:21:00,
2013-03-04 11:22:00,32.9,26.2,29.53,NW,325,4.0,15.0,76,0.00,,SKC,0.00,VWS V13.01,2013-03-04 16:22:00,
2013-03-04 11:23:00,32.9,26.2,29.53,NE,42,3.0,15.0,76,0.00,,SKC,0.00,VWS V13.01,2013-03-04 16:23:00,
2013-03-04 11:24:00,32.8,26.1,29.53,ENE,73,2.0,15.0,76,0.00,,SKC,0.00,VWS V13.01,2013-03-04 16:24:00,
2013-03-04 11:25:00,32.8,26.4,29.53,North,355,5.0,15.0,77,0.00,,SKC,0.00,VWS V13.01,2013-03-04 16:25:00,
2013-03-04 11:26:00,32.8,26.1,29.53,NNW,344,4.0,15.0,76,0.00,,SKC,0.00,VWS V13.01,2013-03-04 16:26:00,
2013-03-04 11:27:00,32.9,26.2,29.53,North,5,2.0,15.0,76,0.00,,SKC,0.00,VWS V13.01,2013-03-04 16:27:00,
2013-03-04 11:28:00,32.9,26.5,29.53,NNW,342,2.0,15.0,77,0.00,,SKC,0.00,VWS V13.01,2013-03-04 16:28:00,
2013-03-04 11:29:00,33.0,26.6,29.53,WNW,302,3.0,15.0,77,0.00,,SKC,0.00,VWS V13.01,2013-03-04 16:29:00,
2013-03-04 11:30:00,33.1,26.7,29.53,NE,37,5.0,15.0,77,0.00,,SKC,0.00,VWS V13.01,2013-03-04 16:30:00,
2013-03-04 11:31:00,33.2,26.5,29.53,North,355,11.0,13.0,76,0.00,,SKC,0.00,VWS V13.01,2013-03-04 16:31:00,
2013-03-04 11:32:00,33.2,26.5,29.52,North,349,9.0,13.0,76,0.00,,SKC,0.00,VWS V13.01,2013-03-04 16:32:00,
2013-03-04 11:33:00,33.1,26.4,29.52,North,360,6.0,13.0,76,0.00,,SKC,0.00,VWS V13.01,2013-03-04 16:33:00,
2013-03-04 11:34:00,32.8,26.1,29.53,ENE,73,4.0,15.0,76,0.00,,SKC,0.00,VWS V13.01,2013-03-04 16:34:00,
2013-03-04 11:35:00,33.2,26.5,29.53,North,355,6.0,15.0,76,0.00,,SKC,0.00,VWS V13.01,2013-03-04 16:35:00,
2013-03-04 11:36:00,33.2,26.1,29.53,North,360,7.0,15.0,75,0.00,,SKC,0.00,VWS V13.01,2013-03-04 16:36:00,
2013-03-04 11:37:00,33.3,26.2,29.53,North,350,2.0,15.0,75,0.00,,SKC,0.00,VWS V13.01,2013-03-04 16:37:00,
2013-03-04 11:38:00,33.3,26.2,29.52,SE,142,2.0,15.0,75,0.00,,SKC,0.00,VWS V13.01,2013-03-04 16:38:00,
2013-03-04 11:39:00,33.4,26.3,29.52,West,271,6.0,15.0,75,0.00,,SKC,0.00,VWS V13.01,2013-03-04 16:39:00,
2013-03-04 11:40:00,33.5,26.4,29.52,East,84,12.0,15.0,75,0.00,,SKC,0.00,VWS V13.01,2013-03-04 16:40:00,
2013-03-04 11:41:00,33.5,26.4,29.52,NNE,13,7.0,15.0,75,0.00,,SKC,0.00,VWS V13.01,2013-03-04 16:41:00,
2013-03-04 11:42:00,33.6,26.5,29.52,NW,304,5.0,15.0,75,0.00,,SKC,0.00,VWS V13.01,2013-03-04 16:42:00,
2013-03-04 11:43:00,33.7,26.6,29.52,NNE,26,4.0,15.0,75,0.00,,SKC,0.00,VWS V13.01,2013-03-04 16:43:00,
2013-03-04 11:44:00,33.8,26.4,29.52,NNW,334,9.0,15.0,74,0.00,,SKC,0.00,VWS V13.01,2013-03-04 16:44:00,
2013-03-04 11:45:00,33.9,26.5,29.52,North,5,3.0,15.0,74,0.00,,SKC,0.00,VWS V13.01,2013-03-04 16:45:00,
2013-03-04 11:46:00,34.0,26.6,29.52,NNE,13,10.0,15.0,74,0.00,,SKC,0.00,VWS V13.01,2013-03-04 16:46:00,
2013-03-04 11:47:00,34.0,26.6,29.52,NNE,23,4.0,15.0,74,0.00,,SKC,0.00,VWS V13.01,2013-03-04 16:47:00,
2013-03-04 11:48:00,34.1,26.7,29.52,NNE,14,8.0,15.0,74,0.00,,SKC,0.00,VWS V13.01,2013-03-04 16:48:00,
2013-03-04 11:49:00,33.4,26.3,29.52,West,273,6.0,15.0,75,0.00,,SKC,0.00,VWS V13.01,2013-03-04 16:49:00,
2013-03-04 11:50:00,34.1,26.4,29.52,North,5,4.0,15.0,73,0.00,,SKC,0.00,VWS V13.01,2013-03-04 16:50:00,
2013-03-04 11:51:00,34.2,26.8,29.52,NE,44,2.0,15.0,74,0.00,,SKC,0.00,VWS V13.01,2013-03-04 16:51:00,
2013-03-04 11:52:00,34.3,26.9,29.52,NNE,13,5.0,15.0,74,0.00,,SKC,0.00,VWS V13.01,2013-03-04 16:52:00,
2013-03-04 11:53:00,34.4,27.0,29.52,NE,37,4.0,15.0,74,0.00,,SKC,0.00,VWS V13.01,2013-03-04 16:53:00,
2013-03-04 11:54:00,34.4,26.7,29.52,North,11,10.0,15.0,73,0.00,,SKC,0.00,VWS V13.01,2013-03-04 16:54:00,
2013-03-04 11:55:00,34.4,26.7,29.51,ESE,108,6.0,17.0,73,0.00,,SKC,0.00,VWS V13.01,2013-03-04 16:55:00,
2013-03-04 11:56:00,34.4,26.7,29.52,NNE,26,6.0,17.0,73,0.00,,SKC,0.00,VWS V13.01,2013-03-04 16:56:00,
2013-03-04 11:57:00,34.4,26.7,29.52,NE,34,5.0,17.0,73,0.00,,SKC,0.00,VWS V13.01,2013-03-04 16:57:00,
2013-03-04 11:58:00,34.4,26.3,29.52,WNW,293,3.0,17.0,72,0.00,,SKC,0.00,VWS V13.01,2013-03-04 16:58:00,
2013-03-04 11:59:00,34.1,26.7,29.52,WNW,290,10.0,15.0,74,0.00,,SKC,0.00,VWS V13.01,2013-03-04 16:59:00,
2013-03-04 12:00:00,34.5,26.4,29.51,North,360,2.0,17.0,72,0.00,,SKC,0.00,VWS V13.01,2013-03-04 17:00:00,
2013-03-04 12:01:00,34.6,26.5,29.52,NW,319,2.0,3.0,72,0.00,,SKC,0.00,VWS V13.01,2013-03-04 17:01:00,
2013-03-04 12:02:00,34.8,26.7,29.51,North,355,6.0,6.0,72,0.00,,SKC,0.00,VWS V13.01,2013-03-04 17:02:00,
2013-03-04 12:03:00,34.9,26.8,29.51,North,355,5.0,7.0,72,0.00,,SKC,0.00,VWS V13.01,2013-03-04 17:03:00,
2013-03-04 12:04:00,35.0,26.9,29.51,WNW,299,7.0,7.0,72,0.00,,SKC,0.00,VWS V13.01,2013-03-04 17:04:00,
2013-03-04 12:05:00,35.0,26.6,29.51,NNW,333,9.0,11.0,71,0.00,,SKC,0.00,VWS V13.01,2013-03-04 17:05:00,
2013-03-04 12:06:00,35.1,26.7,29.51,NNE,24,6.0,11.0,71,0.00,,SKC,0.00,VWS V13.01,2013-03-04 17:06:00,
2013-03-04 12:07:00,35.1,26.7,29.51,NNW,342,15.0,16.0,71,0.00,,SKC,0.00,VWS V13.01,2013-03-04 17:07:00,
2013-03-04 12:08:00,35.1,26.3,29.51,ENE,67,8.0,16.0,70,0.00,,SKC,0.00,VWS V13.01,2013-03-04 17:08:00,
2013-03-04 12:09:00,35.1,26.7,29.51,NNW,340,7.0,16.0,71,0.00,,SKC,0.00,VWS V13.01,2013-03-04 17:09:00,
2013-03-04 12:10:00,35.2,26.8,29.51,North,360,8.0,16.0,71,0.00,,SKC,0.00,VWS V13.01,2013-03-04 17:10:00,
2013-03-04 12:11:00,35.2,26.8,29.51,NE,35,4.0,16.0,71,0.00,,SKC,0.00,VWS V13.01,2013-03-04 17:11:00,
2013-03-04 12:12:00,35.2,26.4,29.51,NNE,22,5.0,16.0,70,0.00,,SKC,0.00,VWS V13.01,2013-03-04 17:12:00,
2013-03-04 12:13:00,35.2,26.4,29.51,NNE,30,11.0,16.0,70,0.00,,SKC,0.00,VWS V13.01,2013-03-04 17:13:00,
2013-03-04 12:14:00,35.2,26.4,29.51,NNE,24,5.0,16.0,70,0.00,,SKC,0.00,VWS V13.01,2013-03-04 17:14:00,
2013-03-04 12:15:00,35.1,26.3,29.51,North,350,5.0,16.0,70,0.00,,SKC,0.00,VWS V13.01,2013-03-04 17:15:00,
2013-03-04 12:16:00,35.1,26.3,29.51,North,5,5.0,16.0,70,0.00,,SKC,0.00,VWS V13.01,2013-03-04 17:16:00,
2013-03-04 12:17:00,35.2,26.4,29.51,NNW,329,3.0,16.0,70,0.00,,SKC,0.00,VWS V13.01,2013-03-04 17:17:00,
2013-03-04 12:18:00,35.2,26.4,29.51,North,355,5.0,16.0,70,0.00,,SKC,0.00,VWS V13.01,2013-03-04 17:18:00,
2013-03-04 12:19:00,35.3,26.5,29.51,NNW,338,5.0,16.0,70,0.00,,SKC,0.00,VWS V13.01,2013-03-04 17:19:00,
2013-03-04 12:20:00,35.3,26.5,29.51,North,360,6.0,16.0,70,0.00,,SKC,0.00,VWS V13.01,2013-03-04 17:20:00,
2013-03-04 12:21:00,35.4,26.6,29.51,NNE,12,4.0,16.0,70,0.00,,SKC,0.00,VWS V13.01,2013-03-04 17:21:00,
2013-03-04 12:22:00,35.4,26.3,29.51,North,360,6.0,16.0,69,0.00,,SKC,0.00,VWS V13.01,2013-03-04 17:22:00,
2013-03-04 12:23:00,35.5,26.4,29.51,NNE,30,10.0,18.0,69,0.00,,SKC,0.00,VWS V13.01,2013-03-04 17:23:00,
2013-03-04 12:24:00,35.4,26.3,29.51,North,349,9.0,18.0,69,0.00,,SKC,0.00,VWS V13.01,2013-03-04 17:24:00,
2013-03-04 12:25:00,35.4,26.3,29.51,North,10,12.0,18.0,69,0.00,,SKC,0.00,VWS V13.01,2013-03-04 17:25:00,
2013-03-04 12:26:00,35.4,26.3,29.51,North,5,5.0,18.0,69,0.00,,SKC,0.00,VWS V13.01,2013-03-04 17:26:00,
2013-03-04 12:27:00,35.3,26.2,29.51,North,355,9.0,18.0,69,0.00,,SKC,0.00,VWS V13.01,2013-03-04 17:27:00,
2013-03-04 12:28:00,35.4,26.3,29.51,ENE,68,3.0,18.0,69,0.00,,SKC,0.00,VWS V13.01,2013-03-04 17:28:00,
2013-03-04 12:29:00,35.3,26.5,29.51,WNW,302,4.0,16.0,70,0.00,,SKC,0.00,VWS V13.01,2013-03-04 17:29:00,
2013-03-04 12:30:00,35.5,26.4,29.51,NE,38,6.0,18.0,69,0.00,,SKC,0.00,VWS V13.01,2013-03-04 17:30:00,
2013-03-04 12:31:00,35.5,26.4,29.51,NNW,344,4.0,8.0,69,0.00,,SKC,0.00,VWS V13.01,2013-03-04 17:31:00,
2013-03-04 12:32:00,35.5,26.4,29.51,NE,49,7.0,10.0,69,0.00,,SKC,0.00,VWS V13.01,2013-03-04 17:32:00,
2013-03-04 12:33:00,35.6,26.5,29.51,North,350,4.0,10.0,69,0.00,,SKC,0.00,VWS V13.01,2013-03-04 17:33:00,
2013-03-04 12:34:00,35.6,26.5,29.51,North,355,3.0,10.0,69,0.00,,SKC,0.00,VWS V13.01,2013-03-04 17:34:00,
2013-03-04 12:35:00,35.6,26.5,29.51,North,360,5.0,12.0,69,0.00,,SKC,0.00,VWS V13.01,2013-03-04 17:35:00,
2013-03-04 12:36:00,35.4,26.3,29.51,NNW,340,6.0,18.0,69,0.00,,SKC,0.00,VWS V13.01,2013-03-04 17:36:00,
2013-03-04 12:37:00,35.6,26.5,29.51,NNW,348,4.0,12.0,69,0.00,,SKC,0.00,VWS V13.01,2013-03-04 17:37:00,
2013-03-04 12:38:00,35.6,26.5,29.51,NNW,342,3.0,12.0,69,0.00,,SKC,0.00,VWS V13.01,2013-03-04 17:38:00,
2013-03-04 12:39:00,35.7,26.5,29.51,ENE,69,11.0,14.0,69,0.00,,SKC,0.00,VWS V13.01,2013-03-04 17:39:00,
2013-03-04 12:40:00,35.7,26.5,29.51,NE,47,11.0,14.0,69,0.00,,SKC,0.00,VWS V13.01,2013-03-04 17:40:00,
2013-03-04 12:41:00,35.6,26.8,29.51,ENE,69,5.0,14.0,70,0.00,,SKC,0.00,VWS V13.01,2013-03-04 17:41:00,
2013-03-04 12:42:00,35.6,26.8,29.51,NNE,15,6.0,14.0,70,0.00,,SKC,0.00,VWS V13.01,2013-03-04 17:42:00,
2013-03-04 12:43:00,35.5,26.7,29.51,ENE,57,5.0,16.0,70,0.00,,SKC,0.00,VWS V13.01,2013-03-04 17:43:00,
2013-03-04 12:44:00,35.3,26.9,29.51,North,10,6.0,16.0,71,0.00,,SKC,0.00,VWS V13.01,2013-03-04 17:44:00,
2013-03-04 12:45:00,35.2,26.8,29.51,ENE,67,12.0,16.0,71,0.00,,SKC,0.00,VWS V13.01,2013-03-04 17:45:00,
2013-03-04 12:46:00,35.1,26.7,29.51,NE,45,5.0,16.0,71,0.00,,SKC,0.00,VWS V13.01,2013-03-04 17:46:00,
2013-03-04 12:47:00,35.0,26.9,29.51,ENE,65,2.0,16.0,72,0.00,,SKC,0.00,VWS V13.01,2013-03-04 17:47:00,
2013-03-04 12:48:00,35.6,26.5,29.51,NNW,341,3.0,12.0,69,0.00,,SKC,0.00,VWS V13.01,2013-03-04 17:48:00,
2013-03-04 12:49:00,34.8,27.0,29.51,NNE,30,2.0,16.0,73,0.00,,SKC,0.00,VWS V13.01,2013-03-04 17:49:00,
2013-03-04 12:50:00,34.7,27.0,29.51,North,10,3.0,16.0,73,0.00,,SKC,0.00,VWS V13.01,2013-03-04 17:50:00,
2013-03-04 12:51:00,34.6,27.2,29.51,NNW,329,1.0,16.0,74,0.00,,SKC,0.00,VWS V13.01,2013-03-04 17:51:00,
2013-03-04 12:52:00,34.4,27.0,29.51,NE,55,10.0,16.0,74,0.00,,SKC,0.00,VWS V13.01,2013-03-04 17:52:00,
2013-03-04 12:53:00,34.4,27.3,29.51,North,5,6.0,16.0,75,0.00,,SKC,0.00,VWS V13.01,2013-03-04 17:53:00,
2013-03-04 12:54:00,34.4,27.6,29.52,NNE,19,3.0,16.0,76,0.00,,SKC,0.00,VWS V13.01,2013-03-04 17:54:00,
2013-03-04 12:55:00,34.3,27.5,29.52,North,360,2.0,16.0,76,0.00,,SKC,0.00,VWS V13.01,2013-03-04 17:55:00,
2013-03-04 12:56:00,34.2,27.8,29.52,NNW,346,6.0,16.0,77,0.00,,SKC,0.00,VWS V13.01,2013-03-04 17:56:00,
2013-03-04 12:57:00,34.0,27.6,29.52,East,88,5.0,16.0,77,0.00,,SKC,0.00,VWS V13.01,2013-03-04 17:57:00,
2013-03-04 12:58:00,33.8,27.4,29.52,North,355,6.0,16.0,77,0.00,,SKC,0.00,VWS V13.01,2013-03-04 17:58:00,
2013-03-04 12:59:00,33.6,27.5,29.52,NNE,30,2.0,16.0,78,0.00,,SKC,0.00,VWS V13.01,2013-03-04 17:59:00,
2013-03-04 13:00:00,33.5,27.7,29.52,NNW,346,2.0,16.0,79,0.00,,SKC,0.00,VWS V13.01,2013-03-04 18:00:00,
2013-03-04 13:01:00,33.4,27.6,29.52,North,349,1.0,2.0,79,0.00,,SKC,0.00,VWS V13.01,2013-03-04 18:01:00,
2013-03-04 13:02:00,33.4,27.9,29.52,NNW,336,2.0,11.0,80,0.00,,SKC,0.00,VWS V13.01,2013-03-04 18:02:00,
2013-03-04 13:03:00,33.4,27.9,29.52,NNE,31,9.0,11.0,80,0.00,,SKC,0.00,VWS V13.01,2013-03-04 18:03:00,
2013-03-04 13:04:00,33.3,27.8,29.52,NNW,345,4.0,11.0,80,0.00,,SKC,0.00,VWS V13.01,2013-03-04 18:04:00,
2013-03-04 13:05:00,33.2,27.7,29.52,ENE,60,4.0,11.0,80,0.00,,SKC,0.00,VWS V13.01,2013-03-04 18:05:00,
2013-03-04 13:06:00,33.2,28.0,29.52,North,5,5.0,11.0,81,0.00,,SKC,0.00,VWS V13.01,2013-03-04 18:06:00,
2013-03-04 13:07:00,33.1,27.9,29.52,North,355,3.0,11.0,81,0.00,,SKC,0.00,VWS V13.01,2013-03-04 18:07:00,
2013-03-04 13:08:00,33.0,27.8,29.52,NNW,348,10.0,11.0,81,0.00,,SKC,0.00,VWS V13.01,2013-03-04 18:08:00,
2013-03-04 13:09:00,32.9,27.7,29.52,North,350,5.0,11.0,81,0.00,,SKC,0.00,VWS V13.01,2013-03-04 18:09:00,
2013-03-04 13:10:00,32.8,27.9,29.52,NNW,336,0.0,11.0,82,0.00,,SKC,0.00,VWS V13.01,2013-03-04 18:10:00,
2013-03-04 13:11:00,32.7,28.1,29.52,NNW,336,0.0,11.0,83,0.00,,SKC,0.00,VWS V13.01,2013-03-04 18:11:00,
2013-03-04 13:12:00,32.7,28.1,29.52,NNW,336,0.0,11.0,83,0.00,,SKC,0.00,VWS V13.01,2013-03-04 18:12:00,
2013-03-04 13:13:00,32.7,28.1,29.52,NNW,336,2.0,11.0,83,0.00,,SKC,0.00,VWS V13.01,2013-03-04 18:13:00,
2013-03-04 13:14:00,32.7,28.1,29.52,NNW,345,5.0,11.0,83,0.00,,SKC,0.00,VWS V13.01,2013-03-04 18:14:00,
2013-03-04 13:15:00,32.7,28.4,29.52,North,5,2.0,11.0,84,0.00,,SKC,0.00,VWS V13.01,2013-03-04 18:15:00,
2013-03-04 13:16:00,32.6,28.3,29.52,NNE,30,2.0,11.0,84,0.00,,SKC,0.00,VWS V13.01,2013-03-04 18:16:00,
2013-03-04 13:17:00,32.6,28.3,29.52,North,360,9.0,11.0,84,0.00,,SKC,0.00,VWS V13.01,2013-03-04 18:17:00,
2013-03-04 13:18:00,32.5,28.2,29.52,NNW,345,11.0,11.0,84,0.00,,SKC,0.00,VWS V13.01,2013-03-04 18:18:00,
2013-03-04 13:19:00,32.4,28.1,29.52,NNE,13,6.0,11.0,84,0.00,,SKC,0.00,VWS V13.01,2013-03-04 18:19:00,
2013-03-04 13:20:00,32.3,28.0,29.52,NW,312,1.0,13.0,84,0.00,,SKC,0.00,VWS V13.01,2013-03-04 18:20:00,
2013-03-04 13:21:00,32.3,28.0,29.52,NNE,12,9.0,13.0,84,0.00,,SKC,0.00,VWS V13.01,2013-03-04 18:21:00,
2013-03-04 13:22:00,32.2,27.9,29.52,NE,48,5.0,22.0,84,0.00,,SKC,0.00,VWS V13.01,2013-03-04 18:22:00,
2013-03-04 13:23:00,32.1,27.8,29.52,North,355,5.0,22.0,84,0.00,,SKC,0.00,VWS V13.01,2013-03-04 18:23:00,
2013-03-04 13:24:00,32.1,27.8,29.52,North,355,2.0,22.0,84,0.00,,SKC,0.00,VWS V13.01,2013-03-04 18:24:00,
2013-03-04 13:25:00,32.0,28.0,29.52,NE,49,7.0,22.0,85,0.00,,SKC,0.00,VWS V13.01,2013-03-04 18:25:00,
2013-03-04 13:26:00,32.0,28.0,29.52,North,355,10.0,22.0,85,0.00,,SKC,0.00,VWS V13.01,2013-03-04 18:26:00,
2013-03-04 13:27:00,32.0,28.0,29.52,NNE,30,15.0,22.0,85,0.00,,SKC,0.00,VWS V13.01,2013-03-04 18:27:00,
2013-03-04 13:28:00,32.0,28.0,29.52,NNW,340,7.0,22.0,85,0.00,,SKC,0.00,VWS V13.01,2013-03-04 18:28:00,
2013-03-04 13:29:00,31.9,27.9,29.52,NNE,19,5.0,22.0,85,0.00,,SKC,0.00,VWS V13.01,2013-03-04 18:29:00,
2013-03-04 13:30:00,31.9,27.9,29.52,East,92,9.0,22.0,85,0.00,,SKC,0.00,VWS V13.01,2013-03-04 18:30:00,
2013-03-04 13:31:00,31.9,27.9,29.52,NNE,23,4.0,10.0,85,0.00,,SKC,0.00,VWS V13.01,2013-03-04 18:31:00,
2013-03-04 13:32:00,31.8,27.8,29.52,NE,38,6.0,12.0,85,0.00,,SKC,0.00,VWS V13.01,2013-03-04 18:32:00,
2013-03-04 13:33:00,32.1,27.8,29.52,North,5,6.0,22.0,84,0.00,,SKC,0.00,VWS V13.01,2013-03-04 18:33:00,
2013-03-04 13:34:00,31.7,28.0,29.52,NNE,30,1.0,12.0,86,0.00,,SKC,0.00,VWS V13.01,2013-03-04 18:34:00,
2013-03-04 13:35:00,31.8,28.1,29.52,NNE,26,5.0,12.0,86,0.00,,SKC,0.00,VWS V13.01,2013-03-04 18:35:00,
2013-03-04 13:36:00,31.7,28.0,29.52,NNE,14,10.0,12.0,86,0.00,,SKC,0.00,VWS V13.01,2013-03-04 18:36:00,
2013-03-04 13:37:00,31.7,28.0,29.52,NNE,16,9.0,13.0,86,0.00,,SKC,0.00,VWS V13.01,2013-03-04 18:37:00,
2013-03-04 13:38:00,31.6,27.9,29.52,NNE,15,0.0,13.0,86,0.00,,SKC,0.00,VWS V13.01,2013-03-04 18:38:00,
2013-03-04 13:39:00,31.6,27.9,29.52,NE,40,2.0,13.0,86,0.00,,SKC,0.00,VWS V13.01,2013-03-04 18:39:00,
2013-03-04 13:40:00,31.6,28.2,29.52,North,9,7.0,13.0,87,0.00,,SKC,0.00,VWS V13.01,2013-03-04 18:40:00,
2013-03-04 13:41:00,31.5,28.1,29.53,NE,40,4.0,13.0,87,0.00,,SKC,0.00,VWS V13.01,2013-03-04 18:41:00,
2013-03-04 13:42:00,31.5,28.1,29.52,NNW,345,3.0,13.0,87,0.00,,SKC,0.00,VWS V13.01,2013-03-04 18:42:00,
2013-03-04 13:43:00,31.4,28.0,29.52,NE,36,10.0,13.0,87,0.00,,SKC,0.00,VWS V13.01,2013-03-04 18:43:00,
2013-03-04 13:44:00,31.4,28.0,29.52,NNW,335,0.0,13.0,87,0.00,,SKC,0.00,VWS V13.01,2013-03-04 18:44:00,
2013-03-04 13:45:00,31.4,28.0,29.53,NE,49,7.0,13.0,87,0.00,,SKC,0.00,VWS V13.01,2013-03-04 18:45:00,
2013-03-04 13:46:00,31.4,28.3,29.52,NNE,13,5.0,13.0,88,0.00,,SKC,0.00,VWS V13.01,2013-03-04 18:46:00,
2013-03-04 13:47:00,31.4,28.0,29.52,North,5,1.0,13.0,87,0.00,,SKC,0.00,VWS V13.01,2013-03-04 18:47:00,
2013-03-04 13:48:00,31.4,28.3,29.52,North,5,3.0,13.0,88,0.00,,SKC,0.00,VWS V13.01,2013-03-04 18:48:00,
2013-03-04 13:49:00,31.4,28.3,29.53,NE,42,7.0,13.0,88,0.00,,SKC,0.00,VWS V13.01,2013-03-04 18:49:00,
2013-03-04 13:50:00,31.3,28.2,29.53,NNE,32,0.0,13.0,88,0.00,,SKC,0.00,VWS V13.01,2013-03-04 18:50:00,
2013-03-04 13:51:00,31.3,28.2,29.53,NNW,333,4.0,13.0,88,0.00,,SKC,0.00,VWS V13.01,2013-03-04 18:51:00,
2013-03-04 13:52:00,31.3,28.2,29.53,NE,45,5.0,13.0,88,0.00,,SKC,0.00,VWS V13.01,2013-03-04 18:52:00,
2013-03-04 13:53:00,31.3,28.2,29.53,NE,46,4.0,13.0,88,0.00,,SKC,0.00,VWS V13.01,2013-03-04 18:53:00,
2013-03-04 13:54:00,31.3,28.2,29.53,NNE,30,2.0,13.0,88,0.00,,SKC,0.00,VWS V13.01,2013-03-04 18:54:00,
2013-03-04 13:55:00,31.3,28.2,29.53,NE,42,2.0,13.0,88,0.00,,SKC,0.00,VWS V13.01,2013-03-04 18:55:00,
2013-03-04 13:56:00,31.2,28.1,29.53,NE,40,2.0,13.0,88,0.00,,SKC,0.00,VWS V13.01,2013-03-04 18:56:00,
2013-03-04 13:57:00,31.2,28.1,29.53,NNE,23,10.0,13.0,88,0.00,,SKC,0.00,VWS V13.01,2013-03-04 18:57:00,
2013-03-04 13:58:00,31.2,28.1,29.53,NNW,329,10.0,13.0,88,0.00,,SKC,0.00,VWS V13.01,2013-03-04 18:58:00,
2013-03-04 13:59:00,31.1,28.0,29.53,NNE,22,8.0,13.0,88,0.00,,SKC,0.00,VWS V13.01,2013-03-04 18:59:00,
2013-03-04 14:00:00,31.0,27.9,29.53,NNW,330,4.0,13.0,88,0.00,,SKC,0.00,VWS V13.01,2013-03-04 19:00:00,
2013-03-04 14:01:00,31.0,27.9,29.53,North,355,4.0,6.0,88,0.00,,SKC,0.00,VWS V13.01,2013-03-04 19:01:00,
2013-03-04 14:02:00,31.0,27.9,29.53,North,350,5.0,6.0,88,0.00,,SKC,0.00,VWS V13.01,2013-03-04 19:02:00,
2013-03-04 14:03:00,31.0,27.9,29.53,North,360,5.0,6.0,88,0.00,,SKC,0.00,VWS V13.01,2013-03-04 19:03:00,
2013-03-04 14:04:00,31.2,28.1,29.53,NE,44,0.0,13.0,88,0.00,,SKC,0.00,VWS V13.01,2013-03-04 19:04:00,
2013-03-04 14:05:00,30.9,28.0,29.53,NNE,31,3.0,9.0,89,0.00,,SKC,0.00,VWS V13.01,2013-03-04 19:05:00,
2013-03-04 14:06:00,31.0,28.1,29.53,North,355,4.0,9.0,89,0.00,,SKC,0.00,VWS V13.01,2013-03-04 19:06:00,
2013-03-04 14:07:00,31.0,28.1,29.53,North,355,2.0,9.0,89,0.00,,SKC,0.00,VWS V13.01,2013-03-04 19:07:00,
2013-03-04 14:08:00,30.9,28.0,29.53,North,355,2.0,9.0,89,0.00,,SKC,0.00,VWS V13.01,2013-03-04 19:08:00,
2013-03-04 14:09:00,31.0,28.1,29.53,NE,39,2.0,9.0,89,0.00,,SKC,0.00,VWS V13.01,2013-03-04 19:09:00,
2013-03-04 14:10:00,31.0,28.1,29.53,North,355,4.0,9.0,89,0.00,,SKC,0.00,VWS V13.01,2013-03-04 19:10:00,
2013-03-04 14:11:00,31.0,28.1,29.53,North,355,1.0,9.0,89,0.00,,SKC,0.00,VWS V13.01,2013-03-04 19:11:00,
2013-03-04 14:12:00,31.0,28.1,29.53,North,355,3.0,9.0,89,0.00,,SKC,0.00,VWS V13.01,2013-03-04 19:12:00,
2013-03-04 14:13:00,31.0,28.1,29.53,North,355,2.0,9.0,89,0.00,,SKC,0.00,VWS V13.01,2013-03-04 19:13:00,
2013-03-04 14:14:00,31.0,28.1,29.53,North,355,3.0,9.0,89,0.00,,SKC,0.00,VWS V13.01,2013-03-04 19:14:00,
2013-03-04 14:15:00,31.0,28.1,29.53,North,350,2.0,9.0,89,0.00,,SKC,0.00,VWS V13.01,2013-03-04 19:15:00,
2013-03-04 14:16:00,31.0,28.1,29.53,North,350,0.0,9.0,89,0.00,,SKC,0.00,VWS V13.01,2013-03-04 19:16:00,
2013-03-04 14:17:00,31.0,28.1,29.53,North,350,2.0,9.0,89,0.00,,SKC,0.00,VWS V13.01,2013-03-04 19:17:00,
2013-03-04 14:18:00,31.0,28.1,29.53,North,350,3.0,9.0,89,0.00,,SKC,0.00,VWS V13.01,2013-03-04 19:18:00,
2013-03-04 14:19:00,31.0,28.1,29.53,NNW,344,3.0,9.0,89,0.00,,SKC,0.00,VWS V13.01,2013-03-04 19:19:00,
2013-03-04 14:20:00,31.0,28.1,29.53,North,5,4.0,9.0,89,0.00,,SKC,0.00,VWS V13.01,2013-03-04 19:20:00,
2013-03-04 14:21:00,31.0,28.1,29.53,NNW,341,2.0,9.0,89,0.00,,SKC,0.00,VWS V13.01,2013-03-04 19:21:00,
2013-03-04 14:22:00,31.0,28.1,29.53,North,9,6.0,9.0,89,0.00,,SKC,0.00,VWS V13.01,2013-03-04 19:22:00,
2013-03-04 14:23:00,31.0,28.1,29.53,NNW,344,3.0,9.0,89,0.00,,SKC,0.00,VWS V13.01,2013-03-04 19:23:00,
2013-03-04 14:24:00,30.9,28.3,29.53,NNE,31,3.0,10.0,90,0.00,,SKC,0.00,VWS V13.01,2013-03-04 19:24:00,
2013-03-04 14:25:00,31.0,28.4,29.53,NNW,348,5.0,10.0,90,0.00,,SKC,0.00,VWS V13.01,2013-03-04 19:25:00,
2013-03-04 14:26:00,31.0,28.4,29.53,NNW,333,0.0,10.0,90,0.00,,SKC,0.00,VWS V13.01,2013-03-04 19:26:00,
2013-03-04 14:27:00,31.0,28.4,29.53,NNW,333,1.0,10.0,90,0.00,,SKC,0.00,VWS V13.01,2013-03-04 19:27:00,
2013-03-04 14:28:00,31.0,28.4,29.53,NE,48,4.0,10.0,90,0.00,,SKC,0.00,VWS V13.01,2013-03-04 19:28:00,
2013-03-04 14:29:00,31.0,28.4,29.53,NE,41,2.0,10.0,90,0.00,,SKC,0.00,VWS V13.01,2013-03-04 19:29:00,
2013-03-04 14:30:00,31.1,28.5,29.53,North,9,2.0,10.0,90,0.00,,SKC,0.00,VWS V13.01,2013-03-04 19:30:00,
2013-03-04 14:31:00,31.1,28.5,29.53,North,360,5.0,5.0,90,0.00,,SKC,0.00,VWS V13.01,2013-03-04 19:31:00,
2013-03-04 14:32:00,31.1,28.5,29.53,North,360,3.0,5.0,90,0.00,,SKC,0.00,VWS V13.01,2013-03-04 19:32:00,
2013-03-04 14:33:00,31.1,28.5,29.53,North,360,5.0,11.0,90,0.00,,SKC,0.00,VWS V13.01,2013-03-04 19:33:00,
2013-03-04 14:34:00,31.1,28.5,29.53,North,11,4.0,11.0,90,0.00,,SKC,0.00,VWS V13.01,2013-03-04 19:34:00,
2013-03-04 14:35:00,31.1,28.5,29.53,WNW,295,2.0,11.0,90,0.00,,SKC,0.00,VWS V13.01,2013-03-04 19:35:00,
2013-03-04 14:36:00,31.1,28.5,29.53,NNE,18,5.0,11.0,90,0.00,,SKC,0.00,VWS V13.01,2013-03-04 19:36:00,
2013-03-04 14:37:00,31.1,28.5,29.53,WSW,249,2.0,11.0,90,0.01,,SKC,0.01,VWS V13.01,2013-03-04 19:37:00,
2013-03-04 14:38:00,31.1,28.5,29.53,North,9,4.0,11.0,90,0.01,,SKC,0.01,VWS V13.01,2013-03-04 19:38:00,
2013-03-04 14:39:00,31.1,28.5,29.53,NNE,25,9.0,11.0,90,0.01,,SKC,0.01,VWS V13.01,2013-03-04 19:39:00,
2013-03-04 14:40:00,31.1,28.5,29.53,North,360,3.0,11.0,90,0.01,,SKC,0.01,VWS V13.01,2013-03-04 19:40:00,
2013-03-04 14:41:00,31.1,28.5,29.53,NW,325,1.0,11.0,90,0.01,,SKC,0.01,VWS V13.01,2013-03-04 19:41:00,
2013-03-04 14:42:00,31.2,28.6,29.53,NNW,338,2.0,11.0,90,0.01,,SKC,0.01,VWS V13.01,2013-03-04 19:42:00,
2013-03-04 14:43:00,31.2,28.6,29.53,NNE,33,3.0,11.0,90,0.01,,SKC,0.01,VWS V13.01,2013-03-04 19:43:00,
2013-03-04 14:44:00,31.3,28.7,29.53,North,355,7.0,11.0,90,0.01,,SKC,0.01,VWS V13.01,2013-03-04 19:44:00,
2013-03-04 14:45:00,31.3,28.7,29.53,NE,44,2.0,11.0,90,0.01,,SKC,0.01,VWS V13.01,2013-03-04 19:45:00,
2013-03-04 14:46:00,31.3,28.7,29.53,North,355,3.0,11.0,90,0.01,,SKC,0.01,VWS V13.01,2013-03-04 19:46:00,
2013-03-04 14:47:00,31.3,28.7,29.53,NE,41,5.0,11.0,90,0.01,,SKC,0.01,VWS V13.01,2013-03-04 19:47:00,
2013-03-04 14:48:00,31.3,28.7,29.53,NNE,24,3.0,11.0,90,0.01,,SKC,0.01,VWS V13.01,2013-03-04 19:48:00,
2013-03-04 14:49:00,31.1,28.5,29.53,North,11,10.0,11.0,90,0.01,,SKC,0.01,VWS V13.01,2013-03-04 19:49:00,
2013-03-04 14:50:00,31.3,28.7,29.53,NNE,26,1.0,11.0,90,0.01,,SKC,0.01,VWS V13.01,2013-03-04 19:50:00,
2013-03-04 14:51:00,31.3,28.7,29.53,NNE,32,6.0,11.0,90,0.01,,SKC,0.01,VWS V13.01,2013-03-04 19:51:00,
2013-03-04 14:52:00,31.3,28.7,29.54,NNE,16,15.0,15.0,90,0.01,,SKC,0.01,VWS V13.01,2013-03-04 19:52:00,
2013-03-04 14:53:00,31.3,28.4,29.53,NE,42,7.0,15.0,89,0.01,,SKC,0.01,VWS V13.01,2013-03-04 19:53:00,
2013-03-04 14:54:00,31.3,28.7,29.53,NNW,331,5.0,15.0,90,0.01,,SKC,0.01,VWS V13.01,2013-03-04 19:54:00,
2013-03-04 14:55:00,31.3,28.7,29.53,North,355,2.0,15.0,90,0.01,,SKC,0.01,VWS V13.01,2013-03-04 19:55:00,
2013-03-04 14:56:00,31.4,28.8,29.53,North,355,2.0,15.0,90,0.01,,SKC,0.01,VWS V13.01,2013-03-04 19:56:00,
2013-03-04 14:57:00,31.4,28.5,29.54,NNW,345,7.0,15.0,89,0.01,,SKC,0.01,VWS V13.01,2013-03-04 19:57:00,
2013-03-04 14:58:00,31.4,28.5,29.54,North,360,4.0,15.0,89,0.02,,SKC,0.02,VWS V13.01,2013-03-04 19:58:00,
2013-03-04 14:59:00,31.3,28.4,29.54,ENE,70,9.0,15.0,89,0.02,,SKC,0.02,VWS V13.01,2013-03-04 19:59:00,
2013-03-04 15:00:00,31.3,28.4,29.54,NNW,348,3.0,15.0,89,0.02,,SKC,0.02,VWS V13.01,2013-03-04 20:00:00,
2013-03-04 15:01:00,31.4,28.5,29.54,NE,36,13.0,13.0,89,0.02,,SKC,0.02,VWS V13.01,2013-03-04 20:01:00,
2013-03-04 15:02:00,31.4,28.5,29.54,NNW,340,7.0,13.0,89,0.02,,SKC,0.02,VWS V13.01,2013-03-04 20:02:00,
2013-03-04 15:03:00,31.3,28.4,29.54,North,355,5.0,13.0,89,0.02,,SKC,0.02,VWS V13.01,2013-03-04 20:03:00,
2013-03-04 15:04:00,31.4,28.5,29.54,NNW,331,5.0,13.0,89,0.02,,SKC,0.02,VWS V13.01,2013-03-04 20:04:00,
2013-03-04 15:05:00,31.4,28.3,29.54,NNW,345,1.0,13.0,88,0.02,,SKC,0.02,VWS V13.01,2013-03-04 20:05:00,
2013-03-04 15:06:00,31.4,28.3,29.54,NNE,13,9.0,13.0,88,0.02,,SKC,0.02,VWS V13.01,2013-03-04 20:06:00,
2013-03-04 15:07:00,31.4,28.3,29.54,NNE,28,2.0,16.0,88,0.02,,SKC,0.02,VWS V13.01,2013-03-04 20:07:00,
2013-03-04 15:08:00,31.4,28.3,29.54,NNW,341,5.0,16.0,88,0.02,,SKC,0.02,VWS V13.01,2013-03-04 20:08:00,
2013-03-04 15:09:00,31.4,28.3,29.54,NNW,334,3.0,16.0,88,0.02,,SKC,0.02,VWS V13.01,2013-03-04 20:09:00,
2013-03-04 15:10:00,31.4,28.3,29.54,NW,319,5.0,16.0,88,0.02,,SKC,0.02,VWS V13.01,2013-03-04 20:10:00,
2013-03-04 15:11:00,31.4,28.3,29.54,North,350,5.0,16.0,88,0.02,,SKC,0.02,VWS V13.01,2013-03-04 20:11:00,
2013-03-04 15:12:00,31.4,28.3,29.54,NW,304,5.0,16.0,88,0.02,,SKC,0.02,VWS V13.01,2013-03-04 20:12:00,
2013-03-04 15:13:00,31.4,28.3,29.54,NE,37,5.0,16.0,88,0.02,,SKC,0.02,VWS V13.01,2013-03-04 20:13:00,
2013-03-04 15:14:00,31.4,28.3,29.54,NW,326,4.0,16.0,88,0.02,,SKC,0.02,VWS V13.01,2013-03-04 20:14:00,
2013-03-04 15:15:00,31.3,28.2,29.54,NNW,348,6.0,16.0,88,0.02,,SKC,0.02,VWS V13.01,2013-03-04 20:15:00,
2013-03-04 15:16:00,31.3,28.2,29.54,NNW,344,4.0,16.0,88,0.02,,SKC,0.02,VWS V13.01,2013-03-04 20:16:00,
2013-03-04 15:17:00,31.3,28.2,29.54,North,350,3.0,16.0,88,0.02,,SKC,0.02,VWS V13.01,2013-03-04 20:17:00,
2013-03-04 15:18:00,31.3,28.2,29.54,North,5,3.0,16.0,88,0.02,,SKC,0.02,VWS V13.01,2013-03-04 20:18:00,
2013-03-04 15:19:00,31.3,28.2,29.54,North,360,5.0,16.0,88,0.02,,SKC,0.02,VWS V13.01,2013-03-04 20:19:00,
2013-03-04 15:20:00,31.3,27.9,29.54,North,360,6.0,16.0,87,0.02,,SKC,0.02,VWS V13.01,2013-03-04 20:20:00,
2013-03-04 15:21:00,31.2,27.8,29.54,NW,325,4.0,16.0,87,0.02,,SKC,0.02,VWS V13.01,2013-03-04 20:21:00,
2013-03-04 15:22:00,31.3,27.9,29.54,NNW,343,4.0,16.0,87,0.02,,SKC,0.02,VWS V13.01,2013-03-04 20:22:00,
2013-03-04 15:23:00,31.3,27.9,29.54,NNW,340,3.0,16.0,87,0.02,,SKC,0.02,VWS V13.01,2013-03-04 20:23:00,
2013-03-04 15:24:00,31.3,28.2,29.54,North,360,6.0,16.0,88,0.02,,SKC,0.02,VWS V13.01,2013-03-04 20:24:00,
2013-03-04 15:25:00,31.3,28.2,29.54,North,9,9.0,16.0,88,0.02,,SKC,0.02,VWS V13.01,2013-03-04 20:25:00,
2013-03-04 15:26:00,31.3,28.2,29.54,North,360,3.0,16.0,88,0.02,,SKC,0.02,VWS V13.01,2013-03-04 20:26:00,
2013-03-04 15:27:00,31.3,27.9,29.54,NNW,348,3.0,16.0,87,0.02,,SKC,0.02,VWS V13.01,2013-03-04 20:27:00,
2013-03-04 15:28:00,31.3,27.9,29.54,NNW,337,2.0,16.0,87,0.02,,SKC,0.02,VWS V13.01,2013-03-04 20:28:00,
2013-03-04 15:29:00,31.3,27.9,29.54,North,355,1.0,16.0,87,0.02,,SKC,0.02,VWS V13.01,2013-03-04 20:29:00,
2013-03-04 15:30:00,31.3,27.9,29.55,NNE,28,6.0,16.0,87,0.02,,SKC,0.02,VWS V13.01,2013-03-04 20:30:00,
2013-03-04 15:31:00,31.4,28.0,29.55,NW,309,3.0,6.0,87,0.02,,SKC,0.02,VWS V13.01,2013-03-04 20:31:00,
2013-03-04 15:32:00,31.4,28.0,29.55,North,355,1.0,6.0,87,0.02,,SKC,0.02,VWS V13.01,2013-03-04 20:32:00,
2013-03-04 15:33:00,31.4,28.0,29.55,North,355,3.0,6.0,87,0.02,,SKC,0.02,VWS V13.01,2013-03-04 20:33:00,
2013-03-04 15:34:00,31.4,28.0,29.54,North,355,2.0,6.0,87,0.02,,SKC,0.02,VWS V13.01,2013-03-04 20:34:00,
2013-03-04 15:35:00,31.4,28.0,29.54,NNW,327,1.0,7.0,87,0.02,,SKC,0.02,VWS V13.01,2013-03-04 20:35:00,
2013-03-04 15:36:00,31.4,28.0,29.54,ENE,73,4.0,7.0,87,0.02,,SKC,0.02,VWS V13.01,2013-03-04 20:36:00,
2013-03-04 15:37:00,31.4,28.0,29.55,ENE,70,1.0,7.0,87,0.02,,SKC,0.02,VWS V13.01,2013-03-04 20:37:00,
2013-03-04 15:38:00,31.4,28.0,29.54,NE,36,3.0,7.0,87,0.02,,SKC,0.02,VWS V13.01,2013-03-04 20:38:00,
2013-03-04 15:39:00,31.4,28.0,29.54,North,5,3.0,8.0,87,0.02,,SKC,0.02,VWS V13.01,2013-03-04 20:39:00,
2013-03-04 15:40:00,31.4,28.0,29.55,North,5,3.0,8.0,87,0.02,,SKC,0.02,VWS V13.01,2013-03-04 20:40:00,
2013-03-04 15:41:00,31.4,28.0,29.55,NNW,346,2.0,9.0,87,0.02,,SKC,0.02,VWS V13.01,2013-03-04 20:41:00,
2013-03-04 15:42:00,31.5,28.1,29.55,NNW,345,5.0,9.0,87,0.02,,SKC,0.02,VWS V13.01,2013-03-04 20:42:00,
2013-03-04 15:43:00,31.5,28.1,29.55,NNW,327,4.0,9.0,87,0.02,,SKC,0.02,VWS V13.01,2013-03-04 20:43:00,
2013-03-04 15:44:00,31.5,28.1,29.55,North,360,7.0,13.0,87,0.02,,SKC,0.02,VWS V13.01,2013-03-04 20:44:00,
2013-03-04 15:45:00,31.5,28.1,29.55,NE,38,5.0,13.0,87,0.02,,SKC,0.02,VWS V13.01,2013-03-04 20:45:00,
2013-03-04 15:46:00,31.5,28.1,29.55,NNE,26,2.0,13.0,87,0.02,,SKC,0.02,VWS V13.01,2013-03-04 20:46:00,
2013-03-04 15:47:00,31.5,27.8,29.55,NE,53,4.0,13.0,86,0.02,,SKC,0.02,VWS V13.01,2013-03-04 20:47:00,
2013-03-04 15:48:00,31.4,28.0,29.54,NNE,33,5.0,7.0,87,0.02,,SKC,0.02,VWS V13.01,2013-03-04 20:48:00,
2013-03-04 15:49:00,31.5,27.8,29.55,ENE,68,6.0,13.0,86,0.02,,SKC,0.02,VWS V13.01,2013-03-04 20:49:00,
2013-03-04 15:50:00,31.5,27.8,29.55,NNW,346,1.0,13.0,86,0.02,,SKC,0.02,VWS V13.01,2013-03-04 20:50:00,
2013-03-04 15:51:00,31.5,27.8,29.55,NE,34,4.0,13.0,86,0.02,,SKC,0.02,VWS V13.01,2013-03-04 20:51:00,
2013-03-04 15:52:00,31.5,27.8,29.55,NNE,25,3.0,13.0,86,0.02,,SKC,0.02,VWS V13.01,2013-03-04 20:52:00,
2013-03-04 15:53:00,31.6,27.9,29.55,NE,34,11.0,13.0,86,0.02,,SKC,0.02,VWS V13.01,2013-03-04 20:53:00,
2013-03-04 15:54:00,31.6,27.9,29.55,NNW,337,4.0,13.0,86,0.02,,SKC,0.02,VWS V13.01,2013-03-04 20:54:00,
2013-03-04 15:55:00,31.6,27.6,29.55,North,360,2.0,13.0,85,0.02,,SKC,0.02,VWS V13.01,2013-03-04 20:55:00,
2013-03-04 15:56:00,31.6,27.6,29.55,NNE,18,3.0,13.0,85,0.02,,SKC,0.02,VWS V13.01,2013-03-04 20:56:00,
2013-03-04 15:57:00,31.6,27.6,29.55,NE,36,5.0,13.0,85,0.02,,SKC,0.02,VWS V13.01,2013-03-04 20:57:00,
2013-03-04 15:58:00,31.6,27.3,29.55,North,355,6.0,13.0,84,0.02,,SKC,0.02,VWS V13.01,2013-03-04 20:58:00,
2013-03-04 15:59:00,31.6,27.3,29.55,North,10,7.0,13.0,84,0.02,,SKC,0.02,VWS V13.01,2013-03-04 20:59:00,
2013-03-04 16:00:00,31.6,27.3,29.55,North,355,5.0,13.0,84,0.02,,SKC,0.02,VWS V13.01,2013-03-04 21:00:00,
2013-03-04 16:01:00,31.6,27.3,29.55,ENE,76,9.0,9.0,84,0.00,,SKC,0.02,VWS V13.01,2013-03-04 21:01:00,
2013-03-04 16:02:00,31.6,27.0,29.55,North,349,2.0,10.0,83,0.00,,SKC,0.02,VWS V13.01,2013-03-04 21:02:00,
2013-03-04 16:03:00,31.6,27.0,29.55,NNW,342,0.0,10.0,83,0.00,,SKC,0.02,VWS V13.01,2013-03-04 21:03:00,
2013-03-04 16:04:00,31.7,27.1,29.55,NNW,342,0.0,10.0,83,0.00,,SKC,0.02,VWS V13.01,2013-03-04 21:04:00,
2013-03-04 16:05:00,31.7,27.1,29.55,NE,34,2.0,10.0,83,0.00,,SKC,0.02,VWS V13.01,2013-03-04 21:05:00,
2013-03-04 16:06:00,31.7,27.1,29.55,NNE,24,4.0,10.0,83,0.00,,SKC,0.02,VWS V13.01,2013-03-04 21:06:00,
2013-03-04 16:07:00,31.7,27.1,29.55,NE,46,7.0,10.0,83,0.00,,SKC,0.02,VWS V13.01,2013-03-04 21:07:00,
2013-03-04 16:08:00,31.7,27.1,29.55,NNE,21,1.0,10.0,83,0.00,,SKC,0.02,VWS V13.01,2013-03-04 21:08:00,
2013-03-04 16:09:00,31.7,27.1,29.55,NNE,15,0.0,10.0,83,0.00,,SKC,0.02,VWS V13.01,2013-03-04 21:09:00,
2013-03-04 16:10:00,31.7,27.1,29.55,NNE,14,1.0,10.0,83,0.00,,SKC,0.02,VWS V13.01,2013-03-04 21:10:00,
2013-03-04 16:11:00,31.7,27.1,29.55,NNW,342,3.0,10.0,83,0.00,,SKC,0.02,VWS V13.01,2013-03-04 21:11:00,
2013-03-04 16:12:00,31.7,27.1,29.55,NE,44,4.0,11.0,83,0.00,,SKC,0.02,VWS V13.01,2013-03-04 21:12:00,
2013-03-04 16:13:00,31.7,26.8,29.55,NE,40,2.0,11.0,82,0.00,,SKC,0.02,VWS V13.01,2013-03-04 21:13:00,
2013-03-04 16:14:00,31.7,26.8,29.55,NE,38,3.0,11.0,82,0.00,,SKC,0.02,VWS V13.01,2013-03-04 21:14:00,
2013-03-04 16:15:00,31.7,27.1,29.55,NNW,329,7.0,11.0,83,0.00,,SKC,0.02,VWS V13.01,2013-03-04 21:15:00,
2013-03-04 16:16:00,31.7,26.8,29.55,NNW,348,4.0,11.0,82,0.00,,SKC,0.02,VWS V13.01,2013-03-04 21:16:00,
2013-03-04 16:17:00,31.7,26.8,29.55,North,360,4.0,11.0,82,0.00,,SKC,0.02,VWS V13.01,2013-03-04 21:17:00,
2013-03-04 16:18:00,31.7,26.8,29.55,NNW,338,6.0,11.0,82,0.00,,SKC,0.02,VWS V13.01,2013-03-04 21:18:00,
2013-03-04 16:19:00,31.7,26.8,29.55,NNW,348,2.0,11.0,82,0.00,,SKC,0.02,VWS V13.01,2013-03-04 21:19:00,
2013-03-04 16:20:00,31.7,26.8,29.55,NNW,348,0.0,11.0,82,0.00,,SKC,0.02,VWS V13.01,2013-03-04 21:20:00,
2013-03-04 16:21:00,31.7,26.8,29.55,ENE,73,3.0,11.0,82,0.00,,SKC,0.02,VWS V13.01,2013-03-04 21:21:00,
2013-03-04 16:22:00,31.7,26.8,29.55,ENE,68,1.0,11.0,82,0.00,,SKC,0.02,VWS V13.01,2013-03-04 21:22:00,
2013-03-04 16:23:00,31.7,26.8,29.55,NNW,329,7.0,11.0,82,0.00,,SKC,0.02,VWS V13.01,2013-03-04 21:23:00,
2013-03-04 16:24:00,31.7,26.8,29.55,NNE,14,4.0,11.0,82,0.00,,SKC,0.02,VWS V13.01,2013-03-04 21:24:00,
2013-03-04 16:25:00,31.6,26.5,29.55,NW,317,4.0,11.0,81,0.00,,SKC,0.02,VWS V13.01,2013-03-04 21:25:00,
2013-03-04 16:26:00,31.6,26.5,29.55,NNW,345,1.0,11.0,81,0.00,,SKC,0.02,VWS V13.01,2013-03-04 21:26:00,
2013-03-04 16:27:00,31.6,26.5,29.55,NE,56,1.0,11.0,81,0.00,,SKC,0.02,VWS V13.01,2013-03-04 21:27:00,
2013-03-04 16:28:00,31.6,26.5,29.55,NW,313,4.0,11.0,81,0.00,,SKC,0.02,VWS V13.01,2013-03-04 21:28:00,
2013-03-04 16:29:00,31.6,26.5,29.55,NE,45,5.0,11.0,81,0.00,,SKC,0.02,VWS V13.01,2013-03-04 21:29:00,
2013-03-04 16:30:00,31.7,26.5,29.55,North,355,5.0,11.0,81,0.00,,SKC,0.02,VWS V13.01,2013-03-04 21:30:00,
2013-03-04 16:31:00,31.7,26.5,29.55,North,355,2.0,5.0,81,0.00,,SKC,0.02,VWS V13.01,2013-03-04 21:31:00,
2013-03-04 16:32:00,31.6,26.5,29.55,NE,41,2.0,6.0,81,0.00,,SKC,0.02,VWS V13.01,2013-03-04 21:32:00,
2013-03-04 16:33:00,31.7,26.5,29.56,NNE,32,2.0,6.0,81,0.00,,SKC,0.02,VWS V13.01,2013-03-04 21:33:00,
2013-03-04 16:34:00,31.7,26.5,29.55,North,10,7.0,11.0,81,0.00,,SKC,0.02,VWS V13.01,2013-03-04 21:34:00,
2013-03-04 16:35:00,31.6,26.1,29.56,NNW,348,4.0,11.0,80,0.00,,SKC,0.02,VWS V13.01,2013-03-04 21:35:00,
2013-03-04 16:36:00,31.7,26.2,29.56,SE,125,3.0,11.0,80,0.00,,SKC,0.02,VWS V13.01,2013-03-04 21:36:00,
2013-03-04 16:37:00,31.7,26.2,29.56,North,11,4.0,11.0,80,0.00,,SKC,0.02,VWS V13.01,2013-03-04 21:37:00,
2013-03-04 16:38:00,31.7,26.2,29.56,North,355,3.0,11.0,80,0.00,,SKC,0.02,VWS V13.01,2013-03-04 21:38:00,
2013-03-04 16:39:00,31.7,26.2,29.56,NNW,337,7.0,11.0,80,0.00,,SKC,0.02,VWS V13.01,2013-03-04 21:39:00,
2013-03-04 16:40:00,31.7,26.2,29.56,ENE,75,4.0,11.0,80,0.00,,SKC,0.02,VWS V13.01,2013-03-04 21:40:00,
2013-03-04 16:41:00,31.7,26.2,29.56,North,10,6.0,11.0,80,0.00,,SKC,0.02,VWS V13.01,2013-03-04 21:41:00,
2013-03-04 16:42:00,31.7,25.9,29.56,North,360,3.0,11.0,79,0.00,,SKC,0.02,VWS V13.01,2013-03-04 21:42:00,
2013-03-04 16:43:00,31.7,25.9,29.56,NNE,30,6.0,14.0,79,0.00,,SKC,0.02,VWS V13.01,2013-03-04 21:43:00,
2013-03-04 16:44:00,31.7,25.9,29.56,NNW,335,2.0,14.0,79,0.00,,SKC,0.02,VWS V13.01,2013-03-04 21:44:00,
2013-03-04 16:45:00,31.7,25.9,29.56,North,355,5.0,14.0,79,0.00,,SKC,0.02,VWS V13.01,2013-03-04 21:45:00,
2013-03-04 16:46:00,31.8,26.0,29.56,North,5,4.0,14.0,79,0.00,,SKC,0.02,VWS V13.01,2013-03-04 21:46:00,
2013-03-04 16:47:00,31.8,25.7,29.56,NNW,340,4.0,14.0,78,0.00,,SKC,0.02,VWS V13.01,2013-03-04 21:47:00,
2013-03-04 16:48:00,31.8,25.7,29.56,North,355,1.0,14.0,78,0.00,,SKC,0.02,VWS V13.01,2013-03-04 21:48:00,
2013-03-04 16:49:00,31.8,25.7,29.56,NNE,14,4.0,14.0,78,0.00,,SKC,0.02,VWS V13.01,2013-03-04 21:49:00,
2013-03-04 16:50:00,31.8,25.7,29.56,North,355,3.0,14.0,78,0.00,,SKC,0.02,VWS V13.01,2013-03-04 21:50:00,
2013-03-04 16:51:00,31.8,25.7,29.56,NW,309,0.0,14.0,78,0.00,,SKC,0.02,VWS V13.01,2013-03-04 21:51:00,
2013-03-04 16:52:00,31.8,25.7,29.56,NW,309,1.0,14.0,78,0.00,,SKC,0.02,VWS V13.01,2013-03-04 21:52:00,
2013-03-04 16:53:00,31.8,25.7,29.56,NW,309,1.0,14.0,78,0.00,,SKC,0.02,VWS V13.01,2013-03-04 21:53:00,
2013-03-04 16:54:00,31.8,25.7,29.56,NNW,348,3.0,14.0,78,0.00,,SKC,0.02,VWS V13.01,2013-03-04 21:54:00,
2013-03-04 16:55:00,31.8,25.7,29.56,North,355,2.0,14.0,78,0.00,,SKC,0.02,VWS V13.01,2013-03-04 21:55:00,
2013-03-04 16:56:00,31.8,25.7,29.56,North,355,6.0,14.0,78,0.00,,SKC,0.02,VWS V13.01,2013-03-04 21:56:00,
2013-03-04 16:57:00,31.8,25.7,29.56,North,11,1.0,14.0,78,0.00,,SKC,0.02,VWS V13.01,2013-03-04 21:57:00,
2013-03-04 16:58:00,31.8,25.4,29.56,NE,38,4.0,14.0,77,0.00,,SKC,0.02,VWS V13.01,2013-03-04 21:58:00,
2013-03-04 16:59:00,31.8,25.4,29.56,NNE,30,0.0,14.0,77,0.00,,SKC,0.02,VWS V13.01,2013-03-04 21:59:00,
2013-03-04 17:00:00,31.8,25.4,29.56,NNE,12,6.0,14.0,77,0.00,,SKC,0.02,VWS V13.01,2013-03-04 22:00:00,
2013-03-04 17:01:00,31.7,25.3,29.56,NNE,14,0.0,4.0,77,0.00,,SKC,0.02,VWS V13.01,2013-03-04 22:01:00,
2013-03-04 17:02:00,31.7,25.3,29.56,East,80,3.0,9.0,77,0.00,,SKC,0.02,VWS V13.01,2013-03-04 22:02:00,
2013-03-04 17:03:00,31.7,25.3,29.56,NNW,330,1.0,9.0,77,0.00,,SKC,0.02,VWS V13.01,2013-03-04 22:03:00,
2013-03-04 17:04:00,31.7,25.3,29.56,North,10,4.0,9.0,77,0.00,,SKC,0.02,VWS V13.01,2013-03-04 22:04:00,
2013-03-04 17:05:00,31.7,25.3,29.56,North,10,3.0,9.0,77,0.00,,SKC,0.02,VWS V13.01,2013-03-04 22:05:00,
2013-03-04 17:06:00,31.7,25.3,29.56,NNE,30,2.0,9.0,77,0.00,,SKC,0.02,VWS V13.01,2013-03-04 22:06:00,
2013-03-04 17:07:00,31.7,25.0,29.56,NNW,344,0.0,9.0,76,0.00,,SKC,0.02,VWS V13.01,2013-03-04 22:07:00,
2013-03-04 17:08:00,31.7,25.0,29.57,NNW,344,1.0,9.0,76,0.00,,SKC,0.02,VWS V13.01,2013-03-04 22:08:00,
2013-03-04 17:09:00,31.7,25.0,29.57,North,5,2.0,12.0,76,0.00,,SKC,0.02,VWS V13.01,2013-03-04 22:09:00,
2013-03-04 17:10:00,31.6,24.9,29.57,North,360,3.0,12.0,76,0.00,,SKC,0.02,VWS V13.01,2013-03-04 22:10:00,
2013-03-04 17:11:00,31.6,24.9,29.57,North,355,0.0,12.0,76,0.00,,SKC,0.02,VWS V13.01,2013-03-04 22:11:00,
2013-03-04 17:12:00,31.6,24.9,29.57,NE,38,0.0,12.0,76,0.00,,SKC,0.02,VWS V13.01,2013-03-04 22:12:00,
2013-03-04 17:13:00,31.6,24.9,29.57,NE,38,0.0,12.0,76,0.00,,SKC,0.02,VWS V13.01,2013-03-04 22:13:00,
2013-03-04 17:14:00,31.6,24.9,29.57,NE,39,2.0,12.0,76,0.00,,SKC,0.02,VWS V13.01,2013-03-04 22:14:00,
2013-03-04 17:15:00,31.5,24.8,29.57,NE,42,2.0,12.0,76,0.00,,SKC,0.02,VWS V13.01,2013-03-04 22:15:00,
2013-03-04 17:16:00,31.5,24.8,29.57,NNW,331,4.0,12.0,76,0.00,,SKC,0.02,VWS V13.01,2013-03-04 22:16:00,
2013-03-04 17:17:00,31.5,24.8,29.57,NNW,329,4.0,12.0,76,0.00,,SKC,0.02,VWS V13.01,2013-03-04 22:17:00,
2013-03-04 17:18:00,31.4,24.7,29.57,NNW,329,2.0,12.0,76,0.00,,SKC,0.02,VWS V13.01,2013-03-04 22:18:00,
2013-03-04 17:19:00,31.4,24.7,29.57,NNW,330,1.0,12.0,76,0.00,,SKC,0.02,VWS V13.01,2013-03-04 22:19:00,
2013-03-04 17:20:00,31.5,24.8,29.57,NE,34,6.0,12.0,76,0.00,,SKC,0.02,VWS V13.01,2013-03-04 22:20:00,
2013-03-04 17:21:00,31.5,24.8,29.57,NNE,12,4.0,12.0,76,0.00,,SKC,0.02,VWS V13.01,2013-03-04 22:21:00,
2013-03-04 17:22:00,31.5,24.5,29.57,North,360,0.0,12.0,75,0.00,,SKC,0.02,VWS V13.01,2013-03-04 22:22:00,
2013-03-04 17:23:00,31.5,24.8,29.57,NE,46,6.0,12.0,76,0.00,,SKC,0.02,VWS V13.01,2013-03-04 22:23:00,
2013-03-04 17:24:00,31.5,24.5,29.57,NNE,20,4.0,12.0,75,0.00,,SKC,0.02,VWS V13.01,2013-03-04 22:24:00,
2013-03-04 17:25:00,31.5,24.5,29.57,NNE,20,0.0,12.0,75,0.00,,SKC,0.02,VWS V13.01,2013-03-04 22:25:00,
2013-03-04 17:26:00,31.5,24.5,29.58,NE,34,2.0,12.0,75,0.00,,SKC,0.02,VWS V13.01,2013-03-04 22:26:00,
2013-03-04 17:27:00,31.5,24.5,29.58,NNE,15,5.0,12.0,75,0.00,,SKC,0.02,VWS V13.01,2013-03-04 22:27:00,
2013-03-04 17:28:00,31.5,24.5,29.57,NE,40,2.0,12.0,75,0.00,,SKC,0.02,VWS V13.01,2013-03-04 22:28:00,
2013-03-04 17:29:00,31.5,24.5,29.58,NE,35,3.0,12.0,75,0.00,,SKC,0.02,VWS V13.01,2013-03-04 22:29:00,
2013-03-04 17:30:00,31.5,24.5,29.58,North,5,4.0,12.0,75,0.00,,SKC,0.02,VWS V13.01,2013-03-04 22:30:00,
2013-03-04 17:31:00,31.5,24.5,29.57,North,5,1.0,4.0,75,0.00,,SKC,0.02,VWS V13.01,2013-03-04 22:31:00,
2013-03-04 17:32:00,31.5,24.5,29.57,North,350,1.0,5.0,75,0.00,,SKC,0.02,VWS V13.01,2013-03-04 22:32:00,
2013-03-04 17:33:00,31.4,24.4,29.57,North,355,4.0,5.0,75,0.00,,SKC,0.02,VWS V13.01,2013-03-04 22:33:00,
2013-03-04 17:34:00,31.4,24.4,29.57,NE,45,3.0,7.0,75,0.00,,SKC,0.02,VWS V13.01,2013-03-04 22:34:00,
2013-03-04 17:35:00,31.4,24.4,29.58,NE,44,2.0,7.0,75,0.00,,SKC,0.02,VWS V13.01,2013-03-04 22:35:00,
2013-03-04 17:36:00,31.4,24.4,29.58,NNW,346,7.0,7.0,75,0.00,,SKC,0.02,VWS V13.01,2013-03-04 22:36:00,
2013-03-04 17:37:00,31.4,24.4,29.58,NNW,348,2.0,7.0,75,0.00,,SKC,0.02,VWS V13.01,2013-03-04 22:37:00,
2013-03-04 17:38:00,31.4,24.4,29.58,NNW,348,0.0,7.0,75,0.00,,SKC,0.02,VWS V13.01,2013-03-04 22:38:00,
2013-03-04 17:39:00,31.4,24.4,29.58,North,355,4.0,7.0,75,0.00,,SKC,0.02,VWS V13.01,2013-03-04 22:39:00,
2013-03-04 17:40:00,31.4,24.4,29.58,NNE,23,4.0,7.0,75,0.00,,SKC,0.02,VWS V13.01,2013-03-04 22:40:00,
2013-03-04 17:41:00,31.4,24.1,29.58,NE,37,3.0,7.0,74,0.00,,SKC,0.02,VWS V13.01,2013-03-04 22:41:00,
2013-03-04 17:42:00,31.3,24.0,29.58,NNW,345,4.0,7.0,74,0.00,,SKC,0.02,VWS V13.01,2013-03-04 22:42:00,
2013-03-04 17:43:00,31.4,24.1,29.58,NNE,33,3.0,7.0,74,0.00,,SKC,0.02,VWS V13.01,2013-03-04 22:43:00,
2013-03-04 17:44:00,31.4,24.1,29.58,NNE,19,1.0,7.0,74,0.00,,SKC,0.02,VWS V13.01,2013-03-04 22:44:00,
2013-03-04 17:45:00,31.4,24.1,29.58,NNE,19,2.0,7.0,74,0.00,,SKC,0.02,VWS V13.01,2013-03-04 22:45:00,
2013-03-04 17:46:00,31.4,24.1,29.58,North,355,2.0,7.0,74,0.00,,SKC,0.02,VWS V13.01,2013-03-04 22:46:00,
2013-03-04 17:47:00,31.4,24.1,29.58,NE,55,4.0,9.0,74,0.00,,SKC,0.02,VWS V13.01,2013-03-04 22:47:00,
2013-03-04 17:48:00,31.3,24.0,29.58,NE,43,2.0,9.0,74,0.00,,SKC,0.02,VWS V13.01,2013-03-04 22:48:00,
2013-03-04 17:49:00,31.3,24.0,29.58,NE,48,2.0,9.0,74,0.00,,SKC,0.02,VWS V13.01,2013-03-04 22:49:00,
2013-03-04 17:50:00,31.3,24.0,29.58,NE,40,1.0,9.0,74,0.00,,SKC,0.02,VWS V13.01,2013-03-04 22:50:00,
2013-03-04 17:51:00,31.3,24.0,29.59,NE,40,0.0,9.0,74,0.00,,SKC,0.02,VWS V13.01,2013-03-04 22:51:00,
2013-03-04 17:52:00,31.3,24.0,29.59,NE,40,0.0,9.0,74,0.00,,SKC,0.02,VWS V13.01,2013-03-04 22:52:00,
2013-03-04 17:53:00,31.3,24.3,29.59,NE,40,0.0,9.0,75,0.00,,SKC,0.02,VWS V13.01,2013-03-04 22:53:00,
2013-03-04 17:54:00,31.2,24.2,29.59,NNE,31,2.0,9.0,75,0.00,,SKC,0.02,VWS V13.01,2013-03-04 22:54:00,
2013-03-04 17:55:00,31.2,24.2,29.59,NNE,31,1.0,9.0,75,0.00,,SKC,0.02,VWS V13.01,2013-03-04 22:55:00,
2013-03-04 17:56:00,31.2,24.2,29.59,NNE,31,1.0,9.0,75,0.00,,SKC,0.02,VWS V13.01,2013-03-04 22:56:00,
2013-03-04 17:57:00,31.2,24.2,29.59,NNE,28,1.0,9.0,75,0.00,,SKC,0.02,VWS V13.01,2013-03-04 22:57:00,
2013-03-04 17:58:00,31.1,24.4,29.59,NNE,28,3.0,9.0,76,0.00,,SKC,0.02,VWS V13.01,2013-03-04 22:58:00,
2013-03-04 17:59:00,31.2,24.2,29.59,NNE,28,2.0,9.0,75,0.00,,SKC,0.02,VWS V13.01,2013-03-04 22:59:00,
2013-03-04 18:00:00,31.1,24.1,29.59,NNW,346,4.0,9.0,75,0.00,,SKC,0.02,VWS V13.01,2013-03-04 23:00:00,
2013-03-04 18:01:00,31.2,24.2,29.59,North,350,1.0,3.0,75,0.00,,SKC,0.02,VWS V13.01,2013-03-04 23:01:00,
2013-03-04 18:02:00,31.2,24.2,29.59,North,350,0.0,3.0,75,0.00,,SKC,0.02,VWS V13.01,2013-03-04 23:02:00,
2013-03-04 18:03:00,31.2,24.2,29.59,North,350,0.0,4.0,75,0.00,,SKC,0.02,VWS V13.01,2013-03-04 23:03:00,
2013-03-04 18:04:00,31.2,24.2,29.59,North,350,3.0,4.0,75,0.00,,SKC,0.02,VWS V13.01,2013-03-04 23:04:00,
2013-03-04 18:05:00,31.2,24.2,29.59,North,350,0.0,4.0,75,0.00,,SKC,0.02,VWS V13.01,2013-03-04 23:05:00,
2013-03-04 18:06:00,31.2,24.2,29.59,North,360,5.0,6.0,75,0.00,,SKC,0.02,VWS V13.01,2013-03-04 23:06:00,
2013-03-04 18:07:00,31.2,24.2,29.59,North,355,2.0,6.0,75,0.00,,SKC,0.02,VWS V13.01,2013-03-04 23:07:00,
2013-03-04 18:08:00,31.2,24.2,29.59,North,355,0.0,6.0,75,0.00,,SKC,0.02,VWS V13.01,2013-03-04 23:08:00,
2013-03-04 18:09:00,31.2,24.2,29.59,NNW,346,6.0,7.0,75,0.00,,SKC,0.02,VWS V13.01,2013-03-04 23:09:00,
2013-03-04 18:10:00,31.2,23.9,29.59,North,355,3.0,7.0,74,0.00,,SKC,0.02,VWS V13.01,2013-03-04 23:10:00,
2013-03-04 18:11:00,31.2,23.9,29.59,North,355,2.0,7.0,74,0.00,,SKC,0.02,VWS V13.01,2013-03-04 23:11:00,
2013-03-04 18:12:00,31.2,23.9,29.59,NNW,342,4.0,7.0,74,0.00,,SKC,0.02,VWS V13.01,2013-03-04 23:12:00,
2013-03-04 18:13:00,31.2,23.9,29.59,NNW,344,1.0,7.0,74,0.00,,SKC,0.02,VWS V13.01,2013-03-04 23:13:00,
2013-03-04 18:14:00,31.2,23.9,29.59,NNW,344,0.0,7.0,74,0.00,,SKC,0.02,VWS V13.01,2013-03-04 23:14:00,
2013-03-04 18:15:00,31.2,23.9,29.59,NNW,344,0.0,7.0,74,0.00,,SKC,0.02,VWS V13.01,2013-03-04 23:15:00,
2013-03-04 18:16:00,31.2,24.2,29.59,NNW,344,0.0,7.0,75,0.00,,SKC,0.02,VWS V13.01,2013-03-04 23:16:00,
2013-03-04 18:17:00,31.1,24.1,29.59,NNW,344,1.0,7.0,75,0.00,,SKC,0.02,VWS V13.01,2013-03-04 23:17:00,
2013-03-04 18:18:00,31.1,24.1,29.59,NNW,344,2.0,7.0,75,0.00,,SKC,0.02,VWS V13.01,2013-03-04 23:18:00,
2013-03-04 18:19:00,31.1,24.1,29.59,NNW,344,2.0,7.0,75,0.00,,SKC,0.02,VWS V13.01,2013-03-04 23:19:00,
2013-03-04 18:20:00,31.0,24.0,29.59,NNE,25,3.0,9.0,75,0.00,,SKC,0.02,VWS V13.01,2013-03-04 23:20:00,
2013-03-04 18:21:00,31.0,24.0,29.59,NNW,342,3.0,9.0,75,0.00,,SKC,0.02,VWS V13.01,2013-03-04 23:21:00,
2013-03-04 18:22:00,31.0,24.0,29.59,NE,44,6.0,9.0,75,0.00,,SKC,0.02,VWS V13.01,2013-03-04 23:22:00,
2013-03-04 18:23:00,31.0,24.0,29.59,NNE,19,0.0,9.0,75,0.00,,SKC,0.02,VWS V13.01,2013-03-04 23:23:00,
2013-03-04 18:24:00,31.0,24.0,29.59,NNE,19,1.0,9.0,75,0.00,,SKC,0.02,VWS V13.01,2013-03-04 23:24:00,
2013-03-04 18:25:00,31.0,24.0,29.59,NNE,29,0.0,9.0,75,0.00,,SKC,0.02,VWS V13.01,2013-03-04 23:25:00,
2013-03-04 18:26:00,31.0,24.0,29.59,NNE,23,5.0,9.0,75,0.00,,SKC,0.02,VWS V13.01,2013-03-04 23:26:00,
2013-03-04 18:27:00,31.0,24.0,29.59,NNE,22,0.0,9.0,75,0.00,,SKC,0.02,VWS V13.01,2013-03-04 23:27:00,
2013-03-04 18:28:00,31.0,24.0,29.59,North,355,4.0,9.0,75,0.00,,SKC,0.02,VWS V13.01,2013-03-04 23:28:00,
2013-03-04 18:29:00,31.0,24.0,29.59,NNE,23,0.0,9.0,75,0.00,,SKC,0.02,VWS V13.01,2013-03-04 23:29:00,
2013-03-04 18:30:00,31.1,23.8,29.60,North,360,7.0,9.0,74,0.00,,SKC,0.02,VWS V13.01,2013-03-04 23:30:00,
2013-03-04 18:31:00,31.1,23.8,29.59,NE,38,3.0,7.0,74,0.00,,SKC,0.02,VWS V13.01,2013-03-04 23:31:00,
2013-03-04 18:32:00,31.1,23.8,29.60,NE,40,3.0,7.0,74,0.00,,SKC,0.02,VWS V13.01,2013-03-04 23:32:00,
2013-03-04 18:33:00,31.1,23.8,29.60,North,360,5.0,8.0,74,0.00,,SKC,0.02,VWS V13.01,2013-03-04 23:33:00,
2013-03-04 18:34:00,31.1,23.8,29.59,ENE,74,2.0,8.0,74,0.00,,SKC,0.02,VWS V13.01,2013-03-04 23:34:00,
2013-03-04 18:35:00,31.1,23.8,29.60,NNE,16,6.0,8.0,74,0.00,,SKC,0.02,VWS V13.01,2013-03-04 23:35:00,
2013-03-04 18:36:00,31.1,23.8,29.60,NNW,336,0.0,8.0,74,0.00,,SKC,0.02,VWS V13.01,2013-03-04 23:36:00,
2013-03-04 18:37:00,31.1,23.8,29.60,NNW,340,1.0,8.0,74,0.00,,SKC,0.02,VWS V13.01,2013-03-04 23:37:00,
2013-03-04 18:38:00,31.1,23.8,29.60,NE,42,4.0,8.0,74,0.00,,SKC,0.02,VWS V13.01,2013-03-04 23:38:00,
2013-03-04 18:39:00,31.1,23.8,29.60,North,5,7.0,8.0,74,0.00,,SKC,0.02,VWS V13.01,2013-03-04 23:39:00,
2013-03-04 18:40:00,31.1,23.8,29.60,NE,48,13.0,13.0,74,0.00,,SKC,0.02,VWS V13.01,2013-03-04 23:40:00,
2013-03-04 18:41:00,31.2,23.9,29.60,NNE,22,7.0,13.0,74,0.00,,SKC,0.02,VWS V13.01,2013-03-04 23:41:00,
2013-03-04 18:42:00,31.2,23.9,29.60,NE,34,5.0,13.0,74,0.00,,SKC,0.02,VWS V13.01,2013-03-04 23:42:00,
2013-03-04 18:43:00,31.3,23.7,29.60,North,360,5.0,13.0,73,0.00,,SKC,0.02,VWS V13.01,2013-03-04 23:43:00,
2013-03-04 18:44:00,31.3,23.7,29.60,NW,321,4.0,13.0,73,0.00,,SKC,0.02,VWS V13.01,2013-03-04 23:44:00,
2013-03-04 18:45:00,31.3,24.0,29.60,NNW,341,7.0,13.0,74,0.00,,SKC,0.02,VWS V13.01,2013-03-04 23:45:00,
2013-03-04 18:46:00,31.4,24.1,29.60,NE,49,3.0,13.0,74,0.00,,SKC,0.02,VWS V13.01,2013-03-04 23:46:00,
2013-03-04 18:47:00,31.4,24.1,29.60,NE,53,3.0,13.0,74,0.00,,SKC,0.02,VWS V13.01,2013-03-04 23:47:00,
2013-03-04 18:48:00,31.4,24.1,29.60,NNW,336,0.0,13.0,74,0.00,,SKC,0.02,VWS V13.01,2013-03-04 23:48:00,
2013-03-04 18:49:00,31.4,24.1,29.60,NE,49,1.0,13.0,74,0.00,,SKC,0.02,VWS V13.01,2013-03-04 23:49:00,
2013-03-04 18:50:00,31.4,24.1,29.60,North,5,1.0,13.0,74,0.00,,SKC,0.02,VWS V13.01,2013-03-04 23:50:00,
2013-03-04 18:51:00,31.4,24.1,29.60,NNE,32,9.0,13.0,74,0.00,,SKC,0.02,VWS V13.01,2013-03-04 23:51:00,
2013-03-04 18:52:00,31.4,24.1,29.60,East,79,7.0,13.0,74,0.00,,SKC,0.02,VWS V13.01,2013-03-04 23:52:00,
2013-03-04 18:53:00,31.3,24.0,29.60,NNE,15,4.0,13.0,74,0.00,,SKC,0.02,VWS V13.01,2013-03-04 23:53:00,
2013-03-04 18:54:00,31.3,24.0,29.60,NE,37,6.0,13.0,74,0.00,,SKC,0.02,VWS V13.01,2013-03-04 23:54:00,
2013-03-04 18:55:00,31.3,24.0,29.60,NW,312,4.0,13.0,74,0.00,,SKC,0.02,VWS V13.01,2013-03-04 23:55:00,
2013-03-04 18:56:00,31.3,24.0,29.60,NNE,24,4.0,13.0,74,0.00,,SKC,0.02,VWS V13.01,2013-03-04 23:56:00,
2013-03-04 18:57:00,31.4,24.1,29.61,NE,47,2.0,13.0,74,0.00,,SKC,0.02,VWS V13.01,2013-03-04 23:57:00,
2013-03-04 18:58:00,31.4,24.1,29.61,NNW,340,4.0,13.0,74,0.00,,SKC,0.02,VWS V13.01,2013-03-04 23:58:00,
2013-03-04 18:59:00,31.4,24.1,29.61,North,360,4.0,13.0,74,0.00,,SKC,0.02,VWS V13.01,2013-03-04 23:59:00,
2013-03-04 19:00:00,31.4,24.1,29.61,North,5,4.0,13.0,74,0.00,,SKC,0.02,VWS V13.01,2013-03-05 00:00:00,
2013-03-04 19:01:00,31.4,24.1,29.61,NE,46,3.0,9.0,74,0.00,,SKC,0.02,VWS V13.01,2013-03-05 00:01:00,
2013-03-04 19:02:00,31.4,24.1,29.61,NNE,26,4.0,9.0,74,0.00,,SKC,0.02,VWS V13.01,2013-03-05 00:02:00,
2013-03-04 19:03:00,31.3,24.0,29.61,NNE,28,3.0,11.0,74,0.00,,SKC,0.02,VWS V13.01,2013-03-05 00:03:00,
2013-03-04 19:04:00,31.3,24.0,29.61,NE,51,2.0,11.0,74,0.00,,SKC,0.02,VWS V13.01,2013-03-05 00:04:00,
2013-03-04 19:05:00,31.3,24.0,29.61,NNE,30,2.0,11.0,74,0.00,,SKC,0.02,VWS V13.01,2013-03-05 00:05:00,
2013-03-04 19:06:00,31.3,24.0,29.61,North,355,6.0,11.0,74,0.00,,SKC,0.02,VWS V13.01,2013-03-05 00:06:00,
2013-03-04 19:07:00,31.3,24.0,29.61,NE,52,7.0,11.0,74,0.00,,SKC,0.02,VWS V13.01,2013-03-05 00:07:00,
2013-03-04 19:08:00,31.3,24.0,29.61,NNW,344,2.0,16.0,74,0.00,,SKC,0.02,VWS V13.01,2013-03-05 00:08:00,
2013-03-04 19:09:00,31.3,24.0,29.61,NNW,347,3.0,16.0,74,0.00,,SKC,0.02,VWS V13.01,2013-03-05 00:09:00,
2013-03-04 19:10:00,31.3,24.0,29.61,NNE,21,4.0,16.0,74,0.00,,SKC,0.02,VWS V13.01,2013-03-05 00:10:00,
2013-03-04 19:11:00,31.2,23.9,29.61,NE,42,4.0,16.0,74,0.00,,SKC,0.02,VWS V13.01,2013-03-05 00:11:00,
2013-03-04 19:12:00,31.2,23.9,29.61,ENE,65,5.0,16.0,74,0.00,,SKC,0.02,VWS V13.01,2013-03-05 00:12:00,
2013-03-04 19:13:00,31.2,23.9,29.61,NNE,30,3.0,16.0,74,0.00,,SKC,0.02,VWS V13.01,2013-03-05 00:13:00,
2013-03-04 19:14:00,31.2,23.9,29.61,NE,55,12.0,16.0,74,0.00,,SKC,0.02,VWS V13.01,2013-03-05 00:14:00,
2013-03-04 19:15:00,31.2,23.9,29.61,North,355,8.0,16.0,74,0.00,,SKC,0.02,VWS V13.01,2013-03-05 00:15:00,
2013-03-04 19:16:00,31.2,23.9,29.61,NNE,32,3.0,16.0,74,0.00,,SKC,0.02,VWS V13.01,2013-03-05 00:16:00,
2013-03-04 19:17:00,31.2,23.9,29.61,NE,36,7.0,16.0,74,0.00,,SKC,0.02,VWS V13.01,2013-03-05 00:17:00,
2013-03-04 19:18:00,31.2,23.9,29.61,NE,55,7.0,16.0,74,0.00,,SKC,0.02,VWS V13.01,2013-03-05 00:18:00,
2013-03-04 19:19:00,31.2,23.9,29.62,NNE,24,11.0,16.0,74,0.00,,SKC,0.02,VWS V13.01,2013-03-05 00:19:00,
2013-03-04 19:20:00,31.2,23.9,29.61,North,5,3.0,16.0,74,0.00,,SKC,0.02,VWS V13.01,2013-03-05 00:20:00,
2013-03-04 19:21:00,31.2,23.9,29.62,North,355,15.0,16.0,74,0.00,,SKC,0.02,VWS V13.01,2013-03-05 00:21:00,
2013-03-04 19:22:00,31.2,23.9,29.62,NNE,12,0.0,16.0,74,0.00,,SKC,0.02,VWS V13.01,2013-03-05 00:22:00,
2013-03-04 19:23:00,31.2,23.9,29.62,NE,43,3.0,16.0,74,0.00,,SKC,0.02,VWS V13.01,2013-03-05 00:23:00,
2013-03-04 19:24:00,31.2,23.9,29.62,NE,36,3.0,16.0,74,0.00,,SKC,0.02,VWS V13.01,2013-03-05 00:24:00,
2013-03-04 19:25:00,31.2,23.9,29.62,NNW,341,7.0,16.0,74,0.00,,SKC,0.02,VWS V13.01,2013-03-05 00:25:00,
2013-03-04 19:26:00,31.2,23.9,29.62,North,360,2.0,16.0,74,0.00,,SKC,0.02,VWS V13.01,2013-03-05 00:26:00,
2013-03-04 19:27:00,31.2,23.9,29.62,North,11,2.0,16.0,74,0.00,,SKC,0.02,VWS V13.01,2013-03-05 00:27:00,
2013-03-04 19:28:00,31.2,23.9,29.62,North,355,2.0,16.0,74,0.00,,SKC,0.02,VWS V13.01,2013-03-05 00:28:00,
2013-03-04 19:29:00,31.2,23.9,29.62,NE,36,2.0,16.0,74,0.00,,SKC,0.02,VWS V13.01,2013-03-05 00:29:00,
2013-03-04 19:30:00,31.2,23.9,29.62,NNE,17,4.0,16.0,74,0.00,,SKC,0.02,VWS V13.01,2013-03-05 00:30:00,
2013-03-04 19:31:00,31.2,23.9,29.62,North,360,9.0,10.0,74,0.00,,SKC,0.02,VWS V13.01,2013-03-05 00:31:00,
2013-03-04 19:32:00,31.2,23.9,29.62,North,355,11.0,11.0,74,0.00,,SKC,0.02,VWS V13.01,2013-03-05 00:32:00,
2013-03-04 19:33:00,31.3,24.0,29.62,NNW,348,6.0,11.0,74,0.00,,SKC,0.02,VWS V13.01,2013-03-05 00:33:00,
2013-03-04 19:34:00,31.3,24.0,29.62,NNW,344,13.0,14.0,74,0.00,,SKC,0.02,VWS V13.01,2013-03-05 00:34:00,
2013-03-04 19:35:00,31.4,24.1,29.62,ENE,71,6.0,15.0,74,0.00,,SKC,0.02,VWS V13.01,2013-03-05 00:35:00,
2013-03-04 19:36:00,31.4,24.1,29.62,NNW,327,3.0,15.0,74,0.00,,SKC,0.02,VWS V13.01,2013-03-05 00:36:00,
2013-03-04 19:37:00,31.5,24.2,29.62,NNE,18,5.0,15.0,74,0.00,,SKC,0.02,VWS V13.01,2013-03-05 00:37:00,
2013-03-04 19:38:00,31.5,24.2,29.62,NNW,331,10.0,16.0,74,0.00,,SKC,0.02,VWS V13.01,2013-03-05 00:38:00,
2013-03-04 19:39:00,31.5,24.2,29.62,NNE,22,2.0,16.0,74,0.00,,SKC,0.02,VWS V13.01,2013-03-05 00:39:00,
2013-03-04 19:40:00,31.5,24.2,29.62,NE,44,4.0,16.0,74,0.00,,SKC,0.02,VWS V13.01,2013-03-05 00:40:00,
2013-03-04 19:41:00,31.4,24.4,29.62,NNE,20,3.0,16.0,75,0.00,,SKC,0.02,VWS V13.01,2013-03-05 00:41:00,
2013-03-04 19:42:00,31.4,24.4,29.62,North,10,7.0,16.0,75,0.00,,SKC,0.02,VWS V13.01,2013-03-05 00:42:00,
2013-03-04 19:43:00,31.4,24.4,29.62,NE,51,4.0,16.0,75,0.00,,SKC,0.02,VWS V13.01,2013-03-05 00:43:00,
2013-03-04 19:44:00,31.4,24.4,29.62,NE,52,1.0,16.0,75,0.00,,SKC,0.02,VWS V13.01,2013-03-05 00:44:00,
2013-03-04 19:45:00,31.4,24.4,29.62,NNE,21,3.0,16.0,75,0.00,,SKC,0.02,VWS V13.01,2013-03-05 00:45:00,
2013-03-04 19:46:00,31.3,24.3,29.62,North,5,5.0,16.0,75,0.00,,SKC,0.02,VWS V13.01,2013-03-05 00:46:00,
2013-03-04 19:47:00,31.3,24.6,29.62,NW,319,3.0,16.0,76,0.00,,SKC,0.02,VWS V13.01,2013-03-05 00:47:00,
2013-03-04 19:48:00,31.3,24.6,29.62,NNW,335,4.0,16.0,76,0.00,,SKC,0.02,VWS V13.01,2013-03-05 00:48:00,
2013-03-04 19:49:00,31.3,24.6,29.62,North,10,4.0,16.0,76,0.00,,SKC,0.02,VWS V13.01,2013-03-05 00:49:00,
2013-03-04 19:50:00,31.3,24.6,29.62,NNW,344,5.0,16.0,76,0.00,,SKC,0.02,VWS V13.01,2013-03-05 00:50:00,
2013-03-04 19:51:00,31.2,24.5,29.62,NNW,347,2.0,16.0,76,0.00,,SKC,0.02,VWS V13.01,2013-03-05 00:51:00,
2013-03-04 19:52:00,31.2,24.8,29.62,NNE,13,5.0,16.0,77,0.00,,SKC,0.02,VWS V13.01,2013-03-05 00:52:00,
2013-03-04 19:53:00,31.2,24.5,29.63,ENE,61,5.0,16.0,76,0.00,,SKC,0.02,VWS V13.01,2013-03-05 00:53:00,
2013-03-04 19:54:00,31.2,24.8,29.63,NE,56,11.0,16.0,77,0.00,,SKC,0.02,VWS V13.01,2013-03-05 00:54:00,
2013-03-04 19:55:00,31.2,24.8,29.63,NE,40,9.0,16.0,77,0.00,,SKC,0.02,VWS V13.01,2013-03-05 00:55:00,
2013-03-04 19:56:00,31.2,24.8,29.63,North,360,5.0,16.0,77,0.00,,SKC,0.02,VWS V13.01,2013-03-05 00:56:00,
2013-03-04 19:57:00,31.2,24.5,29.63,NNE,13,3.0,16.0,76,0.00,,SKC,0.02,VWS V13.01,2013-03-05 00:57:00,
2013-03-04 19:58:00,31.2,24.5,29.63,NNE,17,4.0,16.0,76,0.00,,SKC,0.02,VWS V13.01,2013-03-05 00:58:00,
2013-03-04 19:59:00,31.1,24.8,29.63,NNE,13,1.0,16.0,77,0.00,,SKC,0.02,VWS V13.01,2013-03-05 00:59:00,
2013-03-04 20:00:00,31.2,24.8,29.63,NNW,347,8.0,16.0,77,0.00,,SKC,0.02,VWS V13.01,2013-03-05 01:00:00,
2013-03-04 20:01:00,31.1,24.4,29.63,WNW,283,3.0,10.0,76,0.00,,SKC,0.02,VWS V13.01,2013-03-05 01:01:00,
2013-03-04 20:02:00,31.1,24.8,29.63,NE,52,3.0,10.0,77,0.00,,SKC,0.02,VWS V13.01,2013-03-05 01:02:00,
2013-03-04 20:03:00,31.1,24.8,29.63,NE,50,6.0,10.0,77,0.00,,SKC,0.02,VWS V13.01,2013-03-05 01:03:00,
2013-03-04 20:04:00,31.1,24.8,29.63,North,350,5.0,10.0,77,0.00,,SKC,0.02,VWS V13.01,2013-03-05 01:04:00,
2013-03-04 20:05:00,31.0,24.6,29.63,NE,38,2.0,10.0,77,0.00,,SKC,0.02,VWS V13.01,2013-03-05 01:05:00,
2013-03-04 20:06:00,31.0,24.6,29.63,NNE,32,1.0,10.0,77,0.00,,SKC,0.02,VWS V13.01,2013-03-05 01:06:00,
2013-03-04 20:07:00,31.0,24.6,29.63,North,11,3.0,10.0,77,0.00,,SKC,0.02,VWS V13.01,2013-03-05 01:07:00,
2013-03-04 20:08:00,31.0,24.6,29.63,NNW,345,6.0,14.0,77,0.00,,SKC,0.02,VWS V13.01,2013-03-05 01:08:00,
2013-03-04 20:09:00,30.9,24.5,29.64,NNE,21,3.0,14.0,77,0.00,,SKC,0.02,VWS V13.01,2013-03-05 01:09:00,
2013-03-04 20:10:00,30.9,26.4,29.64,NE,45,1.0,14.0,83,0.00,,SKC,0.02,VWS V13.01,2013-03-05 01:10:00,
2013-03-04 20:11:00,30.9,26.4,29.64,NE,44,2.0,14.0,83,0.00,,SKC,0.02,VWS V13.01,2013-03-05 01:11:00,
2013-03-04 20:12:00,30.8,24.8,29.64,NNE,21,5.0,14.0,78,0.00,,SKC,0.02,VWS V13.01,2013-03-05 01:12:00,
2013-03-04 20:13:00,30.8,24.5,29.64,NE,38,5.0,14.0,77,0.00,,SKC,0.02,VWS V13.01,2013-03-05 01:13:00,
2013-03-04 20:14:00,30.8,24.5,29.64,WNW,294,1.0,14.0,77,0.00,,SKC,0.02,VWS V13.01,2013-03-05 01:14:00,
2013-03-04 20:15:00,30.7,24.7,29.64,NNE,22,6.0,14.0,78,0.00,,SKC,0.02,VWS V13.01,2013-03-05 01:15:00,
2013-03-04 20:16:00,30.7,24.7,29.64,ENE,67,12.0,14.0,78,0.00,,SKC,0.02,VWS V13.01,2013-03-05 01:16:00,
2013-03-04 20:17:00,30.7,24.7,29.64,NE,41,4.0,14.0,78,0.00,,SKC,0.02,VWS V13.01,2013-03-05 01:17:00,
2013-03-04 20:18:00,30.7,24.7,29.64,NNE,15,9.0,14.0,78,0.00,,SKC,0.02,VWS V13.01,2013-03-05 01:18:00,
2013-03-04 20:19:00,30.6,24.6,29.64,North,360,3.0,14.0,78,0.00,,SKC,0.02,VWS V13.01,2013-03-05 01:19:00,
2013-03-04 20:20:00,30.6,24.6,29.64,North,10,0.0,14.0,78,0.00,,SKC,0.02,VWS V13.01,2013-03-05 01:20:00,
2013-03-04 20:21:00,30.6,24.6,29.64,NNW,329,10.0,14.0,78,0.00,,SKC,0.02,VWS V13.01,2013-03-05 01:21:00,
2013-03-04 20:22:00,30.5,24.5,29.65,NNE,17,4.0,14.0,78,0.00,,SKC,0.02,VWS V13.01,2013-03-05 01:22:00,
2013-03-04 20:23:00,30.5,24.5,29.64,North,360,5.0,14.0,78,0.00,,SKC,0.02,VWS V13.01,2013-03-05 01:23:00,
2013-03-04 20:24:00,30.5,24.8,29.64,ENE,70,10.0,14.0,79,0.00,,SKC,0.02,VWS V13.01,2013-03-05 01:24:00,
2013-03-04 20:25:00,30.5,24.8,29.64,NE,49,9.0,14.0,79,0.00,,SKC,0.02,VWS V13.01,2013-03-05 01:25:00,
2013-03-04 20:26:00,30.5,24.8,29.64,NNE,26,6.0,14.0,79,0.00,,SKC,0.02,VWS V13.01,2013-03-05 01:26:00,
2013-03-04 20:27:00,30.5,24.5,29.65,NNE,30,6.0,14.0,78,0.00,,SKC,0.02,VWS V13.01,2013-03-05 01:27:00,
2013-03-04 20:28:00,30.5,24.8,29.64,NE,48,5.0,14.0,79,0.00,,SKC,0.02,VWS V13.01,2013-03-05 01:28:00,
2013-03-04 20:29:00,30.5,24.8,29.64,ENE,60,4.0,14.0,79,0.00,,SKC,0.02,VWS V13.01,2013-03-05 01:29:00,
2013-03-04 20:30:00,30.5,24.8,29.65,North,5,3.0,14.0,79,0.00,,SKC,0.02,VWS V13.01,2013-03-05 01:30:00,
2013-03-04 20:31:00,30.5,24.8,29.64,NNW,336,6.0,6.0,79,0.00,,SKC,0.02,VWS V13.01,2013-03-05 01:31:00,
2013-03-04 20:32:00,30.4,24.7,29.65,North,355,2.0,10.0,79,0.00,,SKC,0.02,VWS V13.01,2013-03-05 01:32:00,
2013-03-04 20:33:00,30.5,24.8,29.65,NNW,345,2.0,10.0,79,0.00,,SKC,0.02,VWS V13.01,2013-03-05 01:33:00,
2013-03-04 20:34:00,30.5,24.8,29.65,NE,36,3.0,10.0,79,0.00,,SKC,0.02,VWS V13.01,2013-03-05 01:34:00,
2013-03-04 20:35:00,30.5,24.8,29.65,NNE,33,2.0,10.0,79,0.00,,SKC,0.02,VWS V13.01,2013-03-05 01:35:00,
2013-03-04 20:36:00,30.4,24.7,29.65,NE,46,3.0,10.0,79,0.00,,SKC,0.02,VWS V13.01,2013-03-05 01:36:00,
2013-03-04 20:37:00,30.4,24.7,29.65,North,360,6.0,11.0,79,0.00,,SKC,0.02,VWS V13.01,2013-03-05 01:37:00,
2013-03-04 20:38:00,30.4,24.7,29.65,NW,321,1.0,11.0,79,0.00,,SKC,0.02,VWS V13.01,2013-03-05 01:38:00,
2013-03-04 20:39:00,30.3,24.6,29.65,North,360,5.0,11.0,79,0.00,,SKC,0.02,VWS V13.01,2013-03-05 01:39:00,
2013-03-04 20:40:00,30.3,24.9,29.65,NNE,26,3.0,11.0,80,0.00,,SKC,0.02,VWS V13.01,2013-03-05 01:40:00,
2013-03-04 20:41:00,30.3,24.9,29.65,North,360,4.0,11.0,80,0.00,,SKC,0.02,VWS V13.01,2013-03-05 01:41:00,
2013-03-04 20:42:00,30.3,24.9,29.65,North,360,7.0,11.0,80,0.00,,SKC,0.02,VWS V13.01,2013-03-05 01:42:00,
2013-03-04 20:43:00,30.2,24.8,29.65,North,5,10.0,11.0,80,0.00,,SKC,0.02,VWS V13.01,2013-03-05 01:43:00,
2013-03-04 20:44:00,30.2,24.8,29.65,North,350,3.0,11.0,80,0.00,,SKC,0.02,VWS V13.01,2013-03-05 01:44:00,
2013-03-04 20:45:00,30.2,24.8,29.65,NNW,347,2.0,11.0,80,0.00,,SKC,0.02,VWS V13.01,2013-03-05 01:45:00,
2013-03-04 20:46:00,30.2,25.1,29.65,NE,41,3.0,11.0,81,0.00,,SKC,0.02,VWS V13.01,2013-03-05 01:46:00,
2013-03-04 20:47:00,30.1,25.0,29.65,NE,38,2.0,11.0,81,0.00,,SKC,0.02,VWS V13.01,2013-03-05 01:47:00,
2013-03-04 20:48:00,30.1,25.0,29.65,ENE,59,4.0,11.0,81,0.00,,SKC,0.02,VWS V13.01,2013-03-05 01:48:00,
2013-03-04 20:49:00,30.1,25.0,29.65,NNW,336,5.0,12.0,81,0.00,,SKC,0.02,VWS V13.01,2013-03-05 01:49:00,
2013-03-04 20:50:00,30.1,25.0,29.65,North,11,5.0,12.0,81,0.00,,SKC,0.02,VWS V13.01,2013-03-05 01:50:00,
2013-03-04 20:51:00,30.0,24.9,29.65,NNE,19,2.0,12.0,81,0.00,,SKC,0.02,VWS V13.01,2013-03-05 01:51:00,
2013-03-04 20:52:00,30.0,24.9,29.65,ENE,57,5.0,12.0,81,0.00,,SKC,0.02,VWS V13.01,2013-03-05 01:52:00,
2013-03-04 20:53:00,30.0,24.9,29.65,NE,45,11.0,13.0,81,0.00,,SKC,0.02,VWS V13.01,2013-03-05 01:53:00,
2013-03-04 20:54:00,30.0,24.9,29.65,NE,55,3.0,13.0,81,0.00,,SKC,0.02,VWS V13.01,2013-03-05 01:54:00,
2013-03-04 20:55:00,30.0,24.9,29.65,NNW,345,3.0,13.0,81,0.00,,SKC,0.02,VWS V13.01,2013-03-05 01:55:00,
2013-03-04 20:56:00,30.1,25.0,29.65,North,355,4.0,13.0,81,0.00,,SKC,0.02,VWS V13.01,2013-03-05 01:56:00,
2013-03-04 20:57:00,30.1,25.0,29.65,NNE,13,5.0,14.0,81,0.00,,SKC,0.02,VWS V13.01,2013-03-05 01:57:00,
2013-03-04 20:58:00,30.1,25.0,29.65,NNE,15,3.0,14.0,81,0.00,,SKC,0.02,VWS V13.01,2013-03-05 01:58:00,
2013-03-04 20:59:00,30.1,25.0,29.65,NE,42,6.0,14.0,81,0.00,,SKC,0.02,VWS V13.01,2013-03-05 01:59:00,
2013-03-04 21:00:00,30.1,25.0,29.65,NNE,17,9.0,14.0,81,0.00,,SKC,0.02,VWS V13.01,2013-03-05 02:00:00,
2013-03-04 21:01:00,30.1,25.0,29.65,NE,51,1.0,9.0,81,0.00,,SKC,0.02,VWS V13.01,2013-03-05 02:01:00,
2013-03-04 21:02:00,30.1,25.0,29.65,NE,55,1.0,9.0,81,0.00,,SKC,0.02,VWS V13.01,2013-03-05 02:02:00,
2013-03-04 21:03:00,30.1,25.0,29.65,NNE,24,1.0,9.0,81,0.00,,SKC,0.02,VWS V13.01,2013-03-05 02:03:00,
2013-03-04 21:04:00,30.1,25.0,29.65,NNE,24,0.0,9.0,81,0.00,,SKC,0.02,VWS V13.01,2013-03-05 02:04:00,
2013-03-04 21:05:00,30.2,25.1,29.65,NNE,28,0.0,9.0,81,0.00,,SKC,0.02,VWS V13.01,2013-03-05 02:05:00,
2013-03-04 21:06:00,30.1,25.0,29.65,ENE,71,7.0,10.0,81,0.00,,SKC,0.02,VWS V13.01,2013-03-05 02:06:00,
2013-03-04 21:07:00,30.2,25.1,29.66,NNE,32,5.0,10.0,81,0.00,,SKC,0.02,VWS V13.01,2013-03-05 02:07:00,
2013-03-04 21:08:00,30.2,25.1,29.65,NW,323,9.0,13.0,81,0.00,,SKC,0.02,VWS V13.01,2013-03-05 02:08:00,
2013-03-04 21:09:00,30.2,25.1,29.65,NNW,344,7.0,13.0,81,0.00,,SKC,0.02,VWS V13.01,2013-03-05 02:09:00,
2013-03-04 21:10:00,30.2,25.1,29.65,North,355,3.0,13.0,81,0.00,,SKC,0.02,VWS V13.01,2013-03-05 02:10:00,
2013-03-04 21:11:00,30.2,25.1,29.66,NNW,334,8.0,13.0,81,0.00,,SKC,0.02,VWS V13.01,2013-03-05 02:11:00,
2013-03-04 21:12:00,30.2,25.1,29.65,NNE,19,3.0,13.0,81,0.00,,SKC,0.02,VWS V13.01,2013-03-05 02:12:00,
2013-03-04 21:13:00,30.3,25.2,29.66,NNE,22,3.0,13.0,81,0.00,,SKC,0.02,VWS V13.01,2013-03-05 02:13:00,
2013-03-04 21:14:00,30.3,25.2,29.66,NE,52,5.0,13.0,81,0.00,,SKC,0.02,VWS V13.01,2013-03-05 02:14:00,
2013-03-04 21:15:00,30.3,25.2,29.66,North,350,1.0,13.0,81,0.00,,SKC,0.02,VWS V13.01,2013-03-05 02:15:00,
2013-03-04 21:16:00,30.3,25.2,29.65,NE,44,6.0,13.0,81,0.00,,SKC,0.02,VWS V13.01,2013-03-05 02:16:00,
2013-03-04 21:17:00,30.3,25.2,29.65,NNE,31,4.0,13.0,81,0.00,,SKC,0.02,VWS V13.01,2013-03-05 02:17:00,
2013-03-04 21:18:00,30.3,25.2,29.65,NNE,31,4.0,13.0,81,0.00,,SKC,0.02,VWS V13.01,2013-03-05 02:18:00,
2013-03-04 21:19:00,30.3,25.2,29.65,NNE,26,5.0,13.0,81,0.00,,SKC,0.02,VWS V13.01,2013-03-05 02:19:00,
2013-03-04 21:20:00,30.3,25.2,29.65,North,355,10.0,13.0,81,0.00,,SKC,0.02,VWS V13.01,2013-03-05 02:20:00,
2013-03-04 21:21:00,30.3,25.2,29.66,East,88,10.0,14.0,81,0.00,,SKC,0.02,VWS V13.01,2013-03-05 02:21:00,
2013-03-04 21:22:00,30.3,25.2,29.66,North,349,7.0,16.0,81,0.00,,SKC,0.02,VWS V13.01,2013-03-05 02:22:00,
2013-03-04 21:23:00,30.3,25.2,29.65,NNE,30,4.0,16.0,81,0.00,,SKC,0.02,VWS V13.01,2013-03-05 02:23:00,
2013-03-04 21:24:00,30.3,25.2,29.65,North,355,5.0,17.0,81,0.00,,SKC,0.02,VWS V13.01,2013-03-05 02:24:00,
2013-03-04 21:25:00,30.4,25.3,29.65,NE,55,5.0,17.0,81,0.00,,SKC,0.02,VWS V13.01,2013-03-05 02:25:00,
2013-03-04 21:26:00,30.4,25.3,29.66,NE,48,5.0,17.0,81,0.00,,SKC,0.02,VWS V13.01,2013-03-05 02:26:00,
2013-03-04 21:27:00,30.4,25.3,29.66,WNW,296,2.0,17.0,81,0.00,,SKC,0.02,VWS V13.01,2013-03-05 02:27:00,
2013-03-04 21:28:00,30.3,25.2,29.66,NE,38,1.0,17.0,81,0.00,,SKC,0.02,VWS V13.01,2013-03-05 02:28:00,
2013-03-04 21:29:00,30.3,25.2,29.65,NE,40,2.0,17.0,81,0.00,,SKC,0.02,VWS V13.01,2013-03-05 02:29:00,
2013-03-04 21:30:00,30.3,25.2,29.66,NNE,12,6.0,17.0,81,0.00,,SKC,0.02,VWS V13.01,2013-03-05 02:30:00,
2013-03-04 21:31:00,30.3,25.2,29.66,NE,49,4.0,6.0,81,0.00,,SKC,0.02,VWS V13.01,2013-03-05 02:31:00,
2013-03-04 21:32:00,30.3,25.5,29.66,NE,37,12.0,13.0,82,0.00,,SKC,0.02,VWS V13.01,2013-03-05 02:32:00,
2013-03-04 21:33:00,30.3,25.5,29.66,NNE,16,7.0,15.0,82,0.00,,SKC,0.02,VWS V13.01,2013-03-05 02:33:00,
2013-03-04 21:34:00,30.3,25.5,29.66,NNE,15,6.0,15.0,82,0.00,,SKC,0.02,VWS V13.01,2013-03-05 02:34:00,
2013-03-04 21:35:00,30.3,25.5,29.66,NNE,25,3.0,15.0,82,0.00,,SKC,0.02,VWS V13.01,2013-03-05 02:35:00,
2013-03-04 21:36:00,30.3,25.5,29.66,ENE,61,6.0,15.0,82,0.00,,SKC,0.02,VWS V13.01,2013-03-05 02:36:00,
2013-03-04 21:37:00,30.3,25.5,29.66,NNE,30,2.0,15.0,82,0.00,,SKC,0.02,VWS V13.01,2013-03-05 02:37:00,
2013-03-04 21:38:00,30.3,25.5,29.66,NNE,18,3.0,15.0,82,0.00,,SKC,0.02,VWS V13.01,2013-03-05 02:38:00,
2013-03-04 21:39:00,30.3,25.5,29.66,North,355,6.0,15.0,82,0.00,,SKC,0.02,VWS V13.01,2013-03-05 02:39:00,
2013-03-04 21:40:00,30.3,25.5,29.66,NNE,17,7.0,15.0,82,0.00,,SKC,0.02,VWS V13.01,2013-03-05 02:40:00,
2013-03-04 21:41:00,30.3,25.5,29.66,NNE,26,5.0,15.0,82,0.00,,SKC,0.02,VWS V13.01,2013-03-05 02:41:00,
2013-03-04 21:42:00,30.3,25.5,29.66,NNW,337,2.0,15.0,82,0.00,,SKC,0.02,VWS V13.01,2013-03-05 02:42:00,
2013-03-04 21:43:00,30.3,25.5,29.66,NNE,30,3.0,15.0,82,0.00,,SKC,0.02,VWS V13.01,2013-03-05 02:43:00,
2013-03-04 21:44:00,30.3,25.5,29.66,NW,322,1.0,15.0,82,0.00,,SKC,0.02,VWS V13.01,2013-03-05 02:44:00,
2013-03-04 21:45:00,30.3,25.5,29.66,NNE,23,10.0,15.0,82,0.00,,SKC,0.02,VWS V13.01,2013-03-05 02:45:00,
2013-03-04 21:46:00,30.3,25.5,29.66,NE,34,4.0,15.0,82,0.00,,SKC,0.02,VWS V13.01,2013-03-05 02:46:00,
2013-03-04 21:47:00,30.3,25.5,29.66,North,360,6.0,15.0,82,0.00,,SKC,0.02,VWS V13.01,2013-03-05 02:47:00,
2013-03-04 21:48:00,30.3,25.5,29.66,NNE,24,4.0,15.0,82,0.00,,SKC,0.02,VWS V13.01,2013-03-05 02:48:00,
2013-03-04 21:49:00,30.3,25.8,29.66,North,355,2.0,15.0,83,0.00,,SKC,0.02,VWS V13.01,2013-03-05 02:49:00,
2013-03-04 21:50:00,30.3,25.8,29.66,North,355,15.0,15.0,83,0.00,,SKC,0.02,VWS V13.01,2013-03-05 02:50:00,
2013-03-04 21:51:00,30.3,25.8,29.66,ENE,62,2.0,15.0,83,0.00,,SKC,0.02,VWS V13.01,2013-03-05 02:51:00,
2013-03-04 21:52:00,30.3,25.8,29.66,North,355,1.0,15.0,83,0.00,,SKC,0.02,VWS V13.01,2013-03-05 02:52:00,
2013-03-04 21:53:00,30.3,25.8,29.66,North,355,3.0,15.0,83,0.00,,SKC,0.02,VWS V13.01,2013-03-05 02:53:00,
2013-03-04 21:54:00,30.3,25.8,29.66,North,349,12.0,15.0,83,0.00,,SKC,0.02,VWS V13.01,2013-03-05 02:54:00,
2013-03-04 21:55:00,30.3,25.8,29.66,ENE,75,6.0,15.0,83,0.00,,SKC,0.02,VWS V13.01,2013-03-05 02:55:00,
2013-03-04 21:56:00,30.3,25.8,29.66,NE,39,10.0,15.0,83,0.00,,SKC,0.02,VWS V13.01,2013-03-05 02:56:00,
2013-03-04 21:57:00,30.3,25.8,29.66,North,360,2.0,15.0,83,0.00,,SKC,0.02,VWS V13.01,2013-03-05 02:57:00,
2013-03-04 21:58:00,30.3,25.8,29.67,WNW,300,5.0,15.0,83,0.00,,SKC,0.02,VWS V13.01,2013-03-05 02:58:00,
2013-03-04 21:59:00,30.3,25.8,29.67,NNW,335,3.0,15.0,83,0.00,,SKC,0.02,VWS V13.01,2013-03-05 02:59:00,
2013-03-04 22:00:00,30.3,25.8,29.66,ENE,76,11.0,15.0,83,0.00,,SKC,0.02,VWS V13.01,2013-03-05 03:00:00,
2013-03-04 22:01:00,30.3,25.8,29.67,ENE,69,2.0,11.0,83,0.00,,SKC,0.02,VWS V13.01,2013-03-05 03:01:00,
2013-03-04 22:02:00,30.2,25.7,29.67,NNE,19,4.0,11.0,83,0.00,,SKC,0.02,VWS V13.01,2013-03-05 03:02:00,
2013-03-04 22:03:00,30.2,25.7,29.66,NNE,14,12.0,14.0,83,0.00,,SKC,0.02,VWS V13.01,2013-03-05 03:03:00,
2013-03-04 22:04:00,30.2,25.7,29.66,NNW,333,4.0,16.0,83,0.00,,SKC,0.02,VWS V13.01,2013-03-05 03:04:00,
2013-03-04 22:05:00,30.2,25.7,29.67,ENE,67,7.0,17.0,83,0.00,,SKC,0.02,VWS V13.01,2013-03-05 03:05:00,
2013-03-04 22:06:00,30.1,25.6,29.67,NE,40,2.0,17.0,83,0.00,,SKC,0.02,VWS V13.01,2013-03-05 03:06:00,
2013-03-04 22:07:00,30.1,25.6,29.67,NNE,15,5.0,17.0,83,0.00,,SKC,0.02,VWS V13.01,2013-03-05 03:07:00,
2013-03-04 22:08:00,30.1,25.6,29.67,NNW,340,6.0,17.0,83,0.00,,SKC,0.02,VWS V13.01,2013-03-05 03:08:00,
2013-03-04 22:09:00,30.1,25.6,29.67,East,79,6.0,17.0,83,0.00,,SKC,0.02,VWS V13.01,2013-03-05 03:09:00,
2013-03-04 22:10:00,30.1,25.6,29.67,NNW,331,7.0,17.0,83,0.00,,SKC,0.02,VWS V13.01,2013-03-05 03:10:00,
2013-03-04 22:11:00,30.1,25.6,29.67,NNW,348,9.0,17.0,83,0.00,,SKC,0.02,VWS V13.01,2013-03-05 03:11:00,
2013-03-04 22:12:00,30.1,25.6,29.67,NE,38,4.0,17.0,83,0.00,,SKC,0.02,VWS V13.01,2013-03-05 03:12:00,
2013-03-04 22:13:00,30.1,25.6,29.67,North,360,1.0,17.0,83,0.00,,SKC,0.02,VWS V13.01,2013-03-05 03:13:00,
2013-03-04 22:14:00,30.1,25.6,29.67,North,11,7.0,17.0,83,0.00,,SKC,0.02,VWS V13.01,2013-03-05 03:14:00,
2013-03-04 22:15:00,30.1,25.6,29.67,North,10,3.0,17.0,83,0.00,,SKC,0.02,VWS V13.01,2013-03-05 03:15:00,
2013-03-04 22:16:00,30.1,25.6,29.67,NNW,343,10.0,17.0,83,0.00,,SKC,0.02,VWS V13.01,2013-03-05 03:16:00,
2013-03-04 22:17:00,30.1,25.6,29.67,North,9,4.0,17.0,83,0.00,,SKC,0.02,VWS V13.01,2013-03-05 03:17:00,
2013-03-04 22:18:00,30.1,25.6,29.67,NNW,340,6.0,17.0,83,0.00,,SKC,0.02,VWS V13.01,2013-03-05 03:18:00,
2013-03-04 22:19:00,30.1,25.6,29.67,North,355,6.0,17.0,83,0.00,,SKC,0.02,VWS V13.01,2013-03-05 03:19:00,
2013-03-04 22:20:00,30.1,25.6,29.67,North,355,5.0,17.0,83,0.00,,SKC,0.02,VWS V13.01,2013-03-05 03:20:00,
2013-03-04 22:21:00,30.1,25.6,29.67,North,355,5.0,17.0,83,0.00,,SKC,0.02,VWS V13.01,2013-03-05 03:21:00,
2013-03-04 22:22:00,30.1,25.6,29.67,North,350,4.0,17.0,83,0.00,,SKC,0.02,VWS V13.01,2013-03-05 03:22:00,
2013-03-04 22:23:00,30.1,25.6,29.67,NE,49,3.0,17.0,83,0.00,,SKC,0.02,VWS V13.01,2013-03-05 03:23:00,
2013-03-04 22:24:00,30.1,25.6,29.67,North,360,4.0,17.0,83,0.00,,SKC,0.02,VWS V13.01,2013-03-05 03:24:00,
2013-03-04 22:25:00,30.1,25.6,29.67,North,5,4.0,17.0,83,0.00,,SKC,0.02,VWS V13.01,2013-03-05 03:25:00,
2013-03-04 22:26:00,30.1,25.6,29.67,NNE,17,5.0,17.0,83,0.00,,SKC,0.02,VWS V13.01,2013-03-05 03:26:00,
2013-03-04 22:27:00,30.1,25.6,29.67,NNE,27,2.0,17.0,83,0.00,,SKC,0.02,VWS V13.01,2013-03-05 03:27:00,
2013-03-04 22:28:00,30.1,25.6,29.67,North,5,5.0,17.0,83,0.00,,SKC,0.02,VWS V13.01,2013-03-05 03:28:00,
2013-03-04 22:29:00,30.1,25.6,29.67,NE,40,11.0,17.0,83,0.00,,SKC,0.02,VWS V13.01,2013-03-05 03:29:00,
2013-03-04 22:30:00,30.2,25.7,29.67,East,82,9.0,19.0,83,0.00,,SKC,0.02,VWS V13.01,2013-03-05 03:30:00,
2013-03-04 22:31:00,30.3,25.8,29.67,NNE,15,4.0,9.0,83,0.00,,SKC,0.02,VWS V13.01,2013-03-05 03:31:00,
2013-03-04 22:32:00,30.3,25.8,29.67,North,5,3.0,9.0,83,0.00,,SKC,0.02,VWS V13.01,2013-03-05 03:32:00,
2013-03-04 22:33:00,30.3,25.8,29.67,NNE,21,3.0,9.0,83,0.00,,SKC,0.02,VWS V13.01,2013-03-05 03:33:00,
2013-03-04 22:34:00,30.3,25.5,29.67,NE,41,12.0,14.0,82,0.00,,SKC,0.02,VWS V13.01,2013-03-05 03:34:00,
2013-03-04 22:35:00,30.4,25.6,29.67,NNE,24,12.0,15.0,82,0.00,,SKC,0.02,VWS V13.01,2013-03-05 03:35:00,
2013-03-04 22:36:00,30.3,25.5,29.67,NNE,20,7.0,15.0,82,0.00,,SKC,0.02,VWS V13.01,2013-03-05 03:36:00,
2013-03-04 22:37:00,30.3,25.5,29.67,ENE,66,8.0,15.0,82,0.00,,SKC,0.02,VWS V13.01,2013-03-05 03:37:00,
2013-03-04 22:38:00,30.3,25.5,29.67,NNE,14,5.0,15.0,82,0.00,,SKC,0.02,VWS V13.01,2013-03-05 03:38:00,
2013-03-04 22:39:00,30.3,25.5,29.67,ENE,69,4.0,15.0,82,0.00,,SKC,0.02,VWS V13.01,2013-03-05 03:39:00,
2013-03-04 22:40:00,30.4,25.6,29.67,ENE,69,4.0,15.0,82,0.00,,SKC,0.02,VWS V13.01,2013-03-05 03:40:00,
2013-03-04 22:41:00,30.4,25.6,29.68,ENE,64,5.0,15.0,82,0.00,,SKC,0.02,VWS V13.01,2013-03-05 03:41:00,
2013-03-04 22:42:00,30.4,25.6,29.68,ENE,68,3.0,16.0,82,0.00,,SKC,0.02,VWS V13.01,2013-03-05 03:42:00,
2013-03-04 22:43:00,30.4,25.6,29.67,NNE,30,2.0,16.0,82,0.00,,SKC,0.02,VWS V13.01,2013-03-05 03:43:00,
2013-03-04 22:44:00,30.4,25.6,29.68,NNE,26,1.0,16.0,82,0.00,,SKC,0.02,VWS V13.01,2013-03-05 03:44:00,
2013-03-04 22:45:00,30.4,25.6,29.68,East,82,4.0,16.0,82,0.00,,SKC,0.02,VWS V13.01,2013-03-05 03:45:00,
2013-03-04 22:46:00,30.4,25.3,29.68,NE,45,1.0,16.0,81,0.00,,SKC,0.02,VWS V13.01,2013-03-05 03:46:00,
2013-03-04 22:47:00,30.5,25.4,29.68,North,360,5.0,16.0,81,0.00,,SKC,0.02,VWS V13.01,2013-03-05 03:47:00,
2013-03-04 22:48:00,30.5,25.4,29.68,North,355,3.0,16.0,81,0.00,,SKC,0.02,VWS V13.01,2013-03-05 03:48:00,
2013-03-04 22:49:00,30.5,25.4,29.68,NNE,32,4.0,16.0,81,0.00,,SKC,0.02,VWS V13.01,2013-03-05 03:49:00,
2013-03-04 22:50:00,30.6,25.5,29.68,East,84,6.0,16.0,81,0.00,,SKC,0.02,VWS V13.01,2013-03-05 03:50:00,
2013-03-04 22:51:00,30.6,25.5,29.68,NNE,26,5.0,16.0,81,0.00,,SKC,0.02,VWS V13.01,2013-03-05 03:51:00,
2013-03-04 22:52:00,30.6,25.5,29.68,NE,35,2.0,16.0,81,0.00,,SKC,0.02,VWS V13.01,2013-03-05 03:52:00,
2013-03-04 22:53:00,30.6,25.5,29.68,East,88,0.0,16.0,81,0.00,,SKC,0.02,VWS V13.01,2013-03-05 03:53:00,
2013-03-04 22:54:00,30.6,25.5,29.68,NNE,22,4.0,16.0,81,0.00,,SKC,0.02,VWS V13.01,2013-03-05 03:54:00,
2013-03-04 22:55:00,30.6,25.2,29.68,NE,42,2.0,16.0,80,0.00,,SKC,0.02,VWS V13.01,2013-03-05 03:55:00,
2013-03-04 22:56:00,30.7,25.3,29.68,ENE,78,9.0,16.0,80,0.00,,SKC,0.02,VWS V13.01,2013-03-05 03:56:00,
2013-03-04 22:57:00,30.7,25.3,29.68,East,82,10.0,17.0,80,0.00,,SKC,0.02,VWS V13.01,2013-03-05 03:57:00,
2013-03-04 22:58:00,30.8,25.4,29.68,North,350,9.0,17.0,80,0.00,,SKC,0.02,VWS V13.01,2013-03-05 03:58:00,
2013-03-04 22:59:00,30.8,25.4,29.68,NNE,30,16.0,17.0,80,0.00,,SKC,0.02,VWS V13.01,2013-03-05 03:59:00,
2013-03-04 23:00:00,30.8,25.4,29.68,ENE,57,6.0,17.0,80,0.00,,SKC,0.02,VWS V13.01,2013-03-05 04:00:00,
2013-03-04 23:01:00,30.8,25.1,29.68,NNE,21,1.0,9.0,79,0.00,,SKC,0.02,VWS V13.01,2013-03-05 04:01:00,
2013-03-04 23:02:00,30.8,25.1,29.68,ENE,72,2.0,9.0,79,0.00,,SKC,0.02,VWS V13.01,2013-03-05 04:02:00,
2013-03-04 23:03:00,30.8,25.1,29.68,North,9,7.0,14.0,79,0.00,,SKC,0.02,VWS V13.01,2013-03-05 04:03:00,
2013-03-04 23:04:00,30.8,25.1,29.68,North,349,3.0,14.0,79,0.00,,SKC,0.02,VWS V13.01,2013-03-05 04:04:00,
2013-03-04 23:05:00,30.8,25.1,29.68,NNE,26,3.0,14.0,79,0.00,,SKC,0.02,VWS V13.01,2013-03-05 04:05:00,
2013-03-04 23:06:00,30.9,25.2,29.68,NNE,26,10.0,14.0,79,0.00,,SKC,0.02,VWS V13.01,2013-03-05 04:06:00,
2013-03-04 23:07:00,30.8,25.1,29.68,NE,41,4.0,14.0,79,0.00,,SKC,0.02,VWS V13.01,2013-03-05 04:07:00,
2013-03-04 23:08:00,30.8,25.1,29.69,NE,42,1.0,14.0,79,0.00,,SKC,0.02,VWS V13.01,2013-03-05 04:08:00,
2013-03-04 23:09:00,30.9,25.2,29.68,NNE,24,4.0,14.0,79,0.00,,SKC,0.02,VWS V13.01,2013-03-05 04:09:00,
2013-03-04 23:10:00,30.8,25.1,29.69,NE,38,0.0,14.0,79,0.00,,SKC,0.02,VWS V13.01,2013-03-05 04:10:00,
2013-03-04 23:11:00,30.8,25.1,29.69,NE,41,8.0,14.0,79,0.00,,SKC,0.02,VWS V13.01,2013-03-05 04:11:00,
2013-03-04 23:12:00,30.9,25.2,29.69,NNE,16,4.0,14.0,79,0.00,,SKC,0.02,VWS V13.01,2013-03-05 04:12:00,
2013-03-04 23:13:00,30.9,25.2,29.69,North,360,4.0,14.0,79,0.00,,SKC,0.02,VWS V13.01,2013-03-05 04:13:00,
2013-03-04 23:14:00,30.9,25.2,29.69,NE,46,5.0,14.0,79,0.00,,SKC,0.02,VWS V13.01,2013-03-05 04:14:00,
2013-03-04 23:15:00,30.9,25.2,29.68,NNE,28,3.0,14.0,79,0.00,,SKC,0.02,VWS V13.01,2013-03-05 04:15:00,
2013-03-04 23:16:00,30.9,25.2,29.69,ENE,71,5.0,14.0,79,0.00,,SKC,0.02,VWS V13.01,2013-03-05 04:16:00,
2013-03-04 23:17:00,30.9,25.2,29.69,NE,44,4.0,14.0,79,0.00,,SKC,0.02,VWS V13.01,2013-03-05 04:17:00,
2013-03-04 23:18:00,30.9,25.2,29.69,NE,51,7.0,14.0,79,0.00,,SKC,0.02,VWS V13.01,2013-03-05 04:18:00,
2013-03-04 23:19:00,31.0,25.3,29.69,NNE,27,4.0,14.0,79,0.00,,SKC,0.02,VWS V13.01,2013-03-05 04:19:00,
2013-03-04 23:20:00,31.0,25.3,29.69,NE,36,3.0,14.0,79,0.00,,SKC,0.02,VWS V13.01,2013-03-05 04:20:00,
2013-03-04 23:21:00,31.0,25.3,29.69,ENE,63,9.0,14.0,79,0.00,,SKC,0.02,VWS V13.01,2013-03-05 04:21:00,
2013-03-04 23:22:00,31.0,25.3,29.69,ENE,59,4.0,14.0,79,0.00,,SKC,0.02,VWS V13.01,2013-03-05 04:22:00,
2013-03-04 23:23:00,31.1,25.4,29.69,NE,38,7.0,14.0,79,0.00,,SKC,0.02,VWS V13.01,2013-03-05 04:23:00,
2013-03-04 23:24:00,31.1,25.4,29.69,North,350,9.0,14.0,79,0.00,,SKC,0.02,VWS V13.01,2013-03-05 04:24:00,
2013-03-04 23:25:00,31.1,25.4,29.69,North,360,2.0,14.0,79,0.00,,SKC,0.02,VWS V13.01,2013-03-05 04:25:00,
2013-03-04 23:26:00,31.1,25.0,29.69,East,90,9.0,14.0,78,0.00,,SKC,0.02,VWS V13.01,2013-03-05 04:26:00,
2013-03-04 23:27:00,31.2,25.1,29.69,ENE,65,7.0,14.0,78,0.00,,SKC,0.02,VWS V13.01,2013-03-05 04:27:00,
2013-03-04 23:28:00,31.2,25.1,29.69,NE,46,6.0,14.0,78,0.00,,SKC,0.02,VWS V13.01,2013-03-05 04:28:00,
2013-03-04 23:29:00,31.2,25.1,29.69,ENE,62,11.0,14.0,78,0.00,,SKC,0.02,VWS V13.01,2013-03-05 04:29:00,
2013-03-04 23:30:00,31.2,25.1,29.69,NE,54,6.0,14.0,78,0.00,,SKC,0.02,VWS V13.01,2013-03-05 04:30:00,
2013-03-04 23:31:00,31.2,25.1,29.69,NE,43,5.0,6.0,78,0.00,,SKC,0.02,VWS V13.01,2013-03-05 04:31:00,
2013-03-04 23:32:00,31.3,25.2,29.69,NE,34,11.0,11.0,78,0.00,,SKC,0.02,VWS V13.01,2013-03-05 04:32:00,
2013-03-04 23:33:00,31.2,25.1,29.69,NE,39,5.0,11.0,78,0.00,,SKC,0.02,VWS V13.01,2013-03-05 04:33:00,
2013-03-04 23:34:00,31.3,25.2,29.69,ENE,61,5.0,11.0,78,0.00,,SKC,0.02,VWS V13.01,2013-03-05 04:34:00,
2013-03-04 23:35:00,31.3,25.2,29.69,NE,48,7.0,11.0,78,0.00,,SKC,0.02,VWS V13.01,2013-03-05 04:35:00,
2013-03-04 23:36:00,31.3,25.2,29.69,NNE,25,7.0,11.0,78,0.00,,SKC,0.02,VWS V13.01,2013-03-05 04:36:00,
2013-03-04 23:37:00,31.3,25.2,29.69,NE,40,1.0,11.0,78,0.00,,SKC,0.02,VWS V13.01,2013-03-05 04:37:00,
2013-03-04 23:38:00,31.3,25.2,29.69,NNE,18,5.0,11.0,78,0.00,,SKC,0.02,VWS V13.01,2013-03-05 04:38:00,
2013-03-04 23:39:00,31.3,25.2,29.69,ENE,59,7.0,11.0,78,0.00,,SKC,0.02,VWS V13.01,2013-03-05 04:39:00,
2013-03-04 23:40:00,31.4,25.4,29.70,NNE,24,7.0,11.0,78,0.00,,SKC,0.02,VWS V13.01,2013-03-05 04:40:00,
2013-03-04 23:41:00,31.3,25.2,29.69,North,9,2.0,11.0,78,0.00,,SKC,0.02,VWS V13.01,2013-03-05 04:41:00,
2013-03-04 23:42:00,31.4,25.4,29.69,NE,41,2.0,11.0,78,0.00,,SKC,0.02,VWS V13.01,2013-03-05 04:42:00,
2013-03-04 23:43:00,31.3,25.2,29.69,North,360,6.0,12.0,78,0.00,,SKC,0.02,VWS V13.01,2013-03-05 04:43:00,
2013-03-04 23:44:00,31.3,25.2,29.69,ENE,57,4.0,14.0,78,0.00,,SKC,0.02,VWS V13.01,2013-03-05 04:44:00,
2013-03-04 23:45:00,31.3,25.2,29.69,North,5,12.0,14.0,78,0.00,,SKC,0.02,VWS V13.01,2013-03-05 04:45:00,
2013-03-04 23:46:00,31.3,25.2,29.70,NE,41,9.0,14.0,78,0.00,,SKC,0.02,VWS V13.01,2013-03-05 04:46:00,
2013-03-04 23:47:00,31.3,25.2,29.70,NE,36,5.0,14.0,78,0.00,,SKC,0.02,VWS V13.01,2013-03-05 04:47:00,
2013-03-04 23:48:00,31.2,25.1,29.70,NE,51,1.0,14.0,78,0.00,,SKC,0.02,VWS V13.01,2013-03-05 04:48:00,
2013-03-04 23:49:00,31.2,25.1,29.70,ESE,111,5.0,14.0,78,0.00,,SKC,0.02,VWS V13.01,2013-03-05 04:49:00,
2013-03-04 23:50:00,31.2,25.5,29.70,North,360,3.0,14.0,79,0.00,,SKC,0.02,VWS V13.01,2013-03-05 04:50:00,
2013-03-04 23:51:00,31.2,25.5,29.70,NE,51,4.0,14.0,79,0.00,,SKC,0.02,VWS V13.01,2013-03-05 04:51:00,
2013-03-04 23:52:00,31.2,25.5,29.70,NE,40,13.0,14.0,79,0.00,,SKC,0.02,VWS V13.01,2013-03-05 04:52:00,
2013-03-04 23:53:00,31.2,25.5,29.70,NNE,24,4.0,14.0,79,0.00,,SKC,0.02,VWS V13.01,2013-03-05 04:53:00,
2013-03-04 23:54:00,31.1,25.4,29.70,East,90,9.0,14.0,79,0.00,,SKC,0.02,VWS V13.01,2013-03-05 04:54:00,
2013-03-04 23:55:00,31.2,25.5,29.70,NNE,19,4.0,15.0,79,0.00,,SKC,0.02,VWS V13.01,2013-03-05 04:55:00,
2013-03-04 23:56:00,31.2,25.5,29.70,East,90,5.0,15.0,79,0.00,,SKC,0.02,VWS V13.01,2013-03-05 04:56:00,
2013-03-04 23:57:00,31.1,25.4,29.70,ENE,61,5.0,15.0,79,0.00,,SKC,0.02,VWS V13.01,2013-03-05 04:57:00,
2013-03-04 23:58:00,31.1,25.4,29.70,NE,42,11.0,15.0,79,0.00,,SKC,0.02,VWS V13.01,2013-03-05 04:58:00,
2013-03-04 23:59:00,31.1,25.7,29.70,NE,47,1.0,15.0,80,0.00,,SKC,0.02,VWS V13.01,2013-03-05 04:59:00,